<?xml version="1.0" encoding="utf-8"?>
<gpx xmlns:tc2="http://www.garmin.com/xmlschemas/TrainingCenterDatabase/v2" xmlns:xsi="http://www.w3.org/2001/XMLSchema-instance" xmlns:tp1="http://www.garmin.com/xmlschemas/TrackPointExtension/v1" xmlns="http://www.topografix.com/GPX/1/1" version="1.1" creator="TC2 to GPX11 XSLT stylesheet" xsi:schemaLocation="http://www.topografix.com/GPX/1/1 http://www.topografix.com/GPX/1/1/gpx.xsd http://www.garmin.com/xmlschemas/TrackPointExtension/v1 http://www.garmin.com/xmlschemas/TrackPointExtensionv1.xsd">
<trk>
<name>2011-08-15T12:12:13Z</name>
<trkseg>
<trkpt lat="50.7234937" lon="7.0141337">
<ele>163.0808105</ele>
<time>2011-08-15T12:12:13Z</time>
<extensions>
<tp1:TrackPointExtension>
<tp1:hr>84</tp1:hr>
</tp1:TrackPointExtension>
</extensions>
</trkpt>
<trkpt lat="50.7234934" lon="7.0141337">
<ele>163.0808105</ele>
<time>2011-08-15T12:12:14Z</time>
<extensions>
<tp1:TrackPointExtension>
<tp1:hr>84</tp1:hr>
</tp1:TrackPointExtension>
</extensions>
</trkpt>
<trkpt lat="50.7234952" lon="7.0141363">
<ele>163.5615234</ele>
<time>2011-08-15T12:12:15Z</time>
<extensions>
<tp1:TrackPointExtension>
<tp1:hr>85</tp1:hr>
</tp1:TrackPointExtension>
</extensions>
</trkpt>
<trkpt lat="50.7235252" lon="7.0142946">
<ele>165.0034180</ele>
<time>2011-08-15T12:12:19Z</time>
<extensions>
<tp1:TrackPointExtension>
<tp1:hr>90</tp1:hr>
</tp1:TrackPointExtension>
</extensions>
</trkpt>
<trkpt lat="50.7235466" lon="7.0145185">
<ele>165.9647217</ele>
<time>2011-08-15T12:12:22Z</time>
<extensions>
<tp1:TrackPointExtension>
<tp1:hr>97</tp1:hr>
</tp1:TrackPointExtension>
</extensions>
</trkpt>
<trkpt lat="50.7234563" lon="7.0146305">
<ele>167.4067383</ele>
<time>2011-08-15T12:12:25Z</time>
<extensions>
<tp1:TrackPointExtension>
<tp1:hr>97</tp1:hr>
</tp1:TrackPointExtension>
</extensions>
</trkpt>
<trkpt lat="50.7233475" lon="7.0146480">
<ele>167.8873291</ele>
<time>2011-08-15T12:12:28Z</time>
<extensions>
<tp1:TrackPointExtension>
<tp1:hr>102</tp1:hr>
</tp1:TrackPointExtension>
</extensions>
</trkpt>
<trkpt lat="50.7231378" lon="7.0145924">
<ele>167.8873291</ele>
<time>2011-08-15T12:12:32Z</time>
<extensions>
<tp1:TrackPointExtension>
<tp1:hr>109</tp1:hr>
</tp1:TrackPointExtension>
</extensions>
</trkpt>
<trkpt lat="50.7230042" lon="7.0145801">
<ele>167.8873291</ele>
<time>2011-08-15T12:12:35Z</time>
<extensions>
<tp1:TrackPointExtension>
<tp1:hr>114</tp1:hr>
</tp1:TrackPointExtension>
</extensions>
</trkpt>
<trkpt lat="50.7229590" lon="7.0145815">
<ele>168.8487549</ele>
<time>2011-08-15T12:12:36Z</time>
<extensions>
<tp1:TrackPointExtension>
<tp1:hr>119</tp1:hr>
</tp1:TrackPointExtension>
</extensions>
</trkpt>
<trkpt lat="50.7228762" lon="7.0145583">
<ele>169.3294678</ele>
<time>2011-08-15T12:12:38Z</time>
<extensions>
<tp1:TrackPointExtension>
<tp1:hr>120</tp1:hr>
</tp1:TrackPointExtension>
</extensions>
</trkpt>
<trkpt lat="50.7227631" lon="7.0146480">
<ele>171.2520752</ele>
<time>2011-08-15T12:12:42Z</time>
<extensions>
<tp1:TrackPointExtension>
<tp1:hr>120</tp1:hr>
</tp1:TrackPointExtension>
</extensions>
</trkpt>
<trkpt lat="50.7227197" lon="7.0148506">
<ele>168.8487549</ele>
<time>2011-08-15T12:12:46Z</time>
<extensions>
<tp1:TrackPointExtension>
<tp1:hr>121</tp1:hr>
</tp1:TrackPointExtension>
</extensions>
</trkpt>
<trkpt lat="50.7226772" lon="7.0149695">
<ele>169.3294678</ele>
<time>2011-08-15T12:12:49Z</time>
<extensions>
<tp1:TrackPointExtension>
<tp1:hr>122</tp1:hr>
</tp1:TrackPointExtension>
</extensions>
</trkpt>
<trkpt lat="50.7225949" lon="7.0149042">
<ele>168.3680420</ele>
<time>2011-08-15T12:12:52Z</time>
<extensions>
<tp1:TrackPointExtension>
<tp1:hr>122</tp1:hr>
</tp1:TrackPointExtension>
</extensions>
</trkpt>
<trkpt lat="50.7224746" lon="7.0146226">
<ele>166.9260254</ele>
<time>2011-08-15T12:12:56Z</time>
<extensions>
<tp1:TrackPointExtension>
<tp1:hr>123</tp1:hr>
</tp1:TrackPointExtension>
</extensions>
</trkpt>
<trkpt lat="50.7223922" lon="7.0145196">
<ele>164.5227051</ele>
<time>2011-08-15T12:12:58Z</time>
<extensions>
<tp1:TrackPointExtension>
<tp1:hr>125</tp1:hr>
</tp1:TrackPointExtension>
</extensions>
</trkpt>
<trkpt lat="50.7223172" lon="7.0143890">
<ele>162.6000977</ele>
<time>2011-08-15T12:13:00Z</time>
<extensions>
<tp1:TrackPointExtension>
<tp1:hr>126</tp1:hr>
</tp1:TrackPointExtension>
</extensions>
</trkpt>
<trkpt lat="50.7220848" lon="7.0142041">
<ele>159.7161865</ele>
<time>2011-08-15T12:13:05Z</time>
<extensions>
<tp1:TrackPointExtension>
<tp1:hr>130</tp1:hr>
</tp1:TrackPointExtension>
</extensions>
</trkpt>
<trkpt lat="50.7216353" lon="7.0142015">
<ele>160.1968994</ele>
<time>2011-08-15T12:13:13Z</time>
<extensions>
<tp1:TrackPointExtension>
<tp1:hr>131</tp1:hr>
</tp1:TrackPointExtension>
</extensions>
</trkpt>
<trkpt lat="50.7212174" lon="7.0142179">
<ele>161.1582031</ele>
<time>2011-08-15T12:13:20Z</time>
<extensions>
<tp1:TrackPointExtension>
<tp1:hr>129</tp1:hr>
</tp1:TrackPointExtension>
</extensions>
</trkpt>
<trkpt lat="50.7207036" lon="7.0139643">
<ele>159.7161865</ele>
<time>2011-08-15T12:13:29Z</time>
<extensions>
<tp1:TrackPointExtension>
<tp1:hr>125</tp1:hr>
</tp1:TrackPointExtension>
</extensions>
</trkpt>
<trkpt lat="50.7204489" lon="7.0137365">
<ele>159.2354736</ele>
<time>2011-08-15T12:13:34Z</time>
<extensions>
<tp1:TrackPointExtension>
<tp1:hr>124</tp1:hr>
</tp1:TrackPointExtension>
</extensions>
</trkpt>
<trkpt lat="50.7199509" lon="7.0133157">
<ele>157.7935791</ele>
<time>2011-08-15T12:13:43Z</time>
<extensions>
<tp1:TrackPointExtension>
<tp1:hr>123</tp1:hr>
</tp1:TrackPointExtension>
</extensions>
</trkpt>
<trkpt lat="50.7195273" lon="7.0129584">
<ele>156.8321533</ele>
<time>2011-08-15T12:13:50Z</time>
<extensions>
<tp1:TrackPointExtension>
<tp1:hr>121</tp1:hr>
</tp1:TrackPointExtension>
</extensions>
</trkpt>
<trkpt lat="50.7192231" lon="7.0126682">
<ele>155.8709717</ele>
<time>2011-08-15T12:13:55Z</time>
<extensions>
<tp1:TrackPointExtension>
<tp1:hr>116</tp1:hr>
</tp1:TrackPointExtension>
</extensions>
</trkpt>
<trkpt lat="50.7189361" lon="7.0123352">
<ele>154.4289551</ele>
<time>2011-08-15T12:14:00Z</time>
<extensions>
<tp1:TrackPointExtension>
<tp1:hr>112</tp1:hr>
</tp1:TrackPointExtension>
</extensions>
</trkpt>
<trkpt lat="50.7187154" lon="7.0123345">
<ele>152.9869385</ele>
<time>2011-08-15T12:14:03Z</time>
<extensions>
<tp1:TrackPointExtension>
<tp1:hr>110</tp1:hr>
</tp1:TrackPointExtension>
</extensions>
</trkpt>
<trkpt lat="50.7186414" lon="7.0124035">
<ele>152.9869385</ele>
<time>2011-08-15T12:14:04Z</time>
<extensions>
<tp1:TrackPointExtension>
<tp1:hr>109</tp1:hr>
</tp1:TrackPointExtension>
</extensions>
</trkpt>
<trkpt lat="50.7184228" lon="7.0126677">
<ele>152.0257568</ele>
<time>2011-08-15T12:14:07Z</time>
<extensions>
<tp1:TrackPointExtension>
<tp1:hr>106</tp1:hr>
</tp1:TrackPointExtension>
</extensions>
</trkpt>
<trkpt lat="50.7180087" lon="7.0132280">
<ele>150.1030273</ele>
<time>2011-08-15T12:14:13Z</time>
<extensions>
<tp1:TrackPointExtension>
<tp1:hr>102</tp1:hr>
</tp1:TrackPointExtension>
</extensions>
</trkpt>
<trkpt lat="50.7179573" lon="7.0133023">
<ele>149.6223145</ele>
<time>2011-08-15T12:14:14Z</time>
<extensions>
<tp1:TrackPointExtension>
<tp1:hr>102</tp1:hr>
</tp1:TrackPointExtension>
</extensions>
</trkpt>
<trkpt lat="50.7177964" lon="7.0132711">
<ele>149.1416016</ele>
<time>2011-08-15T12:14:17Z</time>
<extensions>
<tp1:TrackPointExtension>
<tp1:hr>101</tp1:hr>
</tp1:TrackPointExtension>
</extensions>
</trkpt>
<trkpt lat="50.7177492" lon="7.0131959">
<ele>149.1416016</ele>
<time>2011-08-15T12:14:18Z</time>
<extensions>
<tp1:TrackPointExtension>
<tp1:hr>101</tp1:hr>
</tp1:TrackPointExtension>
</extensions>
</trkpt>
<trkpt lat="50.7175140" lon="7.0130567">
<ele>150.1030273</ele>
<time>2011-08-15T12:14:22Z</time>
<extensions>
<tp1:TrackPointExtension>
<tp1:hr>106</tp1:hr>
</tp1:TrackPointExtension>
</extensions>
</trkpt>
<trkpt lat="50.7173247" lon="7.0131441">
<ele>150.5836182</ele>
<time>2011-08-15T12:14:25Z</time>
<extensions>
<tp1:TrackPointExtension>
<tp1:hr>109</tp1:hr>
</tp1:TrackPointExtension>
</extensions>
</trkpt>
<trkpt lat="50.7168594" lon="7.0135168">
<ele>151.0642090</ele>
<time>2011-08-15T12:14:33Z</time>
<extensions>
<tp1:TrackPointExtension>
<tp1:hr>115</tp1:hr>
</tp1:TrackPointExtension>
</extensions>
</trkpt>
<trkpt lat="50.7167519" lon="7.0135986">
<ele>151.5449219</ele>
<time>2011-08-15T12:14:35Z</time>
<extensions>
<tp1:TrackPointExtension>
<tp1:hr>116</tp1:hr>
</tp1:TrackPointExtension>
</extensions>
</trkpt>
<trkpt lat="50.7163809" lon="7.0137104">
<ele>152.9869385</ele>
<time>2011-08-15T12:14:41Z</time>
<extensions>
<tp1:TrackPointExtension>
<tp1:hr>121</tp1:hr>
</tp1:TrackPointExtension>
</extensions>
</trkpt>
<trkpt lat="50.7162378" lon="7.0137487">
<ele>153.4676514</ele>
<time>2011-08-15T12:14:43Z</time>
<extensions>
<tp1:TrackPointExtension>
<tp1:hr>123</tp1:hr>
</tp1:TrackPointExtension>
</extensions>
</trkpt>
<trkpt lat="50.7159041" lon="7.0136560">
<ele>152.5063477</ele>
<time>2011-08-15T12:14:47Z</time>
<extensions>
<tp1:TrackPointExtension>
<tp1:hr>122</tp1:hr>
</tp1:TrackPointExtension>
</extensions>
</trkpt>
<trkpt lat="50.7156571" lon="7.0134871">
<ele>149.6223145</ele>
<time>2011-08-15T12:14:50Z</time>
<extensions>
<tp1:TrackPointExtension>
<tp1:hr>120</tp1:hr>
</tp1:TrackPointExtension>
</extensions>
</trkpt>
<trkpt lat="50.7153749" lon="7.0135199">
<ele>146.7384033</ele>
<time>2011-08-15T12:14:53Z</time>
<extensions>
<tp1:TrackPointExtension>
<tp1:hr>119</tp1:hr>
</tp1:TrackPointExtension>
</extensions>
</trkpt>
<trkpt lat="50.7152846" lon="7.0135940">
<ele>146.7384033</ele>
<time>2011-08-15T12:14:54Z</time>
<extensions>
<tp1:TrackPointExtension>
<tp1:hr>119</tp1:hr>
</tp1:TrackPointExtension>
</extensions>
</trkpt>
<trkpt lat="50.7150033" lon="7.0138326">
<ele>145.7770996</ele>
<time>2011-08-15T12:14:57Z</time>
<extensions>
<tp1:TrackPointExtension>
<tp1:hr>118</tp1:hr>
</tp1:TrackPointExtension>
</extensions>
</trkpt>
<trkpt lat="50.7144430" lon="7.0142025">
<ele>141.9317627</ele>
<time>2011-08-15T12:15:03Z</time>
<extensions>
<tp1:TrackPointExtension>
<tp1:hr>114</tp1:hr>
</tp1:TrackPointExtension>
</extensions>
</trkpt>
<trkpt lat="50.7142578" lon="7.0143386">
<ele>140.0091553</ele>
<time>2011-08-15T12:15:06Z</time>
<extensions>
<tp1:TrackPointExtension>
<tp1:hr>111</tp1:hr>
</tp1:TrackPointExtension>
</extensions>
</trkpt>
<trkpt lat="50.7141300" lon="7.0142598">
<ele>137.6058350</ele>
<time>2011-08-15T12:15:09Z</time>
<extensions>
<tp1:TrackPointExtension>
<tp1:hr>105</tp1:hr>
</tp1:TrackPointExtension>
</extensions>
</trkpt>
<trkpt lat="50.7140731" lon="7.0140833">
<ele>134.7219238</ele>
<time>2011-08-15T12:15:11Z</time>
<extensions>
<tp1:TrackPointExtension>
<tp1:hr>105</tp1:hr>
</tp1:TrackPointExtension>
</extensions>
</trkpt>
<trkpt lat="50.7138227" lon="7.0134856">
<ele>130.3959961</ele>
<time>2011-08-15T12:15:18Z</time>
<extensions>
<tp1:TrackPointExtension>
<tp1:hr>107</tp1:hr>
</tp1:TrackPointExtension>
</extensions>
</trkpt>
<trkpt lat="50.7135940" lon="7.0131002">
<ele>129.4346924</ele>
<time>2011-08-15T12:15:23Z</time>
<extensions>
<tp1:TrackPointExtension>
<tp1:hr>112</tp1:hr>
</tp1:TrackPointExtension>
</extensions>
</trkpt>
<trkpt lat="50.7133287" lon="7.0125698">
<ele>127.9925537</ele>
<time>2011-08-15T12:15:30Z</time>
<extensions>
<tp1:TrackPointExtension>
<tp1:hr>117</tp1:hr>
</tp1:TrackPointExtension>
</extensions>
</trkpt>
<trkpt lat="50.7132042" lon="7.0122497">
<ele>126.5506592</ele>
<time>2011-08-15T12:15:34Z</time>
<extensions>
<tp1:TrackPointExtension>
<tp1:hr>122</tp1:hr>
</tp1:TrackPointExtension>
</extensions>
</trkpt>
<trkpt lat="50.7131392" lon="7.0120765">
<ele>125.5893555</ele>
<time>2011-08-15T12:15:36Z</time>
<extensions>
<tp1:TrackPointExtension>
<tp1:hr>123</tp1:hr>
</tp1:TrackPointExtension>
</extensions>
</trkpt>
<trkpt lat="50.7129464" lon="7.0118136">
<ele>124.1473389</ele>
<time>2011-08-15T12:15:40Z</time>
<extensions>
<tp1:TrackPointExtension>
<tp1:hr>121</tp1:hr>
</tp1:TrackPointExtension>
</extensions>
</trkpt>
<trkpt lat="50.7128231" lon="7.0119300">
<ele>123.6667480</ele>
<time>2011-08-15T12:15:42Z</time>
<extensions>
<tp1:TrackPointExtension>
<tp1:hr>120</tp1:hr>
</tp1:TrackPointExtension>
</extensions>
</trkpt>
<trkpt lat="50.7127076" lon="7.0120776">
<ele>123.6667480</ele>
<time>2011-08-15T12:15:44Z</time>
<extensions>
<tp1:TrackPointExtension>
<tp1:hr>119</tp1:hr>
</tp1:TrackPointExtension>
</extensions>
</trkpt>
<trkpt lat="50.7122487" lon="7.0125112">
<ele>126.0699463</ele>
<time>2011-08-15T12:15:50Z</time>
<extensions>
<tp1:TrackPointExtension>
<tp1:hr>117</tp1:hr>
</tp1:TrackPointExtension>
</extensions>
</trkpt>
<trkpt lat="50.7120677" lon="7.0126465">
<ele>127.0313721</ele>
<time>2011-08-15T12:15:52Z</time>
<extensions>
<tp1:TrackPointExtension>
<tp1:hr>116</tp1:hr>
</tp1:TrackPointExtension>
</extensions>
</trkpt>
<trkpt lat="50.7116743" lon="7.0126712">
<ele>124.6280518</ele>
<time>2011-08-15T12:15:56Z</time>
<extensions>
<tp1:TrackPointExtension>
<tp1:hr>114</tp1:hr>
</tp1:TrackPointExtension>
</extensions>
</trkpt>
<trkpt lat="50.7115167" lon="7.0125891">
<ele>124.1473389</ele>
<time>2011-08-15T12:15:58Z</time>
<extensions>
<tp1:TrackPointExtension>
<tp1:hr>112</tp1:hr>
</tp1:TrackPointExtension>
</extensions>
</trkpt>
<trkpt lat="50.7114080" lon="7.0125148">
<ele>124.1473389</ele>
<time>2011-08-15T12:16:00Z</time>
<extensions>
<tp1:TrackPointExtension>
<tp1:hr>110</tp1:hr>
</tp1:TrackPointExtension>
</extensions>
</trkpt>
<trkpt lat="50.7110995" lon="7.0124357">
<ele>124.6280518</ele>
<time>2011-08-15T12:16:06Z</time>
<extensions>
<tp1:TrackPointExtension>
<tp1:hr>109</tp1:hr>
</tp1:TrackPointExtension>
</extensions>
</trkpt>
<trkpt lat="50.7108112" lon="7.0123875">
<ele>126.0699463</ele>
<time>2011-08-15T12:16:11Z</time>
<extensions>
<tp1:TrackPointExtension>
<tp1:hr>117</tp1:hr>
</tp1:TrackPointExtension>
</extensions>
</trkpt>
<trkpt lat="50.7105401" lon="7.0123605">
<ele>127.5119629</ele>
<time>2011-08-15T12:16:16Z</time>
<extensions>
<tp1:TrackPointExtension>
<tp1:hr>123</tp1:hr>
</tp1:TrackPointExtension>
</extensions>
</trkpt>
<trkpt lat="50.7101740" lon="7.0122590">
<ele>128.4733887</ele>
<time>2011-08-15T12:16:23Z</time>
<extensions>
<tp1:TrackPointExtension>
<tp1:hr>128</tp1:hr>
</tp1:TrackPointExtension>
</extensions>
</trkpt>
<trkpt lat="50.7099514" lon="7.0121775">
<ele>128.9541016</ele>
<time>2011-08-15T12:16:27Z</time>
<extensions>
<tp1:TrackPointExtension>
<tp1:hr>133</tp1:hr>
</tp1:TrackPointExtension>
</extensions>
</trkpt>
<trkpt lat="50.7096487" lon="7.0120821">
<ele>128.4733887</ele>
<time>2011-08-15T12:16:32Z</time>
<extensions>
<tp1:TrackPointExtension>
<tp1:hr>138</tp1:hr>
</tp1:TrackPointExtension>
</extensions>
</trkpt>
<trkpt lat="50.7091199" lon="7.0119626">
<ele>129.4346924</ele>
<time>2011-08-15T12:16:40Z</time>
<extensions>
<tp1:TrackPointExtension>
<tp1:hr>140</tp1:hr>
</tp1:TrackPointExtension>
</extensions>
</trkpt>
<trkpt lat="50.7084771" lon="7.0118275">
<ele>127.0313721</ele>
<time>2011-08-15T12:16:49Z</time>
<extensions>
<tp1:TrackPointExtension>
<tp1:hr>137</tp1:hr>
</tp1:TrackPointExtension>
</extensions>
</trkpt>
<trkpt lat="50.7080527" lon="7.0116684">
<ele>124.1473389</ele>
<time>2011-08-15T12:16:54Z</time>
<extensions>
<tp1:TrackPointExtension>
<tp1:hr>134</tp1:hr>
</tp1:TrackPointExtension>
</extensions>
</trkpt>
<trkpt lat="50.7078782" lon="7.0115952">
<ele>122.7054443</ele>
<time>2011-08-15T12:16:56Z</time>
<extensions>
<tp1:TrackPointExtension>
<tp1:hr>134</tp1:hr>
</tp1:TrackPointExtension>
</extensions>
</trkpt>
<trkpt lat="50.7075271" lon="7.0115959">
<ele>121.2635498</ele>
<time>2011-08-15T12:17:00Z</time>
<extensions>
<tp1:TrackPointExtension>
<tp1:hr>129</tp1:hr>
</tp1:TrackPointExtension>
</extensions>
</trkpt>
<trkpt lat="50.7073602" lon="7.0116828">
<ele>121.2635498</ele>
<time>2011-08-15T12:17:02Z</time>
<extensions>
<tp1:TrackPointExtension>
<tp1:hr>128</tp1:hr>
</tp1:TrackPointExtension>
</extensions>
</trkpt>
<trkpt lat="50.7069889" lon="7.0119606">
<ele>120.7828369</ele>
<time>2011-08-15T12:17:07Z</time>
<extensions>
<tp1:TrackPointExtension>
<tp1:hr>122</tp1:hr>
</tp1:TrackPointExtension>
</extensions>
</trkpt>
<trkpt lat="50.7067894" lon="7.0121123">
<ele>120.7828369</ele>
<time>2011-08-15T12:17:10Z</time>
<extensions>
<tp1:TrackPointExtension>
<tp1:hr>115</tp1:hr>
</tp1:TrackPointExtension>
</extensions>
</trkpt>
<trkpt lat="50.7067261" lon="7.0121620">
<ele>120.7828369</ele>
<time>2011-08-15T12:17:11Z</time>
<extensions>
<tp1:TrackPointExtension>
<tp1:hr>115</tp1:hr>
</tp1:TrackPointExtension>
</extensions>
</trkpt>
<trkpt lat="50.7063241" lon="7.0125464">
<ele>121.2635498</ele>
<time>2011-08-15T12:17:18Z</time>
<extensions>
<tp1:TrackPointExtension>
<tp1:hr>119</tp1:hr>
</tp1:TrackPointExtension>
</extensions>
</trkpt>
<trkpt lat="50.7059683" lon="7.0126909">
<ele>119.3408203</ele>
<time>2011-08-15T12:17:23Z</time>
<extensions>
<tp1:TrackPointExtension>
<tp1:hr>118</tp1:hr>
</tp1:TrackPointExtension>
</extensions>
</trkpt>
<trkpt lat="50.7053703" lon="7.0126722">
<ele>116.9375000</ele>
<time>2011-08-15T12:17:30Z</time>
<extensions>
<tp1:TrackPointExtension>
<tp1:hr>113</tp1:hr>
</tp1:TrackPointExtension>
</extensions>
</trkpt>
<trkpt lat="50.7049038" lon="7.0127780">
<ele>115.9761963</ele>
<time>2011-08-15T12:17:36Z</time>
<extensions>
<tp1:TrackPointExtension>
<tp1:hr>108</tp1:hr>
</tp1:TrackPointExtension>
</extensions>
</trkpt>
<trkpt lat="50.7045132" lon="7.0128591">
<ele>115.9761963</ele>
<time>2011-08-15T12:17:42Z</time>
<extensions>
<tp1:TrackPointExtension>
<tp1:hr>112</tp1:hr>
</tp1:TrackPointExtension>
</extensions>
</trkpt>
<trkpt lat="50.7044531" lon="7.0128578">
<ele>115.9761963</ele>
<time>2011-08-15T12:17:43Z</time>
<extensions>
<tp1:TrackPointExtension>
<tp1:hr>115</tp1:hr>
</tp1:TrackPointExtension>
</extensions>
</trkpt>
<trkpt lat="50.7042391" lon="7.0127576">
<ele>115.9761963</ele>
<time>2011-08-15T12:17:47Z</time>
<extensions>
<tp1:TrackPointExtension>
<tp1:hr>117</tp1:hr>
</tp1:TrackPointExtension>
</extensions>
</trkpt>
<trkpt lat="50.7040637" lon="7.0126043">
<ele>116.4567871</ele>
<time>2011-08-15T12:17:51Z</time>
<extensions>
<tp1:TrackPointExtension>
<tp1:hr>121</tp1:hr>
</tp1:TrackPointExtension>
</extensions>
</trkpt>
<trkpt lat="50.7039610" lon="7.0126866">
<ele>116.4567871</ele>
<time>2011-08-15T12:17:54Z</time>
<extensions>
<tp1:TrackPointExtension>
<tp1:hr>122</tp1:hr>
</tp1:TrackPointExtension>
</extensions>
</trkpt>
<trkpt lat="50.7039595" lon="7.0127647">
<ele>116.4567871</ele>
<time>2011-08-15T12:17:55Z</time>
<extensions>
<tp1:TrackPointExtension>
<tp1:hr>122</tp1:hr>
</tp1:TrackPointExtension>
</extensions>
</trkpt>
<trkpt lat="50.7039121" lon="7.0136328">
<ele>115.0148926</ele>
<time>2011-08-15T12:18:05Z</time>
<extensions>
<tp1:TrackPointExtension>
<tp1:hr>126</tp1:hr>
</tp1:TrackPointExtension>
</extensions>
</trkpt>
<trkpt lat="50.7039071" lon="7.0137276">
<ele>114.5341797</ele>
<time>2011-08-15T12:18:06Z</time>
<extensions>
<tp1:TrackPointExtension>
<tp1:hr>127</tp1:hr>
</tp1:TrackPointExtension>
</extensions>
</trkpt>
<trkpt lat="50.7037013" lon="7.0142415">
<ele>112.1309814</ele>
<time>2011-08-15T12:18:12Z</time>
<extensions>
<tp1:TrackPointExtension>
<tp1:hr>131</tp1:hr>
</tp1:TrackPointExtension>
</extensions>
</trkpt>
<trkpt lat="50.7036692" lon="7.0146215">
<ele>113.5729980</ele>
<time>2011-08-15T12:18:16Z</time>
<extensions>
<tp1:TrackPointExtension>
<tp1:hr>131</tp1:hr>
</tp1:TrackPointExtension>
</extensions>
</trkpt>
<trkpt lat="50.7037398" lon="7.0147801">
<ele>114.5341797</ele>
<time>2011-08-15T12:18:18Z</time>
<extensions>
<tp1:TrackPointExtension>
<tp1:hr>131</tp1:hr>
</tp1:TrackPointExtension>
</extensions>
</trkpt>
<trkpt lat="50.7041347" lon="7.0155433">
<ele>119.3408203</ele>
<time>2011-08-15T12:18:27Z</time>
<extensions>
<tp1:TrackPointExtension>
<tp1:hr>129</tp1:hr>
</tp1:TrackPointExtension>
</extensions>
</trkpt>
<trkpt lat="50.7043655" lon="7.0158208">
<ele>118.3793945</ele>
<time>2011-08-15T12:18:31Z</time>
<extensions>
<tp1:TrackPointExtension>
<tp1:hr>124</tp1:hr>
</tp1:TrackPointExtension>
</extensions>
</trkpt>
<trkpt lat="50.7044282" lon="7.0158714">
<ele>117.4182129</ele>
<time>2011-08-15T12:18:32Z</time>
<extensions>
<tp1:TrackPointExtension>
<tp1:hr>123</tp1:hr>
</tp1:TrackPointExtension>
</extensions>
</trkpt>
<trkpt lat="50.7044961" lon="7.0160855">
<ele>114.0535889</ele>
<time>2011-08-15T12:18:35Z</time>
<extensions>
<tp1:TrackPointExtension>
<tp1:hr>120</tp1:hr>
</tp1:TrackPointExtension>
</extensions>
</trkpt>
<trkpt lat="50.7044283" lon="7.0162452">
<ele>114.0535889</ele>
<time>2011-08-15T12:18:37Z</time>
<extensions>
<tp1:TrackPointExtension>
<tp1:hr>118</tp1:hr>
</tp1:TrackPointExtension>
</extensions>
</trkpt>
<trkpt lat="50.7039853" lon="7.0170206">
<ele>115.4956055</ele>
<time>2011-08-15T12:18:48Z</time>
<extensions>
<tp1:TrackPointExtension>
<tp1:hr>121</tp1:hr>
</tp1:TrackPointExtension>
</extensions>
</trkpt>
<trkpt lat="50.7036679" lon="7.0175748">
<ele>115.0148926</ele>
<time>2011-08-15T12:18:56Z</time>
<extensions>
<tp1:TrackPointExtension>
<tp1:hr>125</tp1:hr>
</tp1:TrackPointExtension>
</extensions>
</trkpt>
<trkpt lat="50.7032011" lon="7.0180592">
<ele>116.4567871</ele>
<time>2011-08-15T12:19:05Z</time>
<extensions>
<tp1:TrackPointExtension>
<tp1:hr>125</tp1:hr>
</tp1:TrackPointExtension>
</extensions>
</trkpt>
<trkpt lat="50.7027503" lon="7.0185163">
<ele>118.3793945</ele>
<time>2011-08-15T12:19:14Z</time>
<extensions>
<tp1:TrackPointExtension>
<tp1:hr>127</tp1:hr>
</tp1:TrackPointExtension>
</extensions>
</trkpt>
<trkpt lat="50.7023016" lon="7.0189157">
<ele>116.4567871</ele>
<time>2011-08-15T12:19:23Z</time>
<extensions>
<tp1:TrackPointExtension>
<tp1:hr>129</tp1:hr>
</tp1:TrackPointExtension>
</extensions>
</trkpt>
<trkpt lat="50.7019527" lon="7.0192743">
<ele>116.4567871</ele>
<time>2011-08-15T12:19:30Z</time>
<extensions>
<tp1:TrackPointExtension>
<tp1:hr>130</tp1:hr>
</tp1:TrackPointExtension>
</extensions>
</trkpt>
<trkpt lat="50.7015032" lon="7.0197062">
<ele>116.4567871</ele>
<time>2011-08-15T12:19:39Z</time>
<extensions>
<tp1:TrackPointExtension>
<tp1:hr>133</tp1:hr>
</tp1:TrackPointExtension>
</extensions>
</trkpt>
<trkpt lat="50.7014540" lon="7.0197530">
<ele>116.4567871</ele>
<time>2011-08-15T12:19:40Z</time>
<extensions>
<tp1:TrackPointExtension>
<tp1:hr>133</tp1:hr>
</tp1:TrackPointExtension>
</extensions>
</trkpt>
<trkpt lat="50.7011119" lon="7.0202408">
<ele>116.9375000</ele>
<time>2011-08-15T12:19:48Z</time>
<extensions>
<tp1:TrackPointExtension>
<tp1:hr>134</tp1:hr>
</tp1:TrackPointExtension>
</extensions>
</trkpt>
<trkpt lat="50.7006344" lon="7.0209917">
<ele>116.9375000</ele>
<time>2011-08-15T12:20:00Z</time>
<extensions>
<tp1:TrackPointExtension>
<tp1:hr>138</tp1:hr>
</tp1:TrackPointExtension>
</extensions>
</trkpt>
<trkpt lat="50.7002169" lon="7.0216737">
<ele>117.4182129</ele>
<time>2011-08-15T12:20:11Z</time>
<extensions>
<tp1:TrackPointExtension>
<tp1:hr>139</tp1:hr>
</tp1:TrackPointExtension>
</extensions>
</trkpt>
<trkpt lat="50.6997812" lon="7.0223802">
<ele>117.4182129</ele>
<time>2011-08-15T12:20:22Z</time>
<extensions>
<tp1:TrackPointExtension>
<tp1:hr>139</tp1:hr>
</tp1:TrackPointExtension>
</extensions>
</trkpt>
<trkpt lat="50.6993301" lon="7.0230901">
<ele>117.8988037</ele>
<time>2011-08-15T12:20:33Z</time>
<extensions>
<tp1:TrackPointExtension>
<tp1:hr>138</tp1:hr>
</tp1:TrackPointExtension>
</extensions>
</trkpt>
<trkpt lat="50.6990249" lon="7.0234671">
<ele>118.3793945</ele>
<time>2011-08-15T12:20:40Z</time>
<extensions>
<tp1:TrackPointExtension>
<tp1:hr>137</tp1:hr>
</tp1:TrackPointExtension>
</extensions>
</trkpt>
<trkpt lat="50.6988807" lon="7.0236029">
<ele>118.3793945</ele>
<time>2011-08-15T12:20:43Z</time>
<extensions>
<tp1:TrackPointExtension>
<tp1:hr>136</tp1:hr>
</tp1:TrackPointExtension>
</extensions>
</trkpt>
<trkpt lat="50.6986571" lon="7.0236615">
<ele>118.8601074</ele>
<time>2011-08-15T12:20:47Z</time>
<extensions>
<tp1:TrackPointExtension>
<tp1:hr>137</tp1:hr>
</tp1:TrackPointExtension>
</extensions>
</trkpt>
<trkpt lat="50.6980867" lon="7.0237339">
<ele>120.7828369</ele>
<time>2011-08-15T12:20:57Z</time>
<extensions>
<tp1:TrackPointExtension>
<tp1:hr>140</tp1:hr>
</tp1:TrackPointExtension>
</extensions>
</trkpt>
<trkpt lat="50.6977076" lon="7.0238720">
<ele>120.7828369</ele>
<time>2011-08-15T12:21:04Z</time>
<extensions>
<tp1:TrackPointExtension>
<tp1:hr>141</tp1:hr>
</tp1:TrackPointExtension>
</extensions>
</trkpt>
<trkpt lat="50.6973361" lon="7.0241231">
<ele>122.2247314</ele>
<time>2011-08-15T12:21:11Z</time>
<extensions>
<tp1:TrackPointExtension>
<tp1:hr>142</tp1:hr>
</tp1:TrackPointExtension>
</extensions>
</trkpt>
<trkpt lat="50.6972311" lon="7.0241872">
<ele>123.1861572</ele>
<time>2011-08-15T12:21:13Z</time>
<extensions>
<tp1:TrackPointExtension>
<tp1:hr>142</tp1:hr>
</tp1:TrackPointExtension>
</extensions>
</trkpt>
<trkpt lat="50.6967418" lon="7.0243706">
<ele>123.6667480</ele>
<time>2011-08-15T12:21:22Z</time>
<extensions>
<tp1:TrackPointExtension>
<tp1:hr>142</tp1:hr>
</tp1:TrackPointExtension>
</extensions>
</trkpt>
<trkpt lat="50.6962411" lon="7.0245395">
<ele>124.1473389</ele>
<time>2011-08-15T12:21:31Z</time>
<extensions>
<tp1:TrackPointExtension>
<tp1:hr>142</tp1:hr>
</tp1:TrackPointExtension>
</extensions>
</trkpt>
<trkpt lat="50.6959619" lon="7.0246346">
<ele>126.5506592</ele>
<time>2011-08-15T12:21:36Z</time>
<extensions>
<tp1:TrackPointExtension>
<tp1:hr>143</tp1:hr>
</tp1:TrackPointExtension>
</extensions>
</trkpt>
<trkpt lat="50.6955703" lon="7.0248570">
<ele>133.2799072</ele>
<time>2011-08-15T12:21:43Z</time>
<extensions>
<tp1:TrackPointExtension>
<tp1:hr>143</tp1:hr>
</tp1:TrackPointExtension>
</extensions>
</trkpt>
<trkpt lat="50.6951868" lon="7.0250410">
<ele>137.6058350</ele>
<time>2011-08-15T12:21:50Z</time>
<extensions>
<tp1:TrackPointExtension>
<tp1:hr>144</tp1:hr>
</tp1:TrackPointExtension>
</extensions>
</trkpt>
<trkpt lat="50.6948827" lon="7.0250508">
<ele>136.6446533</ele>
<time>2011-08-15T12:21:56Z</time>
<extensions>
<tp1:TrackPointExtension>
<tp1:hr>145</tp1:hr>
</tp1:TrackPointExtension>
</extensions>
</trkpt>
<trkpt lat="50.6945279" lon="7.0249047">
<ele>136.6446533</ele>
<time>2011-08-15T12:22:03Z</time>
<extensions>
<tp1:TrackPointExtension>
<tp1:hr>146</tp1:hr>
</tp1:TrackPointExtension>
</extensions>
</trkpt>
<trkpt lat="50.6941235" lon="7.0246325">
<ele>134.7219238</ele>
<time>2011-08-15T12:22:11Z</time>
<extensions>
<tp1:TrackPointExtension>
<tp1:hr>147</tp1:hr>
</tp1:TrackPointExtension>
</extensions>
</trkpt>
<trkpt lat="50.6937657" lon="7.0243961">
<ele>133.7604980</ele>
<time>2011-08-15T12:22:18Z</time>
<extensions>
<tp1:TrackPointExtension>
<tp1:hr>148</tp1:hr>
</tp1:TrackPointExtension>
</extensions>
</trkpt>
<trkpt lat="50.6933528" lon="7.0241609">
<ele>133.7604980</ele>
<time>2011-08-15T12:22:26Z</time>
<extensions>
<tp1:TrackPointExtension>
<tp1:hr>149</tp1:hr>
</tp1:TrackPointExtension>
</extensions>
</trkpt>
<trkpt lat="50.6929688" lon="7.0239669">
<ele>135.6831055</ele>
<time>2011-08-15T12:22:33Z</time>
<extensions>
<tp1:TrackPointExtension>
<tp1:hr>149</tp1:hr>
</tp1:TrackPointExtension>
</extensions>
</trkpt>
<trkpt lat="50.6924965" lon="7.0236562">
<ele>137.1252441</ele>
<time>2011-08-15T12:22:42Z</time>
<extensions>
<tp1:TrackPointExtension>
<tp1:hr>151</tp1:hr>
</tp1:TrackPointExtension>
</extensions>
</trkpt>
<trkpt lat="50.6920297" lon="7.0232367">
<ele>137.1252441</ele>
<time>2011-08-15T12:22:52Z</time>
<extensions>
<tp1:TrackPointExtension>
<tp1:hr>151</tp1:hr>
</tp1:TrackPointExtension>
</extensions>
</trkpt>
<trkpt lat="50.6918910" lon="7.0231093">
<ele>138.0865479</ele>
<time>2011-08-15T12:22:55Z</time>
<extensions>
<tp1:TrackPointExtension>
<tp1:hr>152</tp1:hr>
</tp1:TrackPointExtension>
</extensions>
</trkpt>
<trkpt lat="50.6914994" lon="7.0229589">
<ele>140.4898682</ele>
<time>2011-08-15T12:23:02Z</time>
<extensions>
<tp1:TrackPointExtension>
<tp1:hr>153</tp1:hr>
</tp1:TrackPointExtension>
</extensions>
</trkpt>
<trkpt lat="50.6911062" lon="7.0228091">
<ele>140.9704590</ele>
<time>2011-08-15T12:23:09Z</time>
<extensions>
<tp1:TrackPointExtension>
<tp1:hr>154</tp1:hr>
</tp1:TrackPointExtension>
</extensions>
</trkpt>
<trkpt lat="50.6906345" lon="7.0227606">
<ele>142.8930664</ele>
<time>2011-08-15T12:23:17Z</time>
<extensions>
<tp1:TrackPointExtension>
<tp1:hr>154</tp1:hr>
</tp1:TrackPointExtension>
</extensions>
</trkpt>
<trkpt lat="50.6901167" lon="7.0228869">
<ele>149.1416016</ele>
<time>2011-08-15T12:23:25Z</time>
<extensions>
<tp1:TrackPointExtension>
<tp1:hr>154</tp1:hr>
</tp1:TrackPointExtension>
</extensions>
</trkpt>
<trkpt lat="50.6897376" lon="7.0229393">
<ele>149.1416016</ele>
<time>2011-08-15T12:23:32Z</time>
<extensions>
<tp1:TrackPointExtension>
<tp1:hr>153</tp1:hr>
</tp1:TrackPointExtension>
</extensions>
</trkpt>
<trkpt lat="50.6893602" lon="7.0229474">
<ele>147.2189941</ele>
<time>2011-08-15T12:23:39Z</time>
<extensions>
<tp1:TrackPointExtension>
<tp1:hr>152</tp1:hr>
</tp1:TrackPointExtension>
</extensions>
</trkpt>
<trkpt lat="50.6889274" lon="7.0228289">
<ele>143.8543701</ele>
<time>2011-08-15T12:23:47Z</time>
<extensions>
<tp1:TrackPointExtension>
<tp1:hr>152</tp1:hr>
</tp1:TrackPointExtension>
</extensions>
</trkpt>
<trkpt lat="50.6885129" lon="7.0225960">
<ele>142.8930664</ele>
<time>2011-08-15T12:23:55Z</time>
<extensions>
<tp1:TrackPointExtension>
<tp1:hr>152</tp1:hr>
</tp1:TrackPointExtension>
</extensions>
</trkpt>
<trkpt lat="50.6878806" lon="7.0222145">
<ele>143.3736572</ele>
<time>2011-08-15T12:24:07Z</time>
<extensions>
<tp1:TrackPointExtension>
<tp1:hr>151</tp1:hr>
</tp1:TrackPointExtension>
</extensions>
</trkpt>
<trkpt lat="50.6874490" lon="7.0220188">
<ele>143.8543701</ele>
<time>2011-08-15T12:24:15Z</time>
<extensions>
<tp1:TrackPointExtension>
<tp1:hr>150</tp1:hr>
</tp1:TrackPointExtension>
</extensions>
</trkpt>
<trkpt lat="50.6869505" lon="7.0217829">
<ele>144.3352051</ele>
<time>2011-08-15T12:24:24Z</time>
<extensions>
<tp1:TrackPointExtension>
<tp1:hr>146</tp1:hr>
</tp1:TrackPointExtension>
</extensions>
</trkpt>
<trkpt lat="50.6864196" lon="7.0214332">
<ele>144.3352051</ele>
<time>2011-08-15T12:24:34Z</time>
<extensions>
<tp1:TrackPointExtension>
<tp1:hr>141</tp1:hr>
</tp1:TrackPointExtension>
</extensions>
</trkpt>
<trkpt lat="50.6858533" lon="7.0210183">
<ele>145.2963867</ele>
<time>2011-08-15T12:24:45Z</time>
<extensions>
<tp1:TrackPointExtension>
<tp1:hr>142</tp1:hr>
</tp1:TrackPointExtension>
</extensions>
</trkpt>
<trkpt lat="50.6851593" lon="7.0205927">
<ele>145.7770996</ele>
<time>2011-08-15T12:24:58Z</time>
<extensions>
<tp1:TrackPointExtension>
<tp1:hr>142</tp1:hr>
</tp1:TrackPointExtension>
</extensions>
</trkpt>
<trkpt lat="50.6846101" lon="7.0202440">
<ele>144.8157959</ele>
<time>2011-08-15T12:25:08Z</time>
<extensions>
<tp1:TrackPointExtension>
<tp1:hr>142</tp1:hr>
</tp1:TrackPointExtension>
</extensions>
</trkpt>
<trkpt lat="50.6840227" lon="7.0198229">
<ele>145.2963867</ele>
<time>2011-08-15T12:25:19Z</time>
<extensions>
<tp1:TrackPointExtension>
<tp1:hr>142</tp1:hr>
</tp1:TrackPointExtension>
</extensions>
</trkpt>
<trkpt lat="50.6835184" lon="7.0193568">
<ele>146.2578125</ele>
<time>2011-08-15T12:25:29Z</time>
<extensions>
<tp1:TrackPointExtension>
<tp1:hr>144</tp1:hr>
</tp1:TrackPointExtension>
</extensions>
</trkpt>
<trkpt lat="50.6830933" lon="7.0190504">
<ele>147.2189941</ele>
<time>2011-08-15T12:25:37Z</time>
<extensions>
<tp1:TrackPointExtension>
<tp1:hr>146</tp1:hr>
</tp1:TrackPointExtension>
</extensions>
</trkpt>
<trkpt lat="50.6827118" lon="7.0188968">
<ele>146.2578125</ele>
<time>2011-08-15T12:25:44Z</time>
<extensions>
<tp1:TrackPointExtension>
<tp1:hr>141</tp1:hr>
</tp1:TrackPointExtension>
</extensions>
</trkpt>
<trkpt lat="50.6824723" lon="7.0188277">
<ele>146.2578125</ele>
<time>2011-08-15T12:25:49Z</time>
<extensions>
<tp1:TrackPointExtension>
<tp1:hr>138</tp1:hr>
</tp1:TrackPointExtension>
</extensions>
</trkpt>
<trkpt lat="50.6824175" lon="7.0188210">
<ele>146.2578125</ele>
<time>2011-08-15T12:25:51Z</time>
<extensions>
<tp1:TrackPointExtension>
<tp1:hr>135</tp1:hr>
</tp1:TrackPointExtension>
</extensions>
</trkpt>
<trkpt lat="50.6823651" lon="7.0188183">
<ele>146.7384033</ele>
<time>2011-08-15T12:25:54Z</time>
<extensions>
<tp1:TrackPointExtension>
<tp1:hr>135</tp1:hr>
</tp1:TrackPointExtension>
</extensions>
</trkpt>
<trkpt lat="50.6823542" lon="7.0188264">
<ele>148.1804199</ele>
<time>2011-08-15T12:26:00Z</time>
<extensions>
<tp1:TrackPointExtension>
<tp1:hr>131</tp1:hr>
</tp1:TrackPointExtension>
</extensions>
</trkpt>
<trkpt lat="50.6824049" lon="7.0188065">
<ele>145.2963867</ele>
<time>2011-08-15T12:26:06Z</time>
<extensions>
<tp1:TrackPointExtension>
<tp1:hr>125</tp1:hr>
</tp1:TrackPointExtension>
</extensions>
</trkpt>
<trkpt lat="50.6823790" lon="7.0189403">
<ele>134.7219238</ele>
<time>2011-08-15T12:26:16Z</time>
<extensions>
<tp1:TrackPointExtension>
<tp1:hr>119</tp1:hr>
</tp1:TrackPointExtension>
</extensions>
</trkpt>
<trkpt lat="50.6823212" lon="7.0190637">
<ele>121.2635498</ele>
<time>2011-08-15T12:26:24Z</time>
<extensions>
<tp1:TrackPointExtension>
<tp1:hr>115</tp1:hr>
</tp1:TrackPointExtension>
</extensions>
</trkpt>
<trkpt lat="50.6822015" lon="7.0189751">
<ele>129.9152832</ele>
<time>2011-08-15T12:26:29Z</time>
<extensions>
<tp1:TrackPointExtension>
<tp1:hr>116</tp1:hr>
</tp1:TrackPointExtension>
</extensions>
</trkpt>
<trkpt lat="50.6819916" lon="7.0187885">
<ele>138.5672607</ele>
<time>2011-08-15T12:26:33Z</time>
<extensions>
<tp1:TrackPointExtension>
<tp1:hr>121</tp1:hr>
</tp1:TrackPointExtension>
</extensions>
</trkpt>
<trkpt lat="50.6819446" lon="7.0187225">
<ele>138.5672607</ele>
<time>2011-08-15T12:26:34Z</time>
<extensions>
<tp1:TrackPointExtension>
<tp1:hr>121</tp1:hr>
</tp1:TrackPointExtension>
</extensions>
</trkpt>
<trkpt lat="50.6817964" lon="7.0185053">
<ele>141.4510498</ele>
<time>2011-08-15T12:26:37Z</time>
<extensions>
<tp1:TrackPointExtension>
<tp1:hr>127</tp1:hr>
</tp1:TrackPointExtension>
</extensions>
</trkpt>
<trkpt lat="50.6817607" lon="7.0184141">
<ele>140.9704590</ele>
<time>2011-08-15T12:26:38Z</time>
<extensions>
<tp1:TrackPointExtension>
<tp1:hr>127</tp1:hr>
</tp1:TrackPointExtension>
</extensions>
</trkpt>
<trkpt lat="50.6815596" lon="7.0178866">
<ele>138.0865479</ele>
<time>2011-08-15T12:26:44Z</time>
<extensions>
<tp1:TrackPointExtension>
<tp1:hr>130</tp1:hr>
</tp1:TrackPointExtension>
</extensions>
</trkpt>
<trkpt lat="50.6812970" lon="7.0176085">
<ele>140.0091553</ele>
<time>2011-08-15T12:26:49Z</time>
<extensions>
<tp1:TrackPointExtension>
<tp1:hr>133</tp1:hr>
</tp1:TrackPointExtension>
</extensions>
</trkpt>
<trkpt lat="50.6809883" lon="7.0175669">
<ele>142.4124756</ele>
<time>2011-08-15T12:26:54Z</time>
<extensions>
<tp1:TrackPointExtension>
<tp1:hr>136</tp1:hr>
</tp1:TrackPointExtension>
</extensions>
</trkpt>
<trkpt lat="50.6805594" lon="7.0176371">
<ele>147.6997070</ele>
<time>2011-08-15T12:27:01Z</time>
<extensions>
<tp1:TrackPointExtension>
<tp1:hr>140</tp1:hr>
</tp1:TrackPointExtension>
</extensions>
</trkpt>
<trkpt lat="50.6803288" lon="7.0175903">
<ele>148.6610107</ele>
<time>2011-08-15T12:27:05Z</time>
<extensions>
<tp1:TrackPointExtension>
<tp1:hr>145</tp1:hr>
</tp1:TrackPointExtension>
</extensions>
</trkpt>
<trkpt lat="50.6800057" lon="7.0175365">
<ele>152.0257568</ele>
<time>2011-08-15T12:27:10Z</time>
<extensions>
<tp1:TrackPointExtension>
<tp1:hr>147</tp1:hr>
</tp1:TrackPointExtension>
</extensions>
</trkpt>
<trkpt lat="50.6798903" lon="7.0175184">
<ele>152.5063477</ele>
<time>2011-08-15T12:27:12Z</time>
<extensions>
<tp1:TrackPointExtension>
<tp1:hr>149</tp1:hr>
</tp1:TrackPointExtension>
</extensions>
</trkpt>
<trkpt lat="50.6795756" lon="7.0175204">
<ele>153.4676514</ele>
<time>2011-08-15T12:27:17Z</time>
<extensions>
<tp1:TrackPointExtension>
<tp1:hr>152</tp1:hr>
</tp1:TrackPointExtension>
</extensions>
</trkpt>
<trkpt lat="50.6795300" lon="7.0174894">
<ele>154.4289551</ele>
<time>2011-08-15T12:27:18Z</time>
<extensions>
<tp1:TrackPointExtension>
<tp1:hr>153</tp1:hr>
</tp1:TrackPointExtension>
</extensions>
</trkpt>
<trkpt lat="50.6793191" lon="7.0172249">
<ele>156.3515625</ele>
<time>2011-08-15T12:27:22Z</time>
<extensions>
<tp1:TrackPointExtension>
<tp1:hr>155</tp1:hr>
</tp1:TrackPointExtension>
</extensions>
</trkpt>
<trkpt lat="50.6791420" lon="7.0170573">
<ele>156.3515625</ele>
<time>2011-08-15T12:27:26Z</time>
<extensions>
<tp1:TrackPointExtension>
<tp1:hr>159</tp1:hr>
</tp1:TrackPointExtension>
</extensions>
</trkpt>
<trkpt lat="50.6790365" lon="7.0169863">
<ele>155.3902588</ele>
<time>2011-08-15T12:27:28Z</time>
<extensions>
<tp1:TrackPointExtension>
<tp1:hr>159</tp1:hr>
</tp1:TrackPointExtension>
</extensions>
</trkpt>
<trkpt lat="50.6785113" lon="7.0168903">
<ele>159.7161865</ele>
<time>2011-08-15T12:27:37Z</time>
<extensions>
<tp1:TrackPointExtension>
<tp1:hr>161</tp1:hr>
</tp1:TrackPointExtension>
</extensions>
</trkpt>
<trkpt lat="50.6780446" lon="7.0168269">
<ele>158.2741699</ele>
<time>2011-08-15T12:27:45Z</time>
<extensions>
<tp1:TrackPointExtension>
<tp1:hr>162</tp1:hr>
</tp1:TrackPointExtension>
</extensions>
</trkpt>
<trkpt lat="50.6774693" lon="7.0167533">
<ele>157.7935791</ele>
<time>2011-08-15T12:27:55Z</time>
<extensions>
<tp1:TrackPointExtension>
<tp1:hr>161</tp1:hr>
</tp1:TrackPointExtension>
</extensions>
</trkpt>
<trkpt lat="50.6768851" lon="7.0166573">
<ele>157.3128662</ele>
<time>2011-08-15T12:28:05Z</time>
<extensions>
<tp1:TrackPointExtension>
<tp1:hr>159</tp1:hr>
</tp1:TrackPointExtension>
</extensions>
</trkpt>
<trkpt lat="50.6764537" lon="7.0165156">
<ele>157.3128662</ele>
<time>2011-08-15T12:28:12Z</time>
<extensions>
<tp1:TrackPointExtension>
<tp1:hr>157</tp1:hr>
</tp1:TrackPointExtension>
</extensions>
</trkpt>
<trkpt lat="50.6759148" lon="7.0163568">
<ele>156.3515625</ele>
<time>2011-08-15T12:28:20Z</time>
<extensions>
<tp1:TrackPointExtension>
<tp1:hr>153</tp1:hr>
</tp1:TrackPointExtension>
</extensions>
</trkpt>
<trkpt lat="50.6755467" lon="7.0163974">
<ele>155.8709717</ele>
<time>2011-08-15T12:28:25Z</time>
<extensions>
<tp1:TrackPointExtension>
<tp1:hr>148</tp1:hr>
</tp1:TrackPointExtension>
</extensions>
</trkpt>
<trkpt lat="50.6751807" lon="7.0164798">
<ele>156.8321533</ele>
<time>2011-08-15T12:28:30Z</time>
<extensions>
<tp1:TrackPointExtension>
<tp1:hr>143</tp1:hr>
</tp1:TrackPointExtension>
</extensions>
</trkpt>
<trkpt lat="50.6747024" lon="7.0166103">
<ele>158.2741699</ele>
<time>2011-08-15T12:28:37Z</time>
<extensions>
<tp1:TrackPointExtension>
<tp1:hr>141</tp1:hr>
</tp1:TrackPointExtension>
</extensions>
</trkpt>
<trkpt lat="50.6741863" lon="7.0166704">
<ele>159.2354736</ele>
<time>2011-08-15T12:28:45Z</time>
<extensions>
<tp1:TrackPointExtension>
<tp1:hr>140</tp1:hr>
</tp1:TrackPointExtension>
</extensions>
</trkpt>
<trkpt lat="50.6736718" lon="7.0166087">
<ele>160.1968994</ele>
<time>2011-08-15T12:28:53Z</time>
<extensions>
<tp1:TrackPointExtension>
<tp1:hr>140</tp1:hr>
</tp1:TrackPointExtension>
</extensions>
</trkpt>
<trkpt lat="50.6729669" lon="7.0163669">
<ele>160.6774902</ele>
<time>2011-08-15T12:29:04Z</time>
<extensions>
<tp1:TrackPointExtension>
<tp1:hr>143</tp1:hr>
</tp1:TrackPointExtension>
</extensions>
</trkpt>
<trkpt lat="50.6721480" lon="7.0160263">
<ele>160.6774902</ele>
<time>2011-08-15T12:29:17Z</time>
<extensions>
<tp1:TrackPointExtension>
<tp1:hr>143</tp1:hr>
</tp1:TrackPointExtension>
</extensions>
</trkpt>
<trkpt lat="50.6715260" lon="7.0157259">
<ele>160.1968994</ele>
<time>2011-08-15T12:29:27Z</time>
<extensions>
<tp1:TrackPointExtension>
<tp1:hr>144</tp1:hr>
</tp1:TrackPointExtension>
</extensions>
</trkpt>
<trkpt lat="50.6707203" lon="7.0153482">
<ele>161.1582031</ele>
<time>2011-08-15T12:29:40Z</time>
<extensions>
<tp1:TrackPointExtension>
<tp1:hr>142</tp1:hr>
</tp1:TrackPointExtension>
</extensions>
</trkpt>
<trkpt lat="50.6699656" lon="7.0149982">
<ele>160.6774902</ele>
<time>2011-08-15T12:29:52Z</time>
<extensions>
<tp1:TrackPointExtension>
<tp1:hr>140</tp1:hr>
</tp1:TrackPointExtension>
</extensions>
</trkpt>
<trkpt lat="50.6694527" lon="7.0147625">
<ele>160.1968994</ele>
<time>2011-08-15T12:30:00Z</time>
<extensions>
<tp1:TrackPointExtension>
<tp1:hr>140</tp1:hr>
</tp1:TrackPointExtension>
</extensions>
</trkpt>
<trkpt lat="50.6688730" lon="7.0145168">
<ele>158.7547607</ele>
<time>2011-08-15T12:30:09Z</time>
<extensions>
<tp1:TrackPointExtension>
<tp1:hr>141</tp1:hr>
</tp1:TrackPointExtension>
</extensions>
</trkpt>
<trkpt lat="50.6684752" lon="7.0142894">
<ele>158.7547607</ele>
<time>2011-08-15T12:30:15Z</time>
<extensions>
<tp1:TrackPointExtension>
<tp1:hr>141</tp1:hr>
</tp1:TrackPointExtension>
</extensions>
</trkpt>
<trkpt lat="50.6679391" lon="7.0137938">
<ele>160.6774902</ele>
<time>2011-08-15T12:30:24Z</time>
<extensions>
<tp1:TrackPointExtension>
<tp1:hr>139</tp1:hr>
</tp1:TrackPointExtension>
</extensions>
</trkpt>
<trkpt lat="50.6674367" lon="7.0132680">
<ele>161.6389160</ele>
<time>2011-08-15T12:30:33Z</time>
<extensions>
<tp1:TrackPointExtension>
<tp1:hr>138</tp1:hr>
</tp1:TrackPointExtension>
</extensions>
</trkpt>
<trkpt lat="50.6668216" lon="7.0126071">
<ele>165.9647217</ele>
<time>2011-08-15T12:30:44Z</time>
<extensions>
<tp1:TrackPointExtension>
<tp1:hr>139</tp1:hr>
</tp1:TrackPointExtension>
</extensions>
</trkpt>
<trkpt lat="50.6661442" lon="7.0118772">
<ele>165.9647217</ele>
<time>2011-08-15T12:30:56Z</time>
<extensions>
<tp1:TrackPointExtension>
<tp1:hr>140</tp1:hr>
</tp1:TrackPointExtension>
</extensions>
</trkpt>
<trkpt lat="50.6655009" lon="7.0111010">
<ele>157.7935791</ele>
<time>2011-08-15T12:31:08Z</time>
<extensions>
<tp1:TrackPointExtension>
<tp1:hr>139</tp1:hr>
</tp1:TrackPointExtension>
</extensions>
</trkpt>
<trkpt lat="50.6648969" lon="7.0104356">
<ele>154.9095459</ele>
<time>2011-08-15T12:31:19Z</time>
<extensions>
<tp1:TrackPointExtension>
<tp1:hr>141</tp1:hr>
</tp1:TrackPointExtension>
</extensions>
</trkpt>
<trkpt lat="50.6642144" lon="7.0097682">
<ele>158.7547607</ele>
<time>2011-08-15T12:31:31Z</time>
<extensions>
<tp1:TrackPointExtension>
<tp1:hr>142</tp1:hr>
</tp1:TrackPointExtension>
</extensions>
</trkpt>
<trkpt lat="50.6634330" lon="7.0089732">
<ele>160.6774902</ele>
<time>2011-08-15T12:31:45Z</time>
<extensions>
<tp1:TrackPointExtension>
<tp1:hr>144</tp1:hr>
</tp1:TrackPointExtension>
</extensions>
</trkpt>
<trkpt lat="50.6628148" lon="7.0083396">
<ele>161.6389160</ele>
<time>2011-08-15T12:31:56Z</time>
<extensions>
<tp1:TrackPointExtension>
<tp1:hr>146</tp1:hr>
</tp1:TrackPointExtension>
</extensions>
</trkpt>
<trkpt lat="50.6621322" lon="7.0076259">
<ele>161.6389160</ele>
<time>2011-08-15T12:32:08Z</time>
<extensions>
<tp1:TrackPointExtension>
<tp1:hr>146</tp1:hr>
</tp1:TrackPointExtension>
</extensions>
</trkpt>
<trkpt lat="50.6614392" lon="7.0069048">
<ele>162.1195068</ele>
<time>2011-08-15T12:32:20Z</time>
<extensions>
<tp1:TrackPointExtension>
<tp1:hr>147</tp1:hr>
</tp1:TrackPointExtension>
</extensions>
</trkpt>
<trkpt lat="50.6607543" lon="7.0061952">
<ele>163.5615234</ele>
<time>2011-08-15T12:32:32Z</time>
<extensions>
<tp1:TrackPointExtension>
<tp1:hr>148</tp1:hr>
</tp1:TrackPointExtension>
</extensions>
</trkpt>
<trkpt lat="50.6599602" lon="7.0053803">
<ele>164.0421143</ele>
<time>2011-08-15T12:32:46Z</time>
<extensions>
<tp1:TrackPointExtension>
<tp1:hr>148</tp1:hr>
</tp1:TrackPointExtension>
</extensions>
</trkpt>
<trkpt lat="50.6590589" lon="7.0044593">
<ele>164.0421143</ele>
<time>2011-08-15T12:33:02Z</time>
<extensions>
<tp1:TrackPointExtension>
<tp1:hr>149</tp1:hr>
</tp1:TrackPointExtension>
</extensions>
</trkpt>
<trkpt lat="50.6582595" lon="7.0036444">
<ele>164.0421143</ele>
<time>2011-08-15T12:33:16Z</time>
<extensions>
<tp1:TrackPointExtension>
<tp1:hr>149</tp1:hr>
</tp1:TrackPointExtension>
</extensions>
</trkpt>
<trkpt lat="50.6575827" lon="7.0029545">
<ele>164.5227051</ele>
<time>2011-08-15T12:33:28Z</time>
<extensions>
<tp1:TrackPointExtension>
<tp1:hr>150</tp1:hr>
</tp1:TrackPointExtension>
</extensions>
</trkpt>
<trkpt lat="50.6569154" lon="7.0022707">
<ele>164.0421143</ele>
<time>2011-08-15T12:33:40Z</time>
<extensions>
<tp1:TrackPointExtension>
<tp1:hr>148</tp1:hr>
</tp1:TrackPointExtension>
</extensions>
</trkpt>
<trkpt lat="50.6566619" lon="7.0019998">
<ele>163.5615234</ele>
<time>2011-08-15T12:33:45Z</time>
<extensions>
<tp1:TrackPointExtension>
<tp1:hr>146</tp1:hr>
</tp1:TrackPointExtension>
</extensions>
</trkpt>
<trkpt lat="50.6565227" lon="7.0016750">
<ele>163.5615234</ele>
<time>2011-08-15T12:33:49Z</time>
<extensions>
<tp1:TrackPointExtension>
<tp1:hr>146</tp1:hr>
</tp1:TrackPointExtension>
</extensions>
</trkpt>
<trkpt lat="50.6564071" lon="7.0016069">
<ele>163.5615234</ele>
<time>2011-08-15T12:33:51Z</time>
<extensions>
<tp1:TrackPointExtension>
<tp1:hr>146</tp1:hr>
</tp1:TrackPointExtension>
</extensions>
</trkpt>
<trkpt lat="50.6560363" lon="7.0013656">
<ele>163.5615234</ele>
<time>2011-08-15T12:33:57Z</time>
<extensions>
<tp1:TrackPointExtension>
<tp1:hr>145</tp1:hr>
</tp1:TrackPointExtension>
</extensions>
</trkpt>
<trkpt lat="50.6553183" lon="7.0005959">
<ele>164.5227051</ele>
<time>2011-08-15T12:34:10Z</time>
<extensions>
<tp1:TrackPointExtension>
<tp1:hr>144</tp1:hr>
</tp1:TrackPointExtension>
</extensions>
</trkpt>
<trkpt lat="50.6547739" lon="6.9999942">
<ele>165.4841309</ele>
<time>2011-08-15T12:34:20Z</time>
<extensions>
<tp1:TrackPointExtension>
<tp1:hr>143</tp1:hr>
</tp1:TrackPointExtension>
</extensions>
</trkpt>
<trkpt lat="50.6541622" lon="6.9993246">
<ele>165.9647217</ele>
<time>2011-08-15T12:34:31Z</time>
<extensions>
<tp1:TrackPointExtension>
<tp1:hr>143</tp1:hr>
</tp1:TrackPointExtension>
</extensions>
</trkpt>
<trkpt lat="50.6535334" lon="6.9986470">
<ele>165.9647217</ele>
<time>2011-08-15T12:34:42Z</time>
<extensions>
<tp1:TrackPointExtension>
<tp1:hr>144</tp1:hr>
</tp1:TrackPointExtension>
</extensions>
</trkpt>
<trkpt lat="50.6528512" lon="6.9979092">
<ele>165.9647217</ele>
<time>2011-08-15T12:34:54Z</time>
<extensions>
<tp1:TrackPointExtension>
<tp1:hr>142</tp1:hr>
</tp1:TrackPointExtension>
</extensions>
</trkpt>
<trkpt lat="50.6522596" lon="6.9972896">
<ele>165.0034180</ele>
<time>2011-08-15T12:35:04Z</time>
<extensions>
<tp1:TrackPointExtension>
<tp1:hr>138</tp1:hr>
</tp1:TrackPointExtension>
</extensions>
</trkpt>
<trkpt lat="50.6518040" lon="6.9968388">
<ele>164.0421143</ele>
<time>2011-08-15T12:35:11Z</time>
<extensions>
<tp1:TrackPointExtension>
<tp1:hr>133</tp1:hr>
</tp1:TrackPointExtension>
</extensions>
</trkpt>
<trkpt lat="50.6513647" lon="6.9964504">
<ele>163.0808105</ele>
<time>2011-08-15T12:35:17Z</time>
<extensions>
<tp1:TrackPointExtension>
<tp1:hr>128</tp1:hr>
</tp1:TrackPointExtension>
</extensions>
</trkpt>
<trkpt lat="50.6509045" lon="6.9959908">
<ele>161.1582031</ele>
<time>2011-08-15T12:35:23Z</time>
<extensions>
<tp1:TrackPointExtension>
<tp1:hr>123</tp1:hr>
</tp1:TrackPointExtension>
</extensions>
</trkpt>
<trkpt lat="50.6502583" lon="6.9953320">
<ele>160.1968994</ele>
<time>2011-08-15T12:35:31Z</time>
<extensions>
<tp1:TrackPointExtension>
<tp1:hr>118</tp1:hr>
</tp1:TrackPointExtension>
</extensions>
</trkpt>
<trkpt lat="50.6497073" lon="6.9947600">
<ele>160.6774902</ele>
<time>2011-08-15T12:35:38Z</time>
<extensions>
<tp1:TrackPointExtension>
<tp1:hr>113</tp1:hr>
</tp1:TrackPointExtension>
</extensions>
</trkpt>
<trkpt lat="50.6489779" lon="6.9939951">
<ele>154.4289551</ele>
<time>2011-08-15T12:35:48Z</time>
<extensions>
<tp1:TrackPointExtension>
<tp1:hr>112</tp1:hr>
</tp1:TrackPointExtension>
</extensions>
</trkpt>
<trkpt lat="50.6484823" lon="6.9934841">
<ele>150.5836182</ele>
<time>2011-08-15T12:35:55Z</time>
<extensions>
<tp1:TrackPointExtension>
<tp1:hr>119</tp1:hr>
</tp1:TrackPointExtension>
</extensions>
</trkpt>
<trkpt lat="50.6477115" lon="6.9926926">
<ele>146.7384033</ele>
<time>2011-08-15T12:36:06Z</time>
<extensions>
<tp1:TrackPointExtension>
<tp1:hr>122</tp1:hr>
</tp1:TrackPointExtension>
</extensions>
</trkpt>
<trkpt lat="50.6472441" lon="6.9922141">
<ele>147.6997070</ele>
<time>2011-08-15T12:36:13Z</time>
<extensions>
<tp1:TrackPointExtension>
<tp1:hr>126</tp1:hr>
</tp1:TrackPointExtension>
</extensions>
</trkpt>
<trkpt lat="50.6466031" lon="6.9914954">
<ele>148.6610107</ele>
<time>2011-08-15T12:36:23Z</time>
<extensions>
<tp1:TrackPointExtension>
<tp1:hr>129</tp1:hr>
</tp1:TrackPointExtension>
</extensions>
</trkpt>
<trkpt lat="50.6464811" lon="6.9913583">
<ele>148.1804199</ele>
<time>2011-08-15T12:36:25Z</time>
<extensions>
<tp1:TrackPointExtension>
<tp1:hr>128</tp1:hr>
</tp1:TrackPointExtension>
</extensions>
</trkpt>
<trkpt lat="50.6464265" lon="6.9910950">
<ele>148.1804199</ele>
<time>2011-08-15T12:36:28Z</time>
<extensions>
<tp1:TrackPointExtension>
<tp1:hr>126</tp1:hr>
</tp1:TrackPointExtension>
</extensions>
</trkpt>
<trkpt lat="50.6464992" lon="6.9909238">
<ele>148.6610107</ele>
<time>2011-08-15T12:36:30Z</time>
<extensions>
<tp1:TrackPointExtension>
<tp1:hr>126</tp1:hr>
</tp1:TrackPointExtension>
</extensions>
</trkpt>
<trkpt lat="50.6468994" lon="6.9901435">
<ele>149.1416016</ele>
<time>2011-08-15T12:36:39Z</time>
<extensions>
<tp1:TrackPointExtension>
<tp1:hr>130</tp1:hr>
</tp1:TrackPointExtension>
</extensions>
</trkpt>
<trkpt lat="50.6470955" lon="6.9895365">
<ele>148.1804199</ele>
<time>2011-08-15T12:36:45Z</time>
<extensions>
<tp1:TrackPointExtension>
<tp1:hr>134</tp1:hr>
</tp1:TrackPointExtension>
</extensions>
</trkpt>
<trkpt lat="50.6473011" lon="6.9888087">
<ele>144.3352051</ele>
<time>2011-08-15T12:36:52Z</time>
<extensions>
<tp1:TrackPointExtension>
<tp1:hr>135</tp1:hr>
</tp1:TrackPointExtension>
</extensions>
</trkpt>
<trkpt lat="50.6475434" lon="6.9880817">
<ele>140.9704590</ele>
<time>2011-08-15T12:36:59Z</time>
<extensions>
<tp1:TrackPointExtension>
<tp1:hr>136</tp1:hr>
</tp1:TrackPointExtension>
</extensions>
</trkpt>
<trkpt lat="50.6477918" lon="6.9875156">
<ele>142.8930664</ele>
<time>2011-08-15T12:37:05Z</time>
<extensions>
<tp1:TrackPointExtension>
<tp1:hr>136</tp1:hr>
</tp1:TrackPointExtension>
</extensions>
</trkpt>
<trkpt lat="50.6478859" lon="6.9873453">
<ele>142.8930664</ele>
<time>2011-08-15T12:37:07Z</time>
<extensions>
<tp1:TrackPointExtension>
<tp1:hr>135</tp1:hr>
</tp1:TrackPointExtension>
</extensions>
</trkpt>
<trkpt lat="50.6479950" lon="6.9871838">
<ele>143.8543701</ele>
<time>2011-08-15T12:37:09Z</time>
<extensions>
<tp1:TrackPointExtension>
<tp1:hr>135</tp1:hr>
</tp1:TrackPointExtension>
</extensions>
</trkpt>
<trkpt lat="50.6484464" lon="6.9866424">
<ele>146.7384033</ele>
<time>2011-08-15T12:37:17Z</time>
<extensions>
<tp1:TrackPointExtension>
<tp1:hr>136</tp1:hr>
</tp1:TrackPointExtension>
</extensions>
</trkpt>
<trkpt lat="50.6487601" lon="6.9862329">
<ele>148.6610107</ele>
<time>2011-08-15T12:37:23Z</time>
<extensions>
<tp1:TrackPointExtension>
<tp1:hr>137</tp1:hr>
</tp1:TrackPointExtension>
</extensions>
</trkpt>
<trkpt lat="50.6489445" lon="6.9860454">
<ele>152.0257568</ele>
<time>2011-08-15T12:37:27Z</time>
<extensions>
<tp1:TrackPointExtension>
<tp1:hr>133</tp1:hr>
</tp1:TrackPointExtension>
</extensions>
</trkpt>
<trkpt lat="50.6490017" lon="6.9860948">
<ele>153.4676514</ele>
<time>2011-08-15T12:37:28Z</time>
<extensions>
<tp1:TrackPointExtension>
<tp1:hr>133</tp1:hr>
</tp1:TrackPointExtension>
</extensions>
</trkpt>
<trkpt lat="50.6492078" lon="6.9862119">
<ele>162.1195068</ele>
<time>2011-08-15T12:37:32Z</time>
<extensions>
<tp1:TrackPointExtension>
<tp1:hr>134</tp1:hr>
</tp1:TrackPointExtension>
</extensions>
</trkpt>
<trkpt lat="50.6493458" lon="6.9863108">
<ele>163.5615234</ele>
<time>2011-08-15T12:37:34Z</time>
<extensions>
<tp1:TrackPointExtension>
<tp1:hr>135</tp1:hr>
</tp1:TrackPointExtension>
</extensions>
</trkpt>
<trkpt lat="50.6495363" lon="6.9861557">
<ele>163.0808105</ele>
<time>2011-08-15T12:37:37Z</time>
<extensions>
<tp1:TrackPointExtension>
<tp1:hr>135</tp1:hr>
</tp1:TrackPointExtension>
</extensions>
</trkpt>
<trkpt lat="50.6496420" lon="6.9860167">
<ele>161.6389160</ele>
<time>2011-08-15T12:37:39Z</time>
<extensions>
<tp1:TrackPointExtension>
<tp1:hr>135</tp1:hr>
</tp1:TrackPointExtension>
</extensions>
</trkpt>
<trkpt lat="50.6502128" lon="6.9850944">
<ele>158.7547607</ele>
<time>2011-08-15T12:37:51Z</time>
<extensions>
<tp1:TrackPointExtension>
<tp1:hr>138</tp1:hr>
</tp1:TrackPointExtension>
</extensions>
</trkpt>
<trkpt lat="50.6505072" lon="6.9848467">
<ele>161.6389160</ele>
<time>2011-08-15T12:37:56Z</time>
<extensions>
<tp1:TrackPointExtension>
<tp1:hr>139</tp1:hr>
</tp1:TrackPointExtension>
</extensions>
</trkpt>
<trkpt lat="50.6510640" lon="6.9847993">
<ele>162.6000977</ele>
<time>2011-08-15T12:38:04Z</time>
<extensions>
<tp1:TrackPointExtension>
<tp1:hr>139</tp1:hr>
</tp1:TrackPointExtension>
</extensions>
</trkpt>
<trkpt lat="50.6514473" lon="6.9846854">
<ele>162.1195068</ele>
<time>2011-08-15T12:38:10Z</time>
<extensions>
<tp1:TrackPointExtension>
<tp1:hr>142</tp1:hr>
</tp1:TrackPointExtension>
</extensions>
</trkpt>
<trkpt lat="50.6519921" lon="6.9842974">
<ele>163.0808105</ele>
<time>2011-08-15T12:38:19Z</time>
<extensions>
<tp1:TrackPointExtension>
<tp1:hr>144</tp1:hr>
</tp1:TrackPointExtension>
</extensions>
</trkpt>
<trkpt lat="50.6526743" lon="6.9838118">
<ele>164.5227051</ele>
<time>2011-08-15T12:38:30Z</time>
<extensions>
<tp1:TrackPointExtension>
<tp1:hr>145</tp1:hr>
</tp1:TrackPointExtension>
</extensions>
</trkpt>
<trkpt lat="50.6534328" lon="6.9832825">
<ele>165.0034180</ele>
<time>2011-08-15T12:38:42Z</time>
<extensions>
<tp1:TrackPointExtension>
<tp1:hr>146</tp1:hr>
</tp1:TrackPointExtension>
</extensions>
</trkpt>
<trkpt lat="50.6541269" lon="6.9828137">
<ele>163.0808105</ele>
<time>2011-08-15T12:38:53Z</time>
<extensions>
<tp1:TrackPointExtension>
<tp1:hr>147</tp1:hr>
</tp1:TrackPointExtension>
</extensions>
</trkpt>
<trkpt lat="50.6548164" lon="6.9823559">
<ele>160.1968994</ele>
<time>2011-08-15T12:39:04Z</time>
<extensions>
<tp1:TrackPointExtension>
<tp1:hr>146</tp1:hr>
</tp1:TrackPointExtension>
</extensions>
</trkpt>
<trkpt lat="50.6557606" lon="6.9816720">
<ele>160.6774902</ele>
<time>2011-08-15T12:39:19Z</time>
<extensions>
<tp1:TrackPointExtension>
<tp1:hr>145</tp1:hr>
</tp1:TrackPointExtension>
</extensions>
</trkpt>
<trkpt lat="50.6563171" lon="6.9811929">
<ele>161.6389160</ele>
<time>2011-08-15T12:39:28Z</time>
<extensions>
<tp1:TrackPointExtension>
<tp1:hr>146</tp1:hr>
</tp1:TrackPointExtension>
</extensions>
</trkpt>
<trkpt lat="50.6567621" lon="6.9806930">
<ele>158.7547607</ele>
<time>2011-08-15T12:39:36Z</time>
<extensions>
<tp1:TrackPointExtension>
<tp1:hr>145</tp1:hr>
</tp1:TrackPointExtension>
</extensions>
</trkpt>
<trkpt lat="50.6574835" lon="6.9798578">
<ele>153.9483643</ele>
<time>2011-08-15T12:39:49Z</time>
<extensions>
<tp1:TrackPointExtension>
<tp1:hr>143</tp1:hr>
</tp1:TrackPointExtension>
</extensions>
</trkpt>
<trkpt lat="50.6581068" lon="6.9791353">
<ele>151.5449219</ele>
<time>2011-08-15T12:40:00Z</time>
<extensions>
<tp1:TrackPointExtension>
<tp1:hr>143</tp1:hr>
</tp1:TrackPointExtension>
</extensions>
</trkpt>
<trkpt lat="50.6586160" lon="6.9785483">
<ele>150.1030273</ele>
<time>2011-08-15T12:40:09Z</time>
<extensions>
<tp1:TrackPointExtension>
<tp1:hr>142</tp1:hr>
</tp1:TrackPointExtension>
</extensions>
</trkpt>
<trkpt lat="50.6592324" lon="6.9778434">
<ele>148.6610107</ele>
<time>2011-08-15T12:40:20Z</time>
<extensions>
<tp1:TrackPointExtension>
<tp1:hr>140</tp1:hr>
</tp1:TrackPointExtension>
</extensions>
</trkpt>
<trkpt lat="50.6597851" lon="6.9772031">
<ele>147.6997070</ele>
<time>2011-08-15T12:40:30Z</time>
<extensions>
<tp1:TrackPointExtension>
<tp1:hr>141</tp1:hr>
</tp1:TrackPointExtension>
</extensions>
</trkpt>
<trkpt lat="50.6603512" lon="6.9766058">
<ele>144.3352051</ele>
<time>2011-08-15T12:40:40Z</time>
<extensions>
<tp1:TrackPointExtension>
<tp1:hr>142</tp1:hr>
</tp1:TrackPointExtension>
</extensions>
</trkpt>
<trkpt lat="50.6607959" lon="6.9763283">
<ele>143.8543701</ele>
<time>2011-08-15T12:40:47Z</time>
<extensions>
<tp1:TrackPointExtension>
<tp1:hr>141</tp1:hr>
</tp1:TrackPointExtension>
</extensions>
</trkpt>
<trkpt lat="50.6614327" lon="6.9759284">
<ele>143.3736572</ele>
<time>2011-08-15T12:40:57Z</time>
<extensions>
<tp1:TrackPointExtension>
<tp1:hr>143</tp1:hr>
</tp1:TrackPointExtension>
</extensions>
</trkpt>
<trkpt lat="50.6617467" lon="6.9754936">
<ele>142.8930664</ele>
<time>2011-08-15T12:41:03Z</time>
<extensions>
<tp1:TrackPointExtension>
<tp1:hr>145</tp1:hr>
</tp1:TrackPointExtension>
</extensions>
</trkpt>
<trkpt lat="50.6621670" lon="6.9749336">
<ele>141.9317627</ele>
<time>2011-08-15T12:41:11Z</time>
<extensions>
<tp1:TrackPointExtension>
<tp1:hr>147</tp1:hr>
</tp1:TrackPointExtension>
</extensions>
</trkpt>
<trkpt lat="50.6626875" lon="6.9744007">
<ele>141.4510498</ele>
<time>2011-08-15T12:41:20Z</time>
<extensions>
<tp1:TrackPointExtension>
<tp1:hr>149</tp1:hr>
</tp1:TrackPointExtension>
</extensions>
</trkpt>
<trkpt lat="50.6630652" lon="6.9738081">
<ele>140.0091553</ele>
<time>2011-08-15T12:41:28Z</time>
<extensions>
<tp1:TrackPointExtension>
<tp1:hr>150</tp1:hr>
</tp1:TrackPointExtension>
</extensions>
</trkpt>
<trkpt lat="50.6633884" lon="6.9731389">
<ele>137.1252441</ele>
<time>2011-08-15T12:41:36Z</time>
<extensions>
<tp1:TrackPointExtension>
<tp1:hr>151</tp1:hr>
</tp1:TrackPointExtension>
</extensions>
</trkpt>
<trkpt lat="50.6636185" lon="6.9723689">
<ele>135.6831055</ele>
<time>2011-08-15T12:41:44Z</time>
<extensions>
<tp1:TrackPointExtension>
<tp1:hr>151</tp1:hr>
</tp1:TrackPointExtension>
</extensions>
</trkpt>
<trkpt lat="50.6639784" lon="6.9708864">
<ele>133.2799072</ele>
<time>2011-08-15T12:41:59Z</time>
<extensions>
<tp1:TrackPointExtension>
<tp1:hr>151</tp1:hr>
</tp1:TrackPointExtension>
</extensions>
</trkpt>
<trkpt lat="50.6641779" lon="6.9700945">
<ele>132.7993164</ele>
<time>2011-08-15T12:42:07Z</time>
<extensions>
<tp1:TrackPointExtension>
<tp1:hr>151</tp1:hr>
</tp1:TrackPointExtension>
</extensions>
</trkpt>
<trkpt lat="50.6645078" lon="6.9692595">
<ele>131.8378906</ele>
<time>2011-08-15T12:42:16Z</time>
<extensions>
<tp1:TrackPointExtension>
<tp1:hr>153</tp1:hr>
</tp1:TrackPointExtension>
</extensions>
</trkpt>
<trkpt lat="50.6647760" lon="6.9686052">
<ele>132.3186035</ele>
<time>2011-08-15T12:42:23Z</time>
<extensions>
<tp1:TrackPointExtension>
<tp1:hr>153</tp1:hr>
</tp1:TrackPointExtension>
</extensions>
</trkpt>
<trkpt lat="50.6648508" lon="6.9680701">
<ele>132.7993164</ele>
<time>2011-08-15T12:42:28Z</time>
<extensions>
<tp1:TrackPointExtension>
<tp1:hr>154</tp1:hr>
</tp1:TrackPointExtension>
</extensions>
</trkpt>
<trkpt lat="50.6647638" lon="6.9669771">
<ele>133.7604980</ele>
<time>2011-08-15T12:42:38Z</time>
<extensions>
<tp1:TrackPointExtension>
<tp1:hr>152</tp1:hr>
</tp1:TrackPointExtension>
</extensions>
</trkpt>
<trkpt lat="50.6645484" lon="6.9660520">
<ele>134.7219238</ele>
<time>2011-08-15T12:42:47Z</time>
<extensions>
<tp1:TrackPointExtension>
<tp1:hr>151</tp1:hr>
</tp1:TrackPointExtension>
</extensions>
</trkpt>
<trkpt lat="50.6643023" lon="6.9650225">
<ele>136.1639404</ele>
<time>2011-08-15T12:42:57Z</time>
<extensions>
<tp1:TrackPointExtension>
<tp1:hr>151</tp1:hr>
</tp1:TrackPointExtension>
</extensions>
</trkpt>
<trkpt lat="50.6642888" lon="6.9644556">
<ele>136.1639404</ele>
<time>2011-08-15T12:43:02Z</time>
<extensions>
<tp1:TrackPointExtension>
<tp1:hr>151</tp1:hr>
</tp1:TrackPointExtension>
</extensions>
</trkpt>
<trkpt lat="50.6644011" lon="6.9632646">
<ele>137.1252441</ele>
<time>2011-08-15T12:43:13Z</time>
<extensions>
<tp1:TrackPointExtension>
<tp1:hr>152</tp1:hr>
</tp1:TrackPointExtension>
</extensions>
</trkpt>
<trkpt lat="50.6645098" lon="6.9621258">
<ele>139.0478516</ele>
<time>2011-08-15T12:43:24Z</time>
<extensions>
<tp1:TrackPointExtension>
<tp1:hr>153</tp1:hr>
</tp1:TrackPointExtension>
</extensions>
</trkpt>
<trkpt lat="50.6646083" lon="6.9610252">
<ele>137.6058350</ele>
<time>2011-08-15T12:43:35Z</time>
<extensions>
<tp1:TrackPointExtension>
<tp1:hr>153</tp1:hr>
</tp1:TrackPointExtension>
</extensions>
</trkpt>
<trkpt lat="50.6647125" lon="6.9600043">
<ele>137.6058350</ele>
<time>2011-08-15T12:43:45Z</time>
<extensions>
<tp1:TrackPointExtension>
<tp1:hr>155</tp1:hr>
</tp1:TrackPointExtension>
</extensions>
</trkpt>
<trkpt lat="50.6648861" lon="6.9593376">
<ele>135.2025146</ele>
<time>2011-08-15T12:43:52Z</time>
<extensions>
<tp1:TrackPointExtension>
<tp1:hr>157</tp1:hr>
</tp1:TrackPointExtension>
</extensions>
</trkpt>
<trkpt lat="50.6652044" lon="6.9582999">
<ele>133.7604980</ele>
<time>2011-08-15T12:44:03Z</time>
<extensions>
<tp1:TrackPointExtension>
<tp1:hr>156</tp1:hr>
</tp1:TrackPointExtension>
</extensions>
</trkpt>
<trkpt lat="50.6653626" lon="6.9578243">
<ele>133.2799072</ele>
<time>2011-08-15T12:44:08Z</time>
<extensions>
<tp1:TrackPointExtension>
<tp1:hr>154</tp1:hr>
</tp1:TrackPointExtension>
</extensions>
</trkpt>
<trkpt lat="50.6655060" lon="6.9570933">
<ele>131.8378906</ele>
<time>2011-08-15T12:44:15Z</time>
<extensions>
<tp1:TrackPointExtension>
<tp1:hr>153</tp1:hr>
</tp1:TrackPointExtension>
</extensions>
</trkpt>
<trkpt lat="50.6657203" lon="6.9565314">
<ele>129.9152832</ele>
<time>2011-08-15T12:44:21Z</time>
<extensions>
<tp1:TrackPointExtension>
<tp1:hr>151</tp1:hr>
</tp1:TrackPointExtension>
</extensions>
</trkpt>
<trkpt lat="50.6659955" lon="6.9557664">
<ele>131.3572998</ele>
<time>2011-08-15T12:44:29Z</time>
<extensions>
<tp1:TrackPointExtension>
<tp1:hr>147</tp1:hr>
</tp1:TrackPointExtension>
</extensions>
</trkpt>
<trkpt lat="50.6662689" lon="6.9550163">
<ele>133.2799072</ele>
<time>2011-08-15T12:44:37Z</time>
<extensions>
<tp1:TrackPointExtension>
<tp1:hr>145</tp1:hr>
</tp1:TrackPointExtension>
</extensions>
</trkpt>
<trkpt lat="50.6663034" lon="6.9549183">
<ele>134.2412109</ele>
<time>2011-08-15T12:44:38Z</time>
<extensions>
<tp1:TrackPointExtension>
<tp1:hr>145</tp1:hr>
</tp1:TrackPointExtension>
</extensions>
</trkpt>
<trkpt lat="50.6663509" lon="6.9544951">
<ele>135.2025146</ele>
<time>2011-08-15T12:44:42Z</time>
<extensions>
<tp1:TrackPointExtension>
<tp1:hr>144</tp1:hr>
</tp1:TrackPointExtension>
</extensions>
</trkpt>
<trkpt lat="50.6663653" lon="6.9539397">
<ele>136.1639404</ele>
<time>2011-08-15T12:44:47Z</time>
<extensions>
<tp1:TrackPointExtension>
<tp1:hr>142</tp1:hr>
</tp1:TrackPointExtension>
</extensions>
</trkpt>
<trkpt lat="50.6665111" lon="6.9535472">
<ele>138.0865479</ele>
<time>2011-08-15T12:44:51Z</time>
<extensions>
<tp1:TrackPointExtension>
<tp1:hr>142</tp1:hr>
</tp1:TrackPointExtension>
</extensions>
</trkpt>
<trkpt lat="50.6668651" lon="6.9528936">
<ele>140.9704590</ele>
<time>2011-08-15T12:44:59Z</time>
<extensions>
<tp1:TrackPointExtension>
<tp1:hr>141</tp1:hr>
</tp1:TrackPointExtension>
</extensions>
</trkpt>
<trkpt lat="50.6672186" lon="6.9520031">
<ele>144.8157959</ele>
<time>2011-08-15T12:45:09Z</time>
<extensions>
<tp1:TrackPointExtension>
<tp1:hr>141</tp1:hr>
</tp1:TrackPointExtension>
</extensions>
</trkpt>
<trkpt lat="50.6675061" lon="6.9511970">
<ele>147.2189941</ele>
<time>2011-08-15T12:45:18Z</time>
<extensions>
<tp1:TrackPointExtension>
<tp1:hr>144</tp1:hr>
</tp1:TrackPointExtension>
</extensions>
</trkpt>
<trkpt lat="50.6676836" lon="6.9504322">
<ele>146.2578125</ele>
<time>2011-08-15T12:45:26Z</time>
<extensions>
<tp1:TrackPointExtension>
<tp1:hr>149</tp1:hr>
</tp1:TrackPointExtension>
</extensions>
</trkpt>
<trkpt lat="50.6678433" lon="6.9495172">
<ele>143.8543701</ele>
<time>2011-08-15T12:45:35Z</time>
<extensions>
<tp1:TrackPointExtension>
<tp1:hr>149</tp1:hr>
</tp1:TrackPointExtension>
</extensions>
</trkpt>
<trkpt lat="50.6680772" lon="6.9487808">
<ele>144.3352051</ele>
<time>2011-08-15T12:45:43Z</time>
<extensions>
<tp1:TrackPointExtension>
<tp1:hr>151</tp1:hr>
</tp1:TrackPointExtension>
</extensions>
</trkpt>
<trkpt lat="50.6684836" lon="6.9477539">
<ele>146.7384033</ele>
<time>2011-08-15T12:45:55Z</time>
<extensions>
<tp1:TrackPointExtension>
<tp1:hr>152</tp1:hr>
</tp1:TrackPointExtension>
</extensions>
</trkpt>
<trkpt lat="50.6689815" lon="6.9465432">
<ele>147.2189941</ele>
<time>2011-08-15T12:46:09Z</time>
<extensions>
<tp1:TrackPointExtension>
<tp1:hr>154</tp1:hr>
</tp1:TrackPointExtension>
</extensions>
</trkpt>
<trkpt lat="50.6692533" lon="6.9461299">
<ele>147.2189941</ele>
<time>2011-08-15T12:46:15Z</time>
<extensions>
<tp1:TrackPointExtension>
<tp1:hr>154</tp1:hr>
</tp1:TrackPointExtension>
</extensions>
</trkpt>
<trkpt lat="50.6697459" lon="6.9456668">
<ele>148.1804199</ele>
<time>2011-08-15T12:46:24Z</time>
<extensions>
<tp1:TrackPointExtension>
<tp1:hr>154</tp1:hr>
</tp1:TrackPointExtension>
</extensions>
</trkpt>
<trkpt lat="50.6704121" lon="6.9450833">
<ele>147.2189941</ele>
<time>2011-08-15T12:46:36Z</time>
<extensions>
<tp1:TrackPointExtension>
<tp1:hr>152</tp1:hr>
</tp1:TrackPointExtension>
</extensions>
</trkpt>
<trkpt lat="50.6710144" lon="6.9445089">
<ele>142.8930664</ele>
<time>2011-08-15T12:46:47Z</time>
<extensions>
<tp1:TrackPointExtension>
<tp1:hr>152</tp1:hr>
</tp1:TrackPointExtension>
</extensions>
</trkpt>
<trkpt lat="50.6716347" lon="6.9439412">
<ele>140.0091553</ele>
<time>2011-08-15T12:46:58Z</time>
<extensions>
<tp1:TrackPointExtension>
<tp1:hr>153</tp1:hr>
</tp1:TrackPointExtension>
</extensions>
</trkpt>
<trkpt lat="50.6720597" lon="6.9434518">
<ele>139.0478516</ele>
<time>2011-08-15T12:47:06Z</time>
<extensions>
<tp1:TrackPointExtension>
<tp1:hr>153</tp1:hr>
</tp1:TrackPointExtension>
</extensions>
</trkpt>
<trkpt lat="50.6724786" lon="6.9427802">
<ele>137.6058350</ele>
<time>2011-08-15T12:47:15Z</time>
<extensions>
<tp1:TrackPointExtension>
<tp1:hr>153</tp1:hr>
</tp1:TrackPointExtension>
</extensions>
</trkpt>
<trkpt lat="50.6728332" lon="6.9421711">
<ele>136.6446533</ele>
<time>2011-08-15T12:47:23Z</time>
<extensions>
<tp1:TrackPointExtension>
<tp1:hr>152</tp1:hr>
</tp1:TrackPointExtension>
</extensions>
</trkpt>
<trkpt lat="50.6731239" lon="6.9419385">
<ele>136.6446533</ele>
<time>2011-08-15T12:47:28Z</time>
<extensions>
<tp1:TrackPointExtension>
<tp1:hr>152</tp1:hr>
</tp1:TrackPointExtension>
</extensions>
</trkpt>
<trkpt lat="50.6732565" lon="6.9419174">
<ele>136.6446533</ele>
<time>2011-08-15T12:47:30Z</time>
<extensions>
<tp1:TrackPointExtension>
<tp1:hr>152</tp1:hr>
</tp1:TrackPointExtension>
</extensions>
</trkpt>
<trkpt lat="50.6739759" lon="6.9418617">
<ele>140.9704590</ele>
<time>2011-08-15T12:47:41Z</time>
<extensions>
<tp1:TrackPointExtension>
<tp1:hr>150</tp1:hr>
</tp1:TrackPointExtension>
</extensions>
</trkpt>
<trkpt lat="50.6745542" lon="6.9416723">
<ele>143.8543701</ele>
<time>2011-08-15T12:47:50Z</time>
<extensions>
<tp1:TrackPointExtension>
<tp1:hr>151</tp1:hr>
</tp1:TrackPointExtension>
</extensions>
</trkpt>
<trkpt lat="50.6751321" lon="6.9413709">
<ele>144.3352051</ele>
<time>2011-08-15T12:47:59Z</time>
<extensions>
<tp1:TrackPointExtension>
<tp1:hr>152</tp1:hr>
</tp1:TrackPointExtension>
</extensions>
</trkpt>
<trkpt lat="50.6757181" lon="6.9411489">
<ele>144.8157959</ele>
<time>2011-08-15T12:48:08Z</time>
<extensions>
<tp1:TrackPointExtension>
<tp1:hr>152</tp1:hr>
</tp1:TrackPointExtension>
</extensions>
</trkpt>
<trkpt lat="50.6764483" lon="6.9410076">
<ele>141.4510498</ele>
<time>2011-08-15T12:48:19Z</time>
<extensions>
<tp1:TrackPointExtension>
<tp1:hr>153</tp1:hr>
</tp1:TrackPointExtension>
</extensions>
</trkpt>
<trkpt lat="50.6772168" lon="6.9408602">
<ele>143.3736572</ele>
<time>2011-08-15T12:48:31Z</time>
<extensions>
<tp1:TrackPointExtension>
<tp1:hr>153</tp1:hr>
</tp1:TrackPointExtension>
</extensions>
</trkpt>
<trkpt lat="50.6776073" lon="6.9407979">
<ele>143.3736572</ele>
<time>2011-08-15T12:48:38Z</time>
<extensions>
<tp1:TrackPointExtension>
<tp1:hr>150</tp1:hr>
</tp1:TrackPointExtension>
</extensions>
</trkpt>
<trkpt lat="50.6778645" lon="6.9407540">
<ele>142.8930664</ele>
<time>2011-08-15T12:48:44Z</time>
<extensions>
<tp1:TrackPointExtension>
<tp1:hr>144</tp1:hr>
</tp1:TrackPointExtension>
</extensions>
</trkpt>
<trkpt lat="50.6779664" lon="6.9407259">
<ele>142.4124756</ele>
<time>2011-08-15T12:48:49Z</time>
<extensions>
<tp1:TrackPointExtension>
<tp1:hr>141</tp1:hr>
</tp1:TrackPointExtension>
</extensions>
</trkpt>
<trkpt lat="50.6779857" lon="6.9407248">
<ele>142.8930664</ele>
<time>2011-08-15T12:48:51Z</time>
<extensions>
<tp1:TrackPointExtension>
<tp1:hr>136</tp1:hr>
</tp1:TrackPointExtension>
</extensions>
</trkpt>
<trkpt lat="50.6780320" lon="6.9407088">
<ele>143.8543701</ele>
<time>2011-08-15T12:48:56Z</time>
<extensions>
<tp1:TrackPointExtension>
<tp1:hr>134</tp1:hr>
</tp1:TrackPointExtension>
</extensions>
</trkpt>
<trkpt lat="50.6782333" lon="6.9406565">
<ele>142.4124756</ele>
<time>2011-08-15T12:49:02Z</time>
<extensions>
<tp1:TrackPointExtension>
<tp1:hr>133</tp1:hr>
</tp1:TrackPointExtension>
</extensions>
</trkpt>
<trkpt lat="50.6785722" lon="6.9405567">
<ele>143.3736572</ele>
<time>2011-08-15T12:49:08Z</time>
<extensions>
<tp1:TrackPointExtension>
<tp1:hr>136</tp1:hr>
</tp1:TrackPointExtension>
</extensions>
</trkpt>
<trkpt lat="50.6790106" lon="6.9404048">
<ele>146.2578125</ele>
<time>2011-08-15T12:49:15Z</time>
<extensions>
<tp1:TrackPointExtension>
<tp1:hr>141</tp1:hr>
</tp1:TrackPointExtension>
</extensions>
</trkpt>
<trkpt lat="50.6796408" lon="6.9402386">
<ele>148.1804199</ele>
<time>2011-08-15T12:49:25Z</time>
<extensions>
<tp1:TrackPointExtension>
<tp1:hr>146</tp1:hr>
</tp1:TrackPointExtension>
</extensions>
</trkpt>
<trkpt lat="50.6801424" lon="6.9402047">
<ele>150.1030273</ele>
<time>2011-08-15T12:49:33Z</time>
<extensions>
<tp1:TrackPointExtension>
<tp1:hr>148</tp1:hr>
</tp1:TrackPointExtension>
</extensions>
</trkpt>
<trkpt lat="50.6807716" lon="6.9402635">
<ele>152.0257568</ele>
<time>2011-08-15T12:49:43Z</time>
<extensions>
<tp1:TrackPointExtension>
<tp1:hr>149</tp1:hr>
</tp1:TrackPointExtension>
</extensions>
</trkpt>
<trkpt lat="50.6812166" lon="6.9401598">
<ele>151.5449219</ele>
<time>2011-08-15T12:49:50Z</time>
<extensions>
<tp1:TrackPointExtension>
<tp1:hr>150</tp1:hr>
</tp1:TrackPointExtension>
</extensions>
</trkpt>
<trkpt lat="50.6818260" lon="6.9399698">
<ele>151.0642090</ele>
<time>2011-08-15T12:50:00Z</time>
<extensions>
<tp1:TrackPointExtension>
<tp1:hr>151</tp1:hr>
</tp1:TrackPointExtension>
</extensions>
</trkpt>
<trkpt lat="50.6825357" lon="6.9398083">
<ele>150.1030273</ele>
<time>2011-08-15T12:50:11Z</time>
<extensions>
<tp1:TrackPointExtension>
<tp1:hr>151</tp1:hr>
</tp1:TrackPointExtension>
</extensions>
</trkpt>
<trkpt lat="50.6833112" lon="6.9397930">
<ele>149.6223145</ele>
<time>2011-08-15T12:50:23Z</time>
<extensions>
<tp1:TrackPointExtension>
<tp1:hr>150</tp1:hr>
</tp1:TrackPointExtension>
</extensions>
</trkpt>
<trkpt lat="50.6840327" lon="6.9396849">
<ele>149.1416016</ele>
<time>2011-08-15T12:50:34Z</time>
<extensions>
<tp1:TrackPointExtension>
<tp1:hr>150</tp1:hr>
</tp1:TrackPointExtension>
</extensions>
</trkpt>
<trkpt lat="50.6848290" lon="6.9395239">
<ele>147.2189941</ele>
<time>2011-08-15T12:50:46Z</time>
<extensions>
<tp1:TrackPointExtension>
<tp1:hr>148</tp1:hr>
</tp1:TrackPointExtension>
</extensions>
</trkpt>
<trkpt lat="50.6853614" lon="6.9393316">
<ele>140.9704590</ele>
<time>2011-08-15T12:50:54Z</time>
<extensions>
<tp1:TrackPointExtension>
<tp1:hr>146</tp1:hr>
</tp1:TrackPointExtension>
</extensions>
</trkpt>
<trkpt lat="50.6859861" lon="6.9389270">
<ele>136.1639404</ele>
<time>2011-08-15T12:51:04Z</time>
<extensions>
<tp1:TrackPointExtension>
<tp1:hr>144</tp1:hr>
</tp1:TrackPointExtension>
</extensions>
</trkpt>
<trkpt lat="50.6864694" lon="6.9386074">
<ele>136.1639404</ele>
<time>2011-08-15T12:51:12Z</time>
<extensions>
<tp1:TrackPointExtension>
<tp1:hr>144</tp1:hr>
</tp1:TrackPointExtension>
</extensions>
</trkpt>
<trkpt lat="50.6871982" lon="6.9383752">
<ele>137.6058350</ele>
<time>2011-08-15T12:51:23Z</time>
<extensions>
<tp1:TrackPointExtension>
<tp1:hr>145</tp1:hr>
</tp1:TrackPointExtension>
</extensions>
</trkpt>
<trkpt lat="50.6878722" lon="6.9382526">
<ele>137.1252441</ele>
<time>2011-08-15T12:51:33Z</time>
<extensions>
<tp1:TrackPointExtension>
<tp1:hr>145</tp1:hr>
</tp1:TrackPointExtension>
</extensions>
</trkpt>
<trkpt lat="50.6886128" lon="6.9381212">
<ele>136.1639404</ele>
<time>2011-08-15T12:51:44Z</time>
<extensions>
<tp1:TrackPointExtension>
<tp1:hr>142</tp1:hr>
</tp1:TrackPointExtension>
</extensions>
</trkpt>
<trkpt lat="50.6892423" lon="6.9377627">
<ele>134.7219238</ele>
<time>2011-08-15T12:51:54Z</time>
<extensions>
<tp1:TrackPointExtension>
<tp1:hr>142</tp1:hr>
</tp1:TrackPointExtension>
</extensions>
</trkpt>
<trkpt lat="50.6899253" lon="6.9373599">
<ele>133.7604980</ele>
<time>2011-08-15T12:52:05Z</time>
<extensions>
<tp1:TrackPointExtension>
<tp1:hr>142</tp1:hr>
</tp1:TrackPointExtension>
</extensions>
</trkpt>
<trkpt lat="50.6904673" lon="6.9369621">
<ele>133.2799072</ele>
<time>2011-08-15T12:52:14Z</time>
<extensions>
<tp1:TrackPointExtension>
<tp1:hr>143</tp1:hr>
</tp1:TrackPointExtension>
</extensions>
</trkpt>
<trkpt lat="50.6907672" lon="6.9365378">
<ele>132.3186035</ele>
<time>2011-08-15T12:52:20Z</time>
<extensions>
<tp1:TrackPointExtension>
<tp1:hr>145</tp1:hr>
</tp1:TrackPointExtension>
</extensions>
</trkpt>
<trkpt lat="50.6912720" lon="6.9356910">
<ele>132.7993164</ele>
<time>2011-08-15T12:52:31Z</time>
<extensions>
<tp1:TrackPointExtension>
<tp1:hr>147</tp1:hr>
</tp1:TrackPointExtension>
</extensions>
</trkpt>
<trkpt lat="50.6917242" lon="6.9350823">
<ele>132.3186035</ele>
<time>2011-08-15T12:52:40Z</time>
<extensions>
<tp1:TrackPointExtension>
<tp1:hr>149</tp1:hr>
</tp1:TrackPointExtension>
</extensions>
</trkpt>
<trkpt lat="50.6923365" lon="6.9344594">
<ele>132.7993164</ele>
<time>2011-08-15T12:52:51Z</time>
<extensions>
<tp1:TrackPointExtension>
<tp1:hr>151</tp1:hr>
</tp1:TrackPointExtension>
</extensions>
</trkpt>
<trkpt lat="50.6929055" lon="6.9339585">
<ele>131.8378906</ele>
<time>2011-08-15T12:53:01Z</time>
<extensions>
<tp1:TrackPointExtension>
<tp1:hr>151</tp1:hr>
</tp1:TrackPointExtension>
</extensions>
</trkpt>
<trkpt lat="50.6936035" lon="6.9332546">
<ele>130.8767090</ele>
<time>2011-08-15T12:53:13Z</time>
<extensions>
<tp1:TrackPointExtension>
<tp1:hr>149</tp1:hr>
</tp1:TrackPointExtension>
</extensions>
</trkpt>
<trkpt lat="50.6940931" lon="6.9326263">
<ele>130.3959961</ele>
<time>2011-08-15T12:53:22Z</time>
<extensions>
<tp1:TrackPointExtension>
<tp1:hr>145</tp1:hr>
</tp1:TrackPointExtension>
</extensions>
</trkpt>
<trkpt lat="50.6945080" lon="6.9322037">
<ele>131.8378906</ele>
<time>2011-08-15T12:53:29Z</time>
<extensions>
<tp1:TrackPointExtension>
<tp1:hr>142</tp1:hr>
</tp1:TrackPointExtension>
</extensions>
</trkpt>
<trkpt lat="50.6949637" lon="6.9319554">
<ele>132.7993164</ele>
<time>2011-08-15T12:53:36Z</time>
<extensions>
<tp1:TrackPointExtension>
<tp1:hr>141</tp1:hr>
</tp1:TrackPointExtension>
</extensions>
</trkpt>
<trkpt lat="50.6955020" lon="6.9317636">
<ele>135.6831055</ele>
<time>2011-08-15T12:53:44Z</time>
<extensions>
<tp1:TrackPointExtension>
<tp1:hr>141</tp1:hr>
</tp1:TrackPointExtension>
</extensions>
</trkpt>
<trkpt lat="50.6960307" lon="6.9315770">
<ele>136.6446533</ele>
<time>2011-08-15T12:53:52Z</time>
<extensions>
<tp1:TrackPointExtension>
<tp1:hr>142</tp1:hr>
</tp1:TrackPointExtension>
</extensions>
</trkpt>
<trkpt lat="50.6966989" lon="6.9313449">
<ele>135.6831055</ele>
<time>2011-08-15T12:54:02Z</time>
<extensions>
<tp1:TrackPointExtension>
<tp1:hr>142</tp1:hr>
</tp1:TrackPointExtension>
</extensions>
</trkpt>
<trkpt lat="50.6971654" lon="6.9312557">
<ele>135.2025146</ele>
<time>2011-08-15T12:54:09Z</time>
<extensions>
<tp1:TrackPointExtension>
<tp1:hr>143</tp1:hr>
</tp1:TrackPointExtension>
</extensions>
</trkpt>
<trkpt lat="50.6975593" lon="6.9311612">
<ele>133.2799072</ele>
<time>2011-08-15T12:54:15Z</time>
<extensions>
<tp1:TrackPointExtension>
<tp1:hr>143</tp1:hr>
</tp1:TrackPointExtension>
</extensions>
</trkpt>
<trkpt lat="50.6979695" lon="6.9308810">
<ele>128.9541016</ele>
<time>2011-08-15T12:54:22Z</time>
<extensions>
<tp1:TrackPointExtension>
<tp1:hr>143</tp1:hr>
</tp1:TrackPointExtension>
</extensions>
</trkpt>
<trkpt lat="50.6984520" lon="6.9305652">
<ele>126.0699463</ele>
<time>2011-08-15T12:54:30Z</time>
<extensions>
<tp1:TrackPointExtension>
<tp1:hr>142</tp1:hr>
</tp1:TrackPointExtension>
</extensions>
</trkpt>
<trkpt lat="50.6989078" lon="6.9302485">
<ele>127.5119629</ele>
<time>2011-08-15T12:54:37Z</time>
<extensions>
<tp1:TrackPointExtension>
<tp1:hr>140</tp1:hr>
</tp1:TrackPointExtension>
</extensions>
</trkpt>
<trkpt lat="50.6994456" lon="6.9299261">
<ele>131.8378906</ele>
<time>2011-08-15T12:54:45Z</time>
<extensions>
<tp1:TrackPointExtension>
<tp1:hr>138</tp1:hr>
</tp1:TrackPointExtension>
</extensions>
</trkpt>
<trkpt lat="50.6998667" lon="6.9297452">
<ele>132.7993164</ele>
<time>2011-08-15T12:54:51Z</time>
<extensions>
<tp1:TrackPointExtension>
<tp1:hr>137</tp1:hr>
</tp1:TrackPointExtension>
</extensions>
</trkpt>
<trkpt lat="50.7002817" lon="6.9296774">
<ele>127.0313721</ele>
<time>2011-08-15T12:54:57Z</time>
<extensions>
<tp1:TrackPointExtension>
<tp1:hr>137</tp1:hr>
</tp1:TrackPointExtension>
</extensions>
</trkpt>
<trkpt lat="50.7008064" lon="6.9295072">
<ele>127.5119629</ele>
<time>2011-08-15T12:55:05Z</time>
<extensions>
<tp1:TrackPointExtension>
<tp1:hr>139</tp1:hr>
</tp1:TrackPointExtension>
</extensions>
</trkpt>
<trkpt lat="50.7012413" lon="6.9292392">
<ele>127.9925537</ele>
<time>2011-08-15T12:55:12Z</time>
<extensions>
<tp1:TrackPointExtension>
<tp1:hr>140</tp1:hr>
</tp1:TrackPointExtension>
</extensions>
</trkpt>
<trkpt lat="50.7018196" lon="6.9287370">
<ele>129.9152832</ele>
<time>2011-08-15T12:55:22Z</time>
<extensions>
<tp1:TrackPointExtension>
<tp1:hr>145</tp1:hr>
</tp1:TrackPointExtension>
</extensions>
</trkpt>
<trkpt lat="50.7021579" lon="6.9284356">
<ele>130.3959961</ele>
<time>2011-08-15T12:55:28Z</time>
<extensions>
<tp1:TrackPointExtension>
<tp1:hr>150</tp1:hr>
</tp1:TrackPointExtension>
</extensions>
</trkpt>
<trkpt lat="50.7028344" lon="6.9278384">
<ele>130.8767090</ele>
<time>2011-08-15T12:55:40Z</time>
<extensions>
<tp1:TrackPointExtension>
<tp1:hr>154</tp1:hr>
</tp1:TrackPointExtension>
</extensions>
</trkpt>
<trkpt lat="50.7035171" lon="6.9272476">
<ele>130.3959961</ele>
<time>2011-08-15T12:55:52Z</time>
<extensions>
<tp1:TrackPointExtension>
<tp1:hr>157</tp1:hr>
</tp1:TrackPointExtension>
</extensions>
</trkpt>
<trkpt lat="50.7042077" lon="6.9266543">
<ele>130.8767090</ele>
<time>2011-08-15T12:56:04Z</time>
<extensions>
<tp1:TrackPointExtension>
<tp1:hr>158</tp1:hr>
</tp1:TrackPointExtension>
</extensions>
</trkpt>
<trkpt lat="50.7051214" lon="6.9258651">
<ele>131.8378906</ele>
<time>2011-08-15T12:56:20Z</time>
<extensions>
<tp1:TrackPointExtension>
<tp1:hr>158</tp1:hr>
</tp1:TrackPointExtension>
</extensions>
</trkpt>
<trkpt lat="50.7056715" lon="6.9253680">
<ele>131.8378906</ele>
<time>2011-08-15T12:56:30Z</time>
<extensions>
<tp1:TrackPointExtension>
<tp1:hr>158</tp1:hr>
</tp1:TrackPointExtension>
</extensions>
</trkpt>
<trkpt lat="50.7060491" lon="6.9250179">
<ele>132.7993164</ele>
<time>2011-08-15T12:56:37Z</time>
<extensions>
<tp1:TrackPointExtension>
<tp1:hr>157</tp1:hr>
</tp1:TrackPointExtension>
</extensions>
</trkpt>
<trkpt lat="50.7065090" lon="6.9246328">
<ele>132.7993164</ele>
<time>2011-08-15T12:56:45Z</time>
<extensions>
<tp1:TrackPointExtension>
<tp1:hr>156</tp1:hr>
</tp1:TrackPointExtension>
</extensions>
</trkpt>
<trkpt lat="50.7071264" lon="6.9240656">
<ele>131.8378906</ele>
<time>2011-08-15T12:56:56Z</time>
<extensions>
<tp1:TrackPointExtension>
<tp1:hr>153</tp1:hr>
</tp1:TrackPointExtension>
</extensions>
</trkpt>
<trkpt lat="50.7076447" lon="6.9235646">
<ele>129.9152832</ele>
<time>2011-08-15T12:57:05Z</time>
<extensions>
<tp1:TrackPointExtension>
<tp1:hr>151</tp1:hr>
</tp1:TrackPointExtension>
</extensions>
</trkpt>
<trkpt lat="50.7081269" lon="6.9231100">
<ele>128.4733887</ele>
<time>2011-08-15T12:57:13Z</time>
<extensions>
<tp1:TrackPointExtension>
<tp1:hr>145</tp1:hr>
</tp1:TrackPointExtension>
</extensions>
</trkpt>
<trkpt lat="50.7086739" lon="6.9225728">
<ele>123.1861572</ele>
<time>2011-08-15T12:57:22Z</time>
<extensions>
<tp1:TrackPointExtension>
<tp1:hr>140</tp1:hr>
</tp1:TrackPointExtension>
</extensions>
</trkpt>
<trkpt lat="50.7092161" lon="6.9219572">
<ele>118.3793945</ele>
<time>2011-08-15T12:57:31Z</time>
<extensions>
<tp1:TrackPointExtension>
<tp1:hr>136</tp1:hr>
</tp1:TrackPointExtension>
</extensions>
</trkpt>
<trkpt lat="50.7096650" lon="6.9213569">
<ele>114.0535889</ele>
<time>2011-08-15T12:57:39Z</time>
<extensions>
<tp1:TrackPointExtension>
<tp1:hr>134</tp1:hr>
</tp1:TrackPointExtension>
</extensions>
</trkpt>
<trkpt lat="50.7101507" lon="6.9207435">
<ele>112.6115723</ele>
<time>2011-08-15T12:57:48Z</time>
<extensions>
<tp1:TrackPointExtension>
<tp1:hr>132</tp1:hr>
</tp1:TrackPointExtension>
</extensions>
</trkpt>
<trkpt lat="50.7106553" lon="6.9202454">
<ele>112.6115723</ele>
<time>2011-08-15T12:57:57Z</time>
<extensions>
<tp1:TrackPointExtension>
<tp1:hr>134</tp1:hr>
</tp1:TrackPointExtension>
</extensions>
</trkpt>
<trkpt lat="50.7111412" lon="6.9198950">
<ele>109.7276611</ele>
<time>2011-08-15T12:58:05Z</time>
<extensions>
<tp1:TrackPointExtension>
<tp1:hr>139</tp1:hr>
</tp1:TrackPointExtension>
</extensions>
</trkpt>
<trkpt lat="50.7116411" lon="6.9196060">
<ele>107.3243408</ele>
<time>2011-08-15T12:58:13Z</time>
<extensions>
<tp1:TrackPointExtension>
<tp1:hr>142</tp1:hr>
</tp1:TrackPointExtension>
</extensions>
</trkpt>
<trkpt lat="50.7119035" lon="6.9194601">
<ele>106.8436279</ele>
<time>2011-08-15T12:58:17Z</time>
<extensions>
<tp1:TrackPointExtension>
<tp1:hr>142</tp1:hr>
</tp1:TrackPointExtension>
</extensions>
</trkpt>
<trkpt lat="50.7124176" lon="6.9192176">
<ele>110.6888428</ele>
<time>2011-08-15T12:58:24Z</time>
<extensions>
<tp1:TrackPointExtension>
<tp1:hr>140</tp1:hr>
</tp1:TrackPointExtension>
</extensions>
</trkpt>
<trkpt lat="50.7124984" lon="6.9191869">
<ele>110.6888428</ele>
<time>2011-08-15T12:58:25Z</time>
<extensions>
<tp1:TrackPointExtension>
<tp1:hr>138</tp1:hr>
</tp1:TrackPointExtension>
</extensions>
</trkpt>
<trkpt lat="50.7129703" lon="6.9188556">
<ele>110.2082520</ele>
<time>2011-08-15T12:58:31Z</time>
<extensions>
<tp1:TrackPointExtension>
<tp1:hr>133</tp1:hr>
</tp1:TrackPointExtension>
</extensions>
</trkpt>
<trkpt lat="50.7132707" lon="6.9185256">
<ele>109.7276611</ele>
<time>2011-08-15T12:58:35Z</time>
<extensions>
<tp1:TrackPointExtension>
<tp1:hr>128</tp1:hr>
</tp1:TrackPointExtension>
</extensions>
</trkpt>
<trkpt lat="50.7136253" lon="6.9180910">
<ele>106.8436279</ele>
<time>2011-08-15T12:58:40Z</time>
<extensions>
<tp1:TrackPointExtension>
<tp1:hr>123</tp1:hr>
</tp1:TrackPointExtension>
</extensions>
</trkpt>
<trkpt lat="50.7137605" lon="6.9179124">
<ele>107.3243408</ele>
<time>2011-08-15T12:58:42Z</time>
<extensions>
<tp1:TrackPointExtension>
<tp1:hr>120</tp1:hr>
</tp1:TrackPointExtension>
</extensions>
</trkpt>
<trkpt lat="50.7139928" lon="6.9173782">
<ele>110.6888428</ele>
<time>2011-08-15T12:58:47Z</time>
<extensions>
<tp1:TrackPointExtension>
<tp1:hr>117</tp1:hr>
</tp1:TrackPointExtension>
</extensions>
</trkpt>
<trkpt lat="50.7140475" lon="6.9169072">
<ele>115.4956055</ele>
<time>2011-08-15T12:58:51Z</time>
<extensions>
<tp1:TrackPointExtension>
<tp1:hr>118</tp1:hr>
</tp1:TrackPointExtension>
</extensions>
</trkpt>
<trkpt lat="50.7140439" lon="6.9167855">
<ele>116.9375000</ele>
<time>2011-08-15T12:58:52Z</time>
<extensions>
<tp1:TrackPointExtension>
<tp1:hr>119</tp1:hr>
</tp1:TrackPointExtension>
</extensions>
</trkpt>
<trkpt lat="50.7139457" lon="6.9158789">
<ele>119.8214111</ele>
<time>2011-08-15T12:59:00Z</time>
<extensions>
<tp1:TrackPointExtension>
<tp1:hr>126</tp1:hr>
</tp1:TrackPointExtension>
</extensions>
</trkpt>
<trkpt lat="50.7138761" lon="6.9152295">
<ele>122.2247314</ele>
<time>2011-08-15T12:59:06Z</time>
<extensions>
<tp1:TrackPointExtension>
<tp1:hr>127</tp1:hr>
</tp1:TrackPointExtension>
</extensions>
</trkpt>
<trkpt lat="50.7137820" lon="6.9144815">
<ele>125.5893555</ele>
<time>2011-08-15T12:59:13Z</time>
<extensions>
<tp1:TrackPointExtension>
<tp1:hr>131</tp1:hr>
</tp1:TrackPointExtension>
</extensions>
</trkpt>
<trkpt lat="50.7137380" lon="6.9140399">
<ele>126.5506592</ele>
<time>2011-08-15T12:59:17Z</time>
<extensions>
<tp1:TrackPointExtension>
<tp1:hr>134</tp1:hr>
</tp1:TrackPointExtension>
</extensions>
</trkpt>
<trkpt lat="50.7138113" lon="6.9136195">
<ele>127.9925537</ele>
<time>2011-08-15T12:59:21Z</time>
<extensions>
<tp1:TrackPointExtension>
<tp1:hr>137</tp1:hr>
</tp1:TrackPointExtension>
</extensions>
</trkpt>
<trkpt lat="50.7139845" lon="6.9134352">
<ele>128.9541016</ele>
<time>2011-08-15T12:59:24Z</time>
<extensions>
<tp1:TrackPointExtension>
<tp1:hr>138</tp1:hr>
</tp1:TrackPointExtension>
</extensions>
</trkpt>
<trkpt lat="50.7140529" lon="6.9134030">
<ele>129.9152832</ele>
<time>2011-08-15T12:59:25Z</time>
<extensions>
<tp1:TrackPointExtension>
<tp1:hr>138</tp1:hr>
</tp1:TrackPointExtension>
</extensions>
</trkpt>
<trkpt lat="50.7146174" lon="6.9131989">
<ele>134.7219238</ele>
<time>2011-08-15T12:59:33Z</time>
<extensions>
<tp1:TrackPointExtension>
<tp1:hr>142</tp1:hr>
</tp1:TrackPointExtension>
</extensions>
</trkpt>
<trkpt lat="50.7149667" lon="6.9131657">
<ele>139.0478516</ele>
<time>2011-08-15T12:59:38Z</time>
<extensions>
<tp1:TrackPointExtension>
<tp1:hr>143</tp1:hr>
</tp1:TrackPointExtension>
</extensions>
</trkpt>
<trkpt lat="50.7152438" lon="6.9134376">
<ele>138.5672607</ele>
<time>2011-08-15T12:59:42Z</time>
<extensions>
<tp1:TrackPointExtension>
<tp1:hr>142</tp1:hr>
</tp1:TrackPointExtension>
</extensions>
</trkpt>
<trkpt lat="50.7156096" lon="6.9134192">
<ele>143.3736572</ele>
<time>2011-08-15T12:59:47Z</time>
<extensions>
<tp1:TrackPointExtension>
<tp1:hr>142</tp1:hr>
</tp1:TrackPointExtension>
</extensions>
</trkpt>
<trkpt lat="50.7160317" lon="6.9132575">
<ele>142.8930664</ele>
<time>2011-08-15T12:59:53Z</time>
<extensions>
<tp1:TrackPointExtension>
<tp1:hr>142</tp1:hr>
</tp1:TrackPointExtension>
</extensions>
</trkpt>
<trkpt lat="50.7165272" lon="6.9128157">
<ele>138.5672607</ele>
<time>2011-08-15T13:00:01Z</time>
<extensions>
<tp1:TrackPointExtension>
<tp1:hr>142</tp1:hr>
</tp1:TrackPointExtension>
</extensions>
</trkpt>
<trkpt lat="50.7170553" lon="6.9122279">
<ele>135.2025146</ele>
<time>2011-08-15T13:00:10Z</time>
<extensions>
<tp1:TrackPointExtension>
<tp1:hr>141</tp1:hr>
</tp1:TrackPointExtension>
</extensions>
</trkpt>
<trkpt lat="50.7171167" lon="6.9121773">
<ele>133.7604980</ele>
<time>2011-08-15T13:00:11Z</time>
<extensions>
<tp1:TrackPointExtension>
<tp1:hr>141</tp1:hr>
</tp1:TrackPointExtension>
</extensions>
</trkpt>
<trkpt lat="50.7175736" lon="6.9116848">
<ele>129.9152832</ele>
<time>2011-08-15T13:00:19Z</time>
<extensions>
<tp1:TrackPointExtension>
<tp1:hr>140</tp1:hr>
</tp1:TrackPointExtension>
</extensions>
</trkpt>
<trkpt lat="50.7176769" lon="6.9115407">
<ele>129.4346924</ele>
<time>2011-08-15T13:00:21Z</time>
<extensions>
<tp1:TrackPointExtension>
<tp1:hr>140</tp1:hr>
</tp1:TrackPointExtension>
</extensions>
</trkpt>
<trkpt lat="50.7179158" lon="6.9111522">
<ele>127.5119629</ele>
<time>2011-08-15T13:00:26Z</time>
<extensions>
<tp1:TrackPointExtension>
<tp1:hr>140</tp1:hr>
</tp1:TrackPointExtension>
</extensions>
</trkpt>
<trkpt lat="50.7183203" lon="6.9104054">
<ele>127.5119629</ele>
<time>2011-08-15T13:00:35Z</time>
<extensions>
<tp1:TrackPointExtension>
<tp1:hr>142</tp1:hr>
</tp1:TrackPointExtension>
</extensions>
</trkpt>
<trkpt lat="50.7186024" lon="6.9099368">
<ele>126.0699463</ele>
<time>2011-08-15T13:00:41Z</time>
<extensions>
<tp1:TrackPointExtension>
<tp1:hr>142</tp1:hr>
</tp1:TrackPointExtension>
</extensions>
</trkpt>
<trkpt lat="50.7190817" lon="6.9090826">
<ele>127.0313721</ele>
<time>2011-08-15T13:00:52Z</time>
<extensions>
<tp1:TrackPointExtension>
<tp1:hr>142</tp1:hr>
</tp1:TrackPointExtension>
</extensions>
</trkpt>
<trkpt lat="50.7193034" lon="6.9086959">
<ele>127.0313721</ele>
<time>2011-08-15T13:00:57Z</time>
<extensions>
<tp1:TrackPointExtension>
<tp1:hr>143</tp1:hr>
</tp1:TrackPointExtension>
</extensions>
</trkpt>
<trkpt lat="50.7197065" lon="6.9083047">
<ele>127.9925537</ele>
<time>2011-08-15T13:01:04Z</time>
<extensions>
<tp1:TrackPointExtension>
<tp1:hr>145</tp1:hr>
</tp1:TrackPointExtension>
</extensions>
</trkpt>
<trkpt lat="50.7202203" lon="6.9078130">
<ele>129.9152832</ele>
<time>2011-08-15T13:01:13Z</time>
<extensions>
<tp1:TrackPointExtension>
<tp1:hr>150</tp1:hr>
</tp1:TrackPointExtension>
</extensions>
</trkpt>
<trkpt lat="50.7205565" lon="6.9074885">
<ele>129.9152832</ele>
<time>2011-08-15T13:01:19Z</time>
<extensions>
<tp1:TrackPointExtension>
<tp1:hr>153</tp1:hr>
</tp1:TrackPointExtension>
</extensions>
</trkpt>
<trkpt lat="50.7208140" lon="6.9073750">
<ele>129.9152832</ele>
<time>2011-08-15T13:01:23Z</time>
<extensions>
<tp1:TrackPointExtension>
<tp1:hr>153</tp1:hr>
</tp1:TrackPointExtension>
</extensions>
</trkpt>
<trkpt lat="50.7212236" lon="6.9073355">
<ele>127.9925537</ele>
<time>2011-08-15T13:01:29Z</time>
<extensions>
<tp1:TrackPointExtension>
<tp1:hr>152</tp1:hr>
</tp1:TrackPointExtension>
</extensions>
</trkpt>
<trkpt lat="50.7214698" lon="6.9071390">
<ele>126.5506592</ele>
<time>2011-08-15T13:01:33Z</time>
<extensions>
<tp1:TrackPointExtension>
<tp1:hr>151</tp1:hr>
</tp1:TrackPointExtension>
</extensions>
</trkpt>
<trkpt lat="50.7216520" lon="6.9069401">
<ele>125.5893555</ele>
<time>2011-08-15T13:01:36Z</time>
<extensions>
<tp1:TrackPointExtension>
<tp1:hr>150</tp1:hr>
</tp1:TrackPointExtension>
</extensions>
</trkpt>
<trkpt lat="50.7221721" lon="6.9065651">
<ele>124.1473389</ele>
<time>2011-08-15T13:01:44Z</time>
<extensions>
<tp1:TrackPointExtension>
<tp1:hr>146</tp1:hr>
</tp1:TrackPointExtension>
</extensions>
</trkpt>
<trkpt lat="50.7224549" lon="6.9063285">
<ele>123.6667480</ele>
<time>2011-08-15T13:01:49Z</time>
<extensions>
<tp1:TrackPointExtension>
<tp1:hr>145</tp1:hr>
</tp1:TrackPointExtension>
</extensions>
</trkpt>
<trkpt lat="50.7230573" lon="6.9058271">
<ele>124.1473389</ele>
<time>2011-08-15T13:02:00Z</time>
<extensions>
<tp1:TrackPointExtension>
<tp1:hr>144</tp1:hr>
</tp1:TrackPointExtension>
</extensions>
</trkpt>
<trkpt lat="50.7236651" lon="6.9052661">
<ele>123.6667480</ele>
<time>2011-08-15T13:02:11Z</time>
<extensions>
<tp1:TrackPointExtension>
<tp1:hr>147</tp1:hr>
</tp1:TrackPointExtension>
</extensions>
</trkpt>
<trkpt lat="50.7241057" lon="6.9046824">
<ele>122.7054443</ele>
<time>2011-08-15T13:02:20Z</time>
<extensions>
<tp1:TrackPointExtension>
<tp1:hr>149</tp1:hr>
</tp1:TrackPointExtension>
</extensions>
</trkpt>
<trkpt lat="50.7245426" lon="6.9037640">
<ele>121.7441406</ele>
<time>2011-08-15T13:02:31Z</time>
<extensions>
<tp1:TrackPointExtension>
<tp1:hr>147</tp1:hr>
</tp1:TrackPointExtension>
</extensions>
</trkpt>
<trkpt lat="50.7249092" lon="6.9031664">
<ele>121.2635498</ele>
<time>2011-08-15T13:02:39Z</time>
<extensions>
<tp1:TrackPointExtension>
<tp1:hr>144</tp1:hr>
</tp1:TrackPointExtension>
</extensions>
</trkpt>
<trkpt lat="50.7254648" lon="6.9024140">
<ele>117.8988037</ele>
<time>2011-08-15T13:02:50Z</time>
<extensions>
<tp1:TrackPointExtension>
<tp1:hr>140</tp1:hr>
</tp1:TrackPointExtension>
</extensions>
</trkpt>
<trkpt lat="50.7261832" lon="6.9014536">
<ele>116.9375000</ele>
<time>2011-08-15T13:03:04Z</time>
<extensions>
<tp1:TrackPointExtension>
<tp1:hr>138</tp1:hr>
</tp1:TrackPointExtension>
</extensions>
</trkpt>
<trkpt lat="50.7267877" lon="6.9006470">
<ele>115.4956055</ele>
<time>2011-08-15T13:03:16Z</time>
<extensions>
<tp1:TrackPointExtension>
<tp1:hr>139</tp1:hr>
</tp1:TrackPointExtension>
</extensions>
</trkpt>
<trkpt lat="50.7273673" lon="6.8998705">
<ele>115.4956055</ele>
<time>2011-08-15T13:03:28Z</time>
<extensions>
<tp1:TrackPointExtension>
<tp1:hr>141</tp1:hr>
</tp1:TrackPointExtension>
</extensions>
</trkpt>
<trkpt lat="50.7280638" lon="6.8989453">
<ele>116.9375000</ele>
<time>2011-08-15T13:03:42Z</time>
<extensions>
<tp1:TrackPointExtension>
<tp1:hr>144</tp1:hr>
</tp1:TrackPointExtension>
</extensions>
</trkpt>
<trkpt lat="50.7285606" lon="6.8982910">
<ele>118.8601074</ele>
<time>2011-08-15T13:03:52Z</time>
<extensions>
<tp1:TrackPointExtension>
<tp1:hr>146</tp1:hr>
</tp1:TrackPointExtension>
</extensions>
</trkpt>
<trkpt lat="50.7291611" lon="6.8975341">
<ele>120.3021240</ele>
<time>2011-08-15T13:04:04Z</time>
<extensions>
<tp1:TrackPointExtension>
<tp1:hr>147</tp1:hr>
</tp1:TrackPointExtension>
</extensions>
</trkpt>
<trkpt lat="50.7297215" lon="6.8968693">
<ele>121.2635498</ele>
<time>2011-08-15T13:04:15Z</time>
<extensions>
<tp1:TrackPointExtension>
<tp1:hr>148</tp1:hr>
</tp1:TrackPointExtension>
</extensions>
</trkpt>
<trkpt lat="50.7303987" lon="6.8960464">
<ele>121.7441406</ele>
<time>2011-08-15T13:04:28Z</time>
<extensions>
<tp1:TrackPointExtension>
<tp1:hr>150</tp1:hr>
</tp1:TrackPointExtension>
</extensions>
</trkpt>
<trkpt lat="50.7309751" lon="6.8952990">
<ele>121.2635498</ele>
<time>2011-08-15T13:04:39Z</time>
<extensions>
<tp1:TrackPointExtension>
<tp1:hr>148</tp1:hr>
</tp1:TrackPointExtension>
</extensions>
</trkpt>
<trkpt lat="50.7313089" lon="6.8948418">
<ele>122.7054443</ele>
<time>2011-08-15T13:04:45Z</time>
<extensions>
<tp1:TrackPointExtension>
<tp1:hr>143</tp1:hr>
</tp1:TrackPointExtension>
</extensions>
</trkpt>
<trkpt lat="50.7318907" lon="6.8941220">
<ele>121.2635498</ele>
<time>2011-08-15T13:04:55Z</time>
<extensions>
<tp1:TrackPointExtension>
<tp1:hr>139</tp1:hr>
</tp1:TrackPointExtension>
</extensions>
</trkpt>
<trkpt lat="50.7324035" lon="6.8934775">
<ele>119.8214111</ele>
<time>2011-08-15T13:05:04Z</time>
<extensions>
<tp1:TrackPointExtension>
<tp1:hr>135</tp1:hr>
</tp1:TrackPointExtension>
</extensions>
</trkpt>
<trkpt lat="50.7328769" lon="6.8928250">
<ele>119.3408203</ele>
<time>2011-08-15T13:05:13Z</time>
<extensions>
<tp1:TrackPointExtension>
<tp1:hr>135</tp1:hr>
</tp1:TrackPointExtension>
</extensions>
</trkpt>
<trkpt lat="50.7335056" lon="6.8919683">
<ele>119.3408203</ele>
<time>2011-08-15T13:05:25Z</time>
<extensions>
<tp1:TrackPointExtension>
<tp1:hr>137</tp1:hr>
</tp1:TrackPointExtension>
</extensions>
</trkpt>
<trkpt lat="50.7340184" lon="6.8912398">
<ele>120.3021240</ele>
<time>2011-08-15T13:05:35Z</time>
<extensions>
<tp1:TrackPointExtension>
<tp1:hr>137</tp1:hr>
</tp1:TrackPointExtension>
</extensions>
</trkpt>
<trkpt lat="50.7344635" lon="6.8907176">
<ele>119.3408203</ele>
<time>2011-08-15T13:05:43Z</time>
<extensions>
<tp1:TrackPointExtension>
<tp1:hr>138</tp1:hr>
</tp1:TrackPointExtension>
</extensions>
</trkpt>
<trkpt lat="50.7350738" lon="6.8901671">
<ele>119.8214111</ele>
<time>2011-08-15T13:05:53Z</time>
<extensions>
<tp1:TrackPointExtension>
<tp1:hr>135</tp1:hr>
</tp1:TrackPointExtension>
</extensions>
</trkpt>
<trkpt lat="50.7355218" lon="6.8896491">
<ele>122.2247314</ele>
<time>2011-08-15T13:06:01Z</time>
<extensions>
<tp1:TrackPointExtension>
<tp1:hr>133</tp1:hr>
</tp1:TrackPointExtension>
</extensions>
</trkpt>
<trkpt lat="50.7358053" lon="6.8891696">
<ele>123.1861572</ele>
<time>2011-08-15T13:06:07Z</time>
<extensions>
<tp1:TrackPointExtension>
<tp1:hr>133</tp1:hr>
</tp1:TrackPointExtension>
</extensions>
</trkpt>
<trkpt lat="50.7359804" lon="6.8888430">
<ele>121.7441406</ele>
<time>2011-08-15T13:06:11Z</time>
<extensions>
<tp1:TrackPointExtension>
<tp1:hr>134</tp1:hr>
</tp1:TrackPointExtension>
</extensions>
</trkpt>
<trkpt lat="50.7361617" lon="6.8882784">
<ele>122.2247314</ele>
<time>2011-08-15T13:06:17Z</time>
<extensions>
<tp1:TrackPointExtension>
<tp1:hr>135</tp1:hr>
</tp1:TrackPointExtension>
</extensions>
</trkpt>
<trkpt lat="50.7363424" lon="6.8874761">
<ele>124.1473389</ele>
<time>2011-08-15T13:06:25Z</time>
<extensions>
<tp1:TrackPointExtension>
<tp1:hr>136</tp1:hr>
</tp1:TrackPointExtension>
</extensions>
</trkpt>
<trkpt lat="50.7365080" lon="6.8865612">
<ele>123.1861572</ele>
<time>2011-08-15T13:06:34Z</time>
<extensions>
<tp1:TrackPointExtension>
<tp1:hr>137</tp1:hr>
</tp1:TrackPointExtension>
</extensions>
</trkpt>
<trkpt lat="50.7366647" lon="6.8855354">
<ele>121.2635498</ele>
<time>2011-08-15T13:06:44Z</time>
<extensions>
<tp1:TrackPointExtension>
<tp1:hr>139</tp1:hr>
</tp1:TrackPointExtension>
</extensions>
</trkpt>
<trkpt lat="50.7368189" lon="6.8845037">
<ele>120.3021240</ele>
<time>2011-08-15T13:06:54Z</time>
<extensions>
<tp1:TrackPointExtension>
<tp1:hr>139</tp1:hr>
</tp1:TrackPointExtension>
</extensions>
</trkpt>
<trkpt lat="50.7370358" lon="6.8830357">
<ele>117.8988037</ele>
<time>2011-08-15T13:07:08Z</time>
<extensions>
<tp1:TrackPointExtension>
<tp1:hr>139</tp1:hr>
</tp1:TrackPointExtension>
</extensions>
</trkpt>
<trkpt lat="50.7371754" lon="6.8820892">
<ele>116.4567871</ele>
<time>2011-08-15T13:07:17Z</time>
<extensions>
<tp1:TrackPointExtension>
<tp1:hr>139</tp1:hr>
</tp1:TrackPointExtension>
</extensions>
</trkpt>
<trkpt lat="50.7373459" lon="6.8812600">
<ele>115.9761963</ele>
<time>2011-08-15T13:07:25Z</time>
<extensions>
<tp1:TrackPointExtension>
<tp1:hr>141</tp1:hr>
</tp1:TrackPointExtension>
</extensions>
</trkpt>
<trkpt lat="50.7376071" lon="6.8804908">
<ele>115.4956055</ele>
<time>2011-08-15T13:07:33Z</time>
<extensions>
<tp1:TrackPointExtension>
<tp1:hr>142</tp1:hr>
</tp1:TrackPointExtension>
</extensions>
</trkpt>
<trkpt lat="50.7379197" lon="6.8798995">
<ele>115.9761963</ele>
<time>2011-08-15T13:07:40Z</time>
<extensions>
<tp1:TrackPointExtension>
<tp1:hr>142</tp1:hr>
</tp1:TrackPointExtension>
</extensions>
</trkpt>
<trkpt lat="50.7385289" lon="6.8788482">
<ele>117.4182129</ele>
<time>2011-08-15T13:07:53Z</time>
<extensions>
<tp1:TrackPointExtension>
<tp1:hr>144</tp1:hr>
</tp1:TrackPointExtension>
</extensions>
</trkpt>
<trkpt lat="50.7391562" lon="6.8778500">
<ele>119.3408203</ele>
<time>2011-08-15T13:08:06Z</time>
<extensions>
<tp1:TrackPointExtension>
<tp1:hr>146</tp1:hr>
</tp1:TrackPointExtension>
</extensions>
</trkpt>
<trkpt lat="50.7397440" lon="6.8771044">
<ele>120.3021240</ele>
<time>2011-08-15T13:08:17Z</time>
<extensions>
<tp1:TrackPointExtension>
<tp1:hr>149</tp1:hr>
</tp1:TrackPointExtension>
</extensions>
</trkpt>
<trkpt lat="50.7404356" lon="6.8761877">
<ele>121.7441406</ele>
<time>2011-08-15T13:08:30Z</time>
<extensions>
<tp1:TrackPointExtension>
<tp1:hr>152</tp1:hr>
</tp1:TrackPointExtension>
</extensions>
</trkpt>
<trkpt lat="50.7411298" lon="6.8753039">
<ele>122.7054443</ele>
<time>2011-08-15T13:08:43Z</time>
<extensions>
<tp1:TrackPointExtension>
<tp1:hr>155</tp1:hr>
</tp1:TrackPointExtension>
</extensions>
</trkpt>
<trkpt lat="50.7417048" lon="6.8747074">
<ele>121.7441406</ele>
<time>2011-08-15T13:08:53Z</time>
<extensions>
<tp1:TrackPointExtension>
<tp1:hr>156</tp1:hr>
</tp1:TrackPointExtension>
</extensions>
</trkpt>
<trkpt lat="50.7422984" lon="6.8741983">
<ele>121.2635498</ele>
<time>2011-08-15T13:09:03Z</time>
<extensions>
<tp1:TrackPointExtension>
<tp1:hr>156</tp1:hr>
</tp1:TrackPointExtension>
</extensions>
</trkpt>
<trkpt lat="50.7429751" lon="6.8735519">
<ele>122.2247314</ele>
<time>2011-08-15T13:09:15Z</time>
<extensions>
<tp1:TrackPointExtension>
<tp1:hr>153</tp1:hr>
</tp1:TrackPointExtension>
</extensions>
</trkpt>
<trkpt lat="50.7434318" lon="6.8729498">
<ele>122.7054443</ele>
<time>2011-08-15T13:09:24Z</time>
<extensions>
<tp1:TrackPointExtension>
<tp1:hr>153</tp1:hr>
</tp1:TrackPointExtension>
</extensions>
</trkpt>
<trkpt lat="50.7439592" lon="6.8721378">
<ele>122.2247314</ele>
<time>2011-08-15T13:09:35Z</time>
<extensions>
<tp1:TrackPointExtension>
<tp1:hr>152</tp1:hr>
</tp1:TrackPointExtension>
</extensions>
</trkpt>
<trkpt lat="50.7444606" lon="6.8713383">
<ele>122.7054443</ele>
<time>2011-08-15T13:09:46Z</time>
<extensions>
<tp1:TrackPointExtension>
<tp1:hr>151</tp1:hr>
</tp1:TrackPointExtension>
</extensions>
</trkpt>
<trkpt lat="50.7451017" lon="6.8701631">
<ele>122.7054443</ele>
<time>2011-08-15T13:10:01Z</time>
<extensions>
<tp1:TrackPointExtension>
<tp1:hr>148</tp1:hr>
</tp1:TrackPointExtension>
</extensions>
</trkpt>
<trkpt lat="50.7455226" lon="6.8693193">
<ele>122.2247314</ele>
<time>2011-08-15T13:10:11Z</time>
<extensions>
<tp1:TrackPointExtension>
<tp1:hr>148</tp1:hr>
</tp1:TrackPointExtension>
</extensions>
</trkpt>
<trkpt lat="50.7459478" lon="6.8683449">
<ele>122.2247314</ele>
<time>2011-08-15T13:10:22Z</time>
<extensions>
<tp1:TrackPointExtension>
<tp1:hr>151</tp1:hr>
</tp1:TrackPointExtension>
</extensions>
</trkpt>
<trkpt lat="50.7463432" lon="6.8672970">
<ele>120.7828369</ele>
<time>2011-08-15T13:10:33Z</time>
<extensions>
<tp1:TrackPointExtension>
<tp1:hr>150</tp1:hr>
</tp1:TrackPointExtension>
</extensions>
</trkpt>
<trkpt lat="50.7467570" lon="6.8661200">
<ele>119.3408203</ele>
<time>2011-08-15T13:10:45Z</time>
<extensions>
<tp1:TrackPointExtension>
<tp1:hr>145</tp1:hr>
</tp1:TrackPointExtension>
</extensions>
</trkpt>
<trkpt lat="50.7471315" lon="6.8649958">
<ele>118.3793945</ele>
<time>2011-08-15T13:10:56Z</time>
<extensions>
<tp1:TrackPointExtension>
<tp1:hr>141</tp1:hr>
</tp1:TrackPointExtension>
</extensions>
</trkpt>
<trkpt lat="50.7474541" lon="6.8640613">
<ele>116.9375000</ele>
<time>2011-08-15T13:11:05Z</time>
<extensions>
<tp1:TrackPointExtension>
<tp1:hr>138</tp1:hr>
</tp1:TrackPointExtension>
</extensions>
</trkpt>
<trkpt lat="50.7478364" lon="6.8629079">
<ele>115.9761963</ele>
<time>2011-08-15T13:11:16Z</time>
<extensions>
<tp1:TrackPointExtension>
<tp1:hr>135</tp1:hr>
</tp1:TrackPointExtension>
</extensions>
</trkpt>
<trkpt lat="50.7481785" lon="6.8618492">
<ele>116.9375000</ele>
<time>2011-08-15T13:11:26Z</time>
<extensions>
<tp1:TrackPointExtension>
<tp1:hr>135</tp1:hr>
</tp1:TrackPointExtension>
</extensions>
</trkpt>
<trkpt lat="50.7485342" lon="6.8606737">
<ele>116.9375000</ele>
<time>2011-08-15T13:11:37Z</time>
<extensions>
<tp1:TrackPointExtension>
<tp1:hr>135</tp1:hr>
</tp1:TrackPointExtension>
</extensions>
</trkpt>
<trkpt lat="50.7487762" lon="6.8597102">
<ele>116.9375000</ele>
<time>2011-08-15T13:11:46Z</time>
<extensions>
<tp1:TrackPointExtension>
<tp1:hr>138</tp1:hr>
</tp1:TrackPointExtension>
</extensions>
</trkpt>
<trkpt lat="50.7489444" lon="6.8587624">
<ele>117.4182129</ele>
<time>2011-08-15T13:11:55Z</time>
<extensions>
<tp1:TrackPointExtension>
<tp1:hr>140</tp1:hr>
</tp1:TrackPointExtension>
</extensions>
</trkpt>
<trkpt lat="50.7489578" lon="6.8586622">
<ele>117.4182129</ele>
<time>2011-08-15T13:11:56Z</time>
<extensions>
<tp1:TrackPointExtension>
<tp1:hr>140</tp1:hr>
</tp1:TrackPointExtension>
</extensions>
</trkpt>
<trkpt lat="50.7490837" lon="6.8583214">
<ele>117.4182129</ele>
<time>2011-08-15T13:12:00Z</time>
<extensions>
<tp1:TrackPointExtension>
<tp1:hr>142</tp1:hr>
</tp1:TrackPointExtension>
</extensions>
</trkpt>
<trkpt lat="50.7490886" lon="6.8580235">
<ele>117.4182129</ele>
<time>2011-08-15T13:12:03Z</time>
<extensions>
<tp1:TrackPointExtension>
<tp1:hr>143</tp1:hr>
</tp1:TrackPointExtension>
</extensions>
</trkpt>
<trkpt lat="50.7490782" lon="6.8573072">
<ele>116.9375000</ele>
<time>2011-08-15T13:12:10Z</time>
<extensions>
<tp1:TrackPointExtension>
<tp1:hr>148</tp1:hr>
</tp1:TrackPointExtension>
</extensions>
</trkpt>
<trkpt lat="50.7490786" lon="6.8561300">
<ele>114.5341797</ele>
<time>2011-08-15T13:12:22Z</time>
<extensions>
<tp1:TrackPointExtension>
<tp1:hr>151</tp1:hr>
</tp1:TrackPointExtension>
</extensions>
</trkpt>
<trkpt lat="50.7490108" lon="6.8550124">
<ele>114.0535889</ele>
<time>2011-08-15T13:12:33Z</time>
<extensions>
<tp1:TrackPointExtension>
<tp1:hr>152</tp1:hr>
</tp1:TrackPointExtension>
</extensions>
</trkpt>
<trkpt lat="50.7488545" lon="6.8537960">
<ele>115.4956055</ele>
<time>2011-08-15T13:12:45Z</time>
<extensions>
<tp1:TrackPointExtension>
<tp1:hr>153</tp1:hr>
</tp1:TrackPointExtension>
</extensions>
</trkpt>
<trkpt lat="50.7486606" lon="6.8525037">
<ele>117.4182129</ele>
<time>2011-08-15T13:12:58Z</time>
<extensions>
<tp1:TrackPointExtension>
<tp1:hr>153</tp1:hr>
</tp1:TrackPointExtension>
</extensions>
</trkpt>
<trkpt lat="50.7485564" lon="6.8517042">
<ele>117.8988037</ele>
<time>2011-08-15T13:13:06Z</time>
<extensions>
<tp1:TrackPointExtension>
<tp1:hr>153</tp1:hr>
</tp1:TrackPointExtension>
</extensions>
</trkpt>
<trkpt lat="50.7485234" lon="6.8514167">
<ele>118.3793945</ele>
<time>2011-08-15T13:13:09Z</time>
<extensions>
<tp1:TrackPointExtension>
<tp1:hr>153</tp1:hr>
</tp1:TrackPointExtension>
</extensions>
</trkpt>
<trkpt lat="50.7485596" lon="6.8510428">
<ele>118.8601074</ele>
<time>2011-08-15T13:13:13Z</time>
<extensions>
<tp1:TrackPointExtension>
<tp1:hr>153</tp1:hr>
</tp1:TrackPointExtension>
</extensions>
</trkpt>
<trkpt lat="50.7484677" lon="6.8507973">
<ele>118.8601074</ele>
<time>2011-08-15T13:13:16Z</time>
<extensions>
<tp1:TrackPointExtension>
<tp1:hr>154</tp1:hr>
</tp1:TrackPointExtension>
</extensions>
</trkpt>
<trkpt lat="50.7483779" lon="6.8505462">
<ele>118.8601074</ele>
<time>2011-08-15T13:13:19Z</time>
<extensions>
<tp1:TrackPointExtension>
<tp1:hr>154</tp1:hr>
</tp1:TrackPointExtension>
</extensions>
</trkpt>
<trkpt lat="50.7482553" lon="6.8494975">
<ele>119.3408203</ele>
<time>2011-08-15T13:13:30Z</time>
<extensions>
<tp1:TrackPointExtension>
<tp1:hr>155</tp1:hr>
</tp1:TrackPointExtension>
</extensions>
</trkpt>
<trkpt lat="50.7481623" lon="6.8487262">
<ele>118.3793945</ele>
<time>2011-08-15T13:13:38Z</time>
<extensions>
<tp1:TrackPointExtension>
<tp1:hr>152</tp1:hr>
</tp1:TrackPointExtension>
</extensions>
</trkpt>
<trkpt lat="50.7481219" lon="6.8480480">
<ele>116.9375000</ele>
<time>2011-08-15T13:13:44Z</time>
<extensions>
<tp1:TrackPointExtension>
<tp1:hr>149</tp1:hr>
</tp1:TrackPointExtension>
</extensions>
</trkpt>
<trkpt lat="50.7480585" lon="6.8471529">
<ele>114.0535889</ele>
<time>2011-08-15T13:13:52Z</time>
<extensions>
<tp1:TrackPointExtension>
<tp1:hr>144</tp1:hr>
</tp1:TrackPointExtension>
</extensions>
</trkpt>
<trkpt lat="50.7479850" lon="6.8459151">
<ele>110.6888428</ele>
<time>2011-08-15T13:14:03Z</time>
<extensions>
<tp1:TrackPointExtension>
<tp1:hr>142</tp1:hr>
</tp1:TrackPointExtension>
</extensions>
</trkpt>
<trkpt lat="50.7479466" lon="6.8449857">
<ele>109.2469482</ele>
<time>2011-08-15T13:14:11Z</time>
<extensions>
<tp1:TrackPointExtension>
<tp1:hr>139</tp1:hr>
</tp1:TrackPointExtension>
</extensions>
</trkpt>
<trkpt lat="50.7479251" lon="6.8441840">
<ele>107.3243408</ele>
<time>2011-08-15T13:14:18Z</time>
<extensions>
<tp1:TrackPointExtension>
<tp1:hr>136</tp1:hr>
</tp1:TrackPointExtension>
</extensions>
</trkpt>
<trkpt lat="50.7479084" lon="6.8432739">
<ele>104.9210205</ele>
<time>2011-08-15T13:14:26Z</time>
<extensions>
<tp1:TrackPointExtension>
<tp1:hr>136</tp1:hr>
</tp1:TrackPointExtension>
</extensions>
</trkpt>
<trkpt lat="50.7478902" lon="6.8420754">
<ele>107.8050537</ele>
<time>2011-08-15T13:14:37Z</time>
<extensions>
<tp1:TrackPointExtension>
<tp1:hr>139</tp1:hr>
</tp1:TrackPointExtension>
</extensions>
</trkpt>
<trkpt lat="50.7478899" lon="6.8408950">
<ele>110.2082520</ele>
<time>2011-08-15T13:14:48Z</time>
<extensions>
<tp1:TrackPointExtension>
<tp1:hr>141</tp1:hr>
</tp1:TrackPointExtension>
</extensions>
</trkpt>
<trkpt lat="50.7478923" lon="6.8406909">
<ele>111.1695557</ele>
<time>2011-08-15T13:14:50Z</time>
<extensions>
<tp1:TrackPointExtension>
<tp1:hr>141</tp1:hr>
</tp1:TrackPointExtension>
</extensions>
</trkpt>
<trkpt lat="50.7478953" lon="6.8397477">
<ele>112.1309814</ele>
<time>2011-08-15T13:14:59Z</time>
<extensions>
<tp1:TrackPointExtension>
<tp1:hr>144</tp1:hr>
</tp1:TrackPointExtension>
</extensions>
</trkpt>
<trkpt lat="50.7479302" lon="6.8385620">
<ele>113.5729980</ele>
<time>2011-08-15T13:15:10Z</time>
<extensions>
<tp1:TrackPointExtension>
<tp1:hr>149</tp1:hr>
</tp1:TrackPointExtension>
</extensions>
</trkpt>
<trkpt lat="50.7479627" lon="6.8374135">
<ele>114.0535889</ele>
<time>2011-08-15T13:15:21Z</time>
<extensions>
<tp1:TrackPointExtension>
<tp1:hr>151</tp1:hr>
</tp1:TrackPointExtension>
</extensions>
</trkpt>
<trkpt lat="50.7479878" lon="6.8368038">
<ele>114.0535889</ele>
<time>2011-08-15T13:15:27Z</time>
<extensions>
<tp1:TrackPointExtension>
<tp1:hr>151</tp1:hr>
</tp1:TrackPointExtension>
</extensions>
</trkpt>
<trkpt lat="50.7480567" lon="6.8355539">
<ele>115.0148926</ele>
<time>2011-08-15T13:15:39Z</time>
<extensions>
<tp1:TrackPointExtension>
<tp1:hr>151</tp1:hr>
</tp1:TrackPointExtension>
</extensions>
</trkpt>
<trkpt lat="50.7481518" lon="6.8340830">
<ele>115.9761963</ele>
<time>2011-08-15T13:15:53Z</time>
<extensions>
<tp1:TrackPointExtension>
<tp1:hr>152</tp1:hr>
</tp1:TrackPointExtension>
</extensions>
</trkpt>
<trkpt lat="50.7482556" lon="6.8328181">
<ele>116.9375000</ele>
<time>2011-08-15T13:16:05Z</time>
<extensions>
<tp1:TrackPointExtension>
<tp1:hr>153</tp1:hr>
</tp1:TrackPointExtension>
</extensions>
</trkpt>
<trkpt lat="50.7483403" lon="6.8318874">
<ele>117.8988037</ele>
<time>2011-08-15T13:16:14Z</time>
<extensions>
<tp1:TrackPointExtension>
<tp1:hr>153</tp1:hr>
</tp1:TrackPointExtension>
</extensions>
</trkpt>
<trkpt lat="50.7484322" lon="6.8309757">
<ele>117.8988037</ele>
<time>2011-08-15T13:16:23Z</time>
<extensions>
<tp1:TrackPointExtension>
<tp1:hr>153</tp1:hr>
</tp1:TrackPointExtension>
</extensions>
</trkpt>
<trkpt lat="50.7485591" lon="6.8298138">
<ele>118.8601074</ele>
<time>2011-08-15T13:16:35Z</time>
<extensions>
<tp1:TrackPointExtension>
<tp1:hr>154</tp1:hr>
</tp1:TrackPointExtension>
</extensions>
</trkpt>
<trkpt lat="50.7486865" lon="6.8287439">
<ele>119.8214111</ele>
<time>2011-08-15T13:16:46Z</time>
<extensions>
<tp1:TrackPointExtension>
<tp1:hr>155</tp1:hr>
</tp1:TrackPointExtension>
</extensions>
</trkpt>
<trkpt lat="50.7488026" lon="6.8278738">
<ele>119.8214111</ele>
<time>2011-08-15T13:16:55Z</time>
<extensions>
<tp1:TrackPointExtension>
<tp1:hr>153</tp1:hr>
</tp1:TrackPointExtension>
</extensions>
</trkpt>
<trkpt lat="50.7488454" lon="6.8276242">
<ele>120.3021240</ele>
<time>2011-08-15T13:16:58Z</time>
<extensions>
<tp1:TrackPointExtension>
<tp1:hr>152</tp1:hr>
</tp1:TrackPointExtension>
</extensions>
</trkpt>
<trkpt lat="50.7489845" lon="6.8273021">
<ele>120.7828369</ele>
<time>2011-08-15T13:17:03Z</time>
<extensions>
<tp1:TrackPointExtension>
<tp1:hr>149</tp1:hr>
</tp1:TrackPointExtension>
</extensions>
</trkpt>
<trkpt lat="50.7489612" lon="6.8270343">
<ele>120.7828369</ele>
<time>2011-08-15T13:17:06Z</time>
<extensions>
<tp1:TrackPointExtension>
<tp1:hr>149</tp1:hr>
</tp1:TrackPointExtension>
</extensions>
</trkpt>
<trkpt lat="50.7488324" lon="6.8270112">
<ele>120.7828369</ele>
<time>2011-08-15T13:17:08Z</time>
<extensions>
<tp1:TrackPointExtension>
<tp1:hr>149</tp1:hr>
</tp1:TrackPointExtension>
</extensions>
</trkpt>
<trkpt lat="50.7485632" lon="6.8270620">
<ele>120.7828369</ele>
<time>2011-08-15T13:17:12Z</time>
<extensions>
<tp1:TrackPointExtension>
<tp1:hr>150</tp1:hr>
</tp1:TrackPointExtension>
</extensions>
</trkpt>
<trkpt lat="50.7484936" lon="6.8270471">
<ele>120.7828369</ele>
<time>2011-08-15T13:17:13Z</time>
<extensions>
<tp1:TrackPointExtension>
<tp1:hr>150</tp1:hr>
</tp1:TrackPointExtension>
</extensions>
</trkpt>
<trkpt lat="50.7476900" lon="6.8267529">
<ele>117.4182129</ele>
<time>2011-08-15T13:17:25Z</time>
<extensions>
<tp1:TrackPointExtension>
<tp1:hr>148</tp1:hr>
</tp1:TrackPointExtension>
</extensions>
</trkpt>
<trkpt lat="50.7469149" lon="6.8263906">
<ele>115.0148926</ele>
<time>2011-08-15T13:17:37Z</time>
<extensions>
<tp1:TrackPointExtension>
<tp1:hr>146</tp1:hr>
</tp1:TrackPointExtension>
</extensions>
</trkpt>
<trkpt lat="50.7462945" lon="6.8259829">
<ele>114.0535889</ele>
<time>2011-08-15T13:17:47Z</time>
<extensions>
<tp1:TrackPointExtension>
<tp1:hr>143</tp1:hr>
</tp1:TrackPointExtension>
</extensions>
</trkpt>
<trkpt lat="50.7455018" lon="6.8253575">
<ele>115.0148926</ele>
<time>2011-08-15T13:18:00Z</time>
<extensions>
<tp1:TrackPointExtension>
<tp1:hr>141</tp1:hr>
</tp1:TrackPointExtension>
</extensions>
</trkpt>
<trkpt lat="50.7447942" lon="6.8247393">
<ele>116.9375000</ele>
<time>2011-08-15T13:18:12Z</time>
<extensions>
<tp1:TrackPointExtension>
<tp1:hr>142</tp1:hr>
</tp1:TrackPointExtension>
</extensions>
</trkpt>
<trkpt lat="50.7441613" lon="6.8241509">
<ele>117.8988037</ele>
<time>2011-08-15T13:18:23Z</time>
<extensions>
<tp1:TrackPointExtension>
<tp1:hr>143</tp1:hr>
</tp1:TrackPointExtension>
</extensions>
</trkpt>
<trkpt lat="50.7434441" lon="6.8234520">
<ele>115.4956055</ele>
<time>2011-08-15T13:18:36Z</time>
<extensions>
<tp1:TrackPointExtension>
<tp1:hr>140</tp1:hr>
</tp1:TrackPointExtension>
</extensions>
</trkpt>
<trkpt lat="50.7428278" lon="6.8228906">
<ele>116.4567871</ele>
<time>2011-08-15T13:18:47Z</time>
<extensions>
<tp1:TrackPointExtension>
<tp1:hr>140</tp1:hr>
</tp1:TrackPointExtension>
</extensions>
</trkpt>
<trkpt lat="50.7420455" lon="6.8221562">
<ele>117.8988037</ele>
<time>2011-08-15T13:19:01Z</time>
<extensions>
<tp1:TrackPointExtension>
<tp1:hr>144</tp1:hr>
</tp1:TrackPointExtension>
</extensions>
</trkpt>
<trkpt lat="50.7414773" lon="6.8216338">
<ele>118.3793945</ele>
<time>2011-08-15T13:19:11Z</time>
<extensions>
<tp1:TrackPointExtension>
<tp1:hr>145</tp1:hr>
</tp1:TrackPointExtension>
</extensions>
</trkpt>
<trkpt lat="50.7407036" lon="6.8209614">
<ele>119.3408203</ele>
<time>2011-08-15T13:19:24Z</time>
<extensions>
<tp1:TrackPointExtension>
<tp1:hr>149</tp1:hr>
</tp1:TrackPointExtension>
</extensions>
</trkpt>
<trkpt lat="50.7400177" lon="6.8203275">
<ele>118.3793945</ele>
<time>2011-08-15T13:19:36Z</time>
<extensions>
<tp1:TrackPointExtension>
<tp1:hr>150</tp1:hr>
</tp1:TrackPointExtension>
</extensions>
</trkpt>
<trkpt lat="50.7395160" lon="6.8198442">
<ele>114.0535889</ele>
<time>2011-08-15T13:19:45Z</time>
<extensions>
<tp1:TrackPointExtension>
<tp1:hr>150</tp1:hr>
</tp1:TrackPointExtension>
</extensions>
</trkpt>
<trkpt lat="50.7391256" lon="6.8194726">
<ele>111.6502686</ele>
<time>2011-08-15T13:19:52Z</time>
<extensions>
<tp1:TrackPointExtension>
<tp1:hr>150</tp1:hr>
</tp1:TrackPointExtension>
</extensions>
</trkpt>
<trkpt lat="50.7386040" lon="6.8189927">
<ele>111.1695557</ele>
<time>2011-08-15T13:20:01Z</time>
<extensions>
<tp1:TrackPointExtension>
<tp1:hr>149</tp1:hr>
</tp1:TrackPointExtension>
</extensions>
</trkpt>
<trkpt lat="50.7380907" lon="6.8185082">
<ele>110.2082520</ele>
<time>2011-08-15T13:20:10Z</time>
<extensions>
<tp1:TrackPointExtension>
<tp1:hr>149</tp1:hr>
</tp1:TrackPointExtension>
</extensions>
</trkpt>
<trkpt lat="50.7375301" lon="6.8179933">
<ele>114.5341797</ele>
<time>2011-08-15T13:20:20Z</time>
<extensions>
<tp1:TrackPointExtension>
<tp1:hr>149</tp1:hr>
</tp1:TrackPointExtension>
</extensions>
</trkpt>
<trkpt lat="50.7369060" lon="6.8174269">
<ele>120.3021240</ele>
<time>2011-08-15T13:20:31Z</time>
<extensions>
<tp1:TrackPointExtension>
<tp1:hr>149</tp1:hr>
</tp1:TrackPointExtension>
</extensions>
</trkpt>
<trkpt lat="50.7363787" lon="6.8169691">
<ele>118.8601074</ele>
<time>2011-08-15T13:20:40Z</time>
<extensions>
<tp1:TrackPointExtension>
<tp1:hr>150</tp1:hr>
</tp1:TrackPointExtension>
</extensions>
</trkpt>
<trkpt lat="50.7358718" lon="6.8166418">
<ele>116.4567871</ele>
<time>2011-08-15T13:20:48Z</time>
<extensions>
<tp1:TrackPointExtension>
<tp1:hr>152</tp1:hr>
</tp1:TrackPointExtension>
</extensions>
</trkpt>
<trkpt lat="50.7353328" lon="6.8164575">
<ele>115.0148926</ele>
<time>2011-08-15T13:20:56Z</time>
<extensions>
<tp1:TrackPointExtension>
<tp1:hr>153</tp1:hr>
</tp1:TrackPointExtension>
</extensions>
</trkpt>
<trkpt lat="50.7348525" lon="6.8164225">
<ele>115.9761963</ele>
<time>2011-08-15T13:21:03Z</time>
<extensions>
<tp1:TrackPointExtension>
<tp1:hr>152</tp1:hr>
</tp1:TrackPointExtension>
</extensions>
</trkpt>
<trkpt lat="50.7341569" lon="6.8164845">
<ele>116.9375000</ele>
<time>2011-08-15T13:21:13Z</time>
<extensions>
<tp1:TrackPointExtension>
<tp1:hr>149</tp1:hr>
</tp1:TrackPointExtension>
</extensions>
</trkpt>
<trkpt lat="50.7337036" lon="6.8165719">
<ele>116.4567871</ele>
<time>2011-08-15T13:21:19Z</time>
<extensions>
<tp1:TrackPointExtension>
<tp1:hr>143</tp1:hr>
</tp1:TrackPointExtension>
</extensions>
</trkpt>
<trkpt lat="50.7330390" lon="6.8166665">
<ele>115.0148926</ele>
<time>2011-08-15T13:21:27Z</time>
<extensions>
<tp1:TrackPointExtension>
<tp1:hr>138</tp1:hr>
</tp1:TrackPointExtension>
</extensions>
</trkpt>
<trkpt lat="50.7326189" lon="6.8165995">
<ele>115.9761963</ele>
<time>2011-08-15T13:21:32Z</time>
<extensions>
<tp1:TrackPointExtension>
<tp1:hr>133</tp1:hr>
</tp1:TrackPointExtension>
</extensions>
</trkpt>
<trkpt lat="50.7320782" lon="6.8163787">
<ele>115.0148926</ele>
<time>2011-08-15T13:21:39Z</time>
<extensions>
<tp1:TrackPointExtension>
<tp1:hr>131</tp1:hr>
</tp1:TrackPointExtension>
</extensions>
</trkpt>
<trkpt lat="50.7315247" lon="6.8160922">
<ele>119.3408203</ele>
<time>2011-08-15T13:21:47Z</time>
<extensions>
<tp1:TrackPointExtension>
<tp1:hr>131</tp1:hr>
</tp1:TrackPointExtension>
</extensions>
</trkpt>
<trkpt lat="50.7310529" lon="6.8158011">
<ele>124.1473389</ele>
<time>2011-08-15T13:21:54Z</time>
<extensions>
<tp1:TrackPointExtension>
<tp1:hr>133</tp1:hr>
</tp1:TrackPointExtension>
</extensions>
</trkpt>
<trkpt lat="50.7305360" lon="6.8153696">
<ele>126.5506592</ele>
<time>2011-08-15T13:22:02Z</time>
<extensions>
<tp1:TrackPointExtension>
<tp1:hr>137</tp1:hr>
</tp1:TrackPointExtension>
</extensions>
</trkpt>
<trkpt lat="50.7301143" lon="6.8148941">
<ele>125.5893555</ele>
<time>2011-08-15T13:22:09Z</time>
<extensions>
<tp1:TrackPointExtension>
<tp1:hr>142</tp1:hr>
</tp1:TrackPointExtension>
</extensions>
</trkpt>
<trkpt lat="50.7296656" lon="6.8143042">
<ele>125.5893555</ele>
<time>2011-08-15T13:22:17Z</time>
<extensions>
<tp1:TrackPointExtension>
<tp1:hr>147</tp1:hr>
</tp1:TrackPointExtension>
</extensions>
</trkpt>
<trkpt lat="50.7291309" lon="6.8136613">
<ele>126.5506592</ele>
<time>2011-08-15T13:22:26Z</time>
<extensions>
<tp1:TrackPointExtension>
<tp1:hr>151</tp1:hr>
</tp1:TrackPointExtension>
</extensions>
</trkpt>
<trkpt lat="50.7287773" lon="6.8133058">
<ele>126.0699463</ele>
<time>2011-08-15T13:22:32Z</time>
<extensions>
<tp1:TrackPointExtension>
<tp1:hr>152</tp1:hr>
</tp1:TrackPointExtension>
</extensions>
</trkpt>
<trkpt lat="50.7282754" lon="6.8128826">
<ele>124.1473389</ele>
<time>2011-08-15T13:22:40Z</time>
<extensions>
<tp1:TrackPointExtension>
<tp1:hr>152</tp1:hr>
</tp1:TrackPointExtension>
</extensions>
</trkpt>
<trkpt lat="50.7277076" lon="6.8124194">
<ele>126.0699463</ele>
<time>2011-08-15T13:22:49Z</time>
<extensions>
<tp1:TrackPointExtension>
<tp1:hr>151</tp1:hr>
</tp1:TrackPointExtension>
</extensions>
</trkpt>
<trkpt lat="50.7270107" lon="6.8118127">
<ele>123.6667480</ele>
<time>2011-08-15T13:23:00Z</time>
<extensions>
<tp1:TrackPointExtension>
<tp1:hr>150</tp1:hr>
</tp1:TrackPointExtension>
</extensions>
</trkpt>
<trkpt lat="50.7263333" lon="6.8111924">
<ele>122.7054443</ele>
<time>2011-08-15T13:23:11Z</time>
<extensions>
<tp1:TrackPointExtension>
<tp1:hr>150</tp1:hr>
</tp1:TrackPointExtension>
</extensions>
</trkpt>
<trkpt lat="50.7257305" lon="6.8106298">
<ele>122.7054443</ele>
<time>2011-08-15T13:23:21Z</time>
<extensions>
<tp1:TrackPointExtension>
<tp1:hr>149</tp1:hr>
</tp1:TrackPointExtension>
</extensions>
</trkpt>
<trkpt lat="50.7251449" lon="6.8100511">
<ele>121.7441406</ele>
<time>2011-08-15T13:23:31Z</time>
<extensions>
<tp1:TrackPointExtension>
<tp1:hr>150</tp1:hr>
</tp1:TrackPointExtension>
</extensions>
</trkpt>
<trkpt lat="50.7244909" lon="6.8094078">
<ele>124.1473389</ele>
<time>2011-08-15T13:23:42Z</time>
<extensions>
<tp1:TrackPointExtension>
<tp1:hr>150</tp1:hr>
</tp1:TrackPointExtension>
</extensions>
</trkpt>
<trkpt lat="50.7239879" lon="6.8089157">
<ele>121.7441406</ele>
<time>2011-08-15T13:23:50Z</time>
<extensions>
<tp1:TrackPointExtension>
<tp1:hr>150</tp1:hr>
</tp1:TrackPointExtension>
</extensions>
</trkpt>
<trkpt lat="50.7234553" lon="6.8084281">
<ele>120.7828369</ele>
<time>2011-08-15T13:23:58Z</time>
<extensions>
<tp1:TrackPointExtension>
<tp1:hr>147</tp1:hr>
</tp1:TrackPointExtension>
</extensions>
</trkpt>
<trkpt lat="50.7230422" lon="6.8080657">
<ele>120.7828369</ele>
<time>2011-08-15T13:24:04Z</time>
<extensions>
<tp1:TrackPointExtension>
<tp1:hr>143</tp1:hr>
</tp1:TrackPointExtension>
</extensions>
</trkpt>
<trkpt lat="50.7226152" lon="6.8077153">
<ele>127.0313721</ele>
<time>2011-08-15T13:24:10Z</time>
<extensions>
<tp1:TrackPointExtension>
<tp1:hr>141</tp1:hr>
</tp1:TrackPointExtension>
</extensions>
</trkpt>
<trkpt lat="50.7220899" lon="6.8072791">
<ele>132.7993164</ele>
<time>2011-08-15T13:24:18Z</time>
<extensions>
<tp1:TrackPointExtension>
<tp1:hr>140</tp1:hr>
</tp1:TrackPointExtension>
</extensions>
</trkpt>
<trkpt lat="50.7217012" lon="6.8069411">
<ele>137.1252441</ele>
<time>2011-08-15T13:24:24Z</time>
<extensions>
<tp1:TrackPointExtension>
<tp1:hr>142</tp1:hr>
</tp1:TrackPointExtension>
</extensions>
</trkpt>
<trkpt lat="50.7213320" lon="6.8065857">
<ele>133.7604980</ele>
<time>2011-08-15T13:24:30Z</time>
<extensions>
<tp1:TrackPointExtension>
<tp1:hr>144</tp1:hr>
</tp1:TrackPointExtension>
</extensions>
</trkpt>
<trkpt lat="50.7205787" lon="6.8058672">
<ele>128.9541016</ele>
<time>2011-08-15T13:24:42Z</time>
<extensions>
<tp1:TrackPointExtension>
<tp1:hr>147</tp1:hr>
</tp1:TrackPointExtension>
</extensions>
</trkpt>
<trkpt lat="50.7197614" lon="6.8050973">
<ele>127.5119629</ele>
<time>2011-08-15T13:24:55Z</time>
<extensions>
<tp1:TrackPointExtension>
<tp1:hr>151</tp1:hr>
</tp1:TrackPointExtension>
</extensions>
</trkpt>
<trkpt lat="50.7191817" lon="6.8045701">
<ele>127.5119629</ele>
<time>2011-08-15T13:25:04Z</time>
<extensions>
<tp1:TrackPointExtension>
<tp1:hr>152</tp1:hr>
</tp1:TrackPointExtension>
</extensions>
</trkpt>
<trkpt lat="50.7184099" lon="6.8038802">
<ele>132.3186035</ele>
<time>2011-08-15T13:25:16Z</time>
<extensions>
<tp1:TrackPointExtension>
<tp1:hr>152</tp1:hr>
</tp1:TrackPointExtension>
</extensions>
</trkpt>
<trkpt lat="50.7177727" lon="6.8033315">
<ele>133.2799072</ele>
<time>2011-08-15T13:25:26Z</time>
<extensions>
<tp1:TrackPointExtension>
<tp1:hr>153</tp1:hr>
</tp1:TrackPointExtension>
</extensions>
</trkpt>
<trkpt lat="50.7171981" lon="6.8028617">
<ele>134.7219238</ele>
<time>2011-08-15T13:25:35Z</time>
<extensions>
<tp1:TrackPointExtension>
<tp1:hr>153</tp1:hr>
</tp1:TrackPointExtension>
</extensions>
</trkpt>
<trkpt lat="50.7167242" lon="6.8024914">
<ele>132.3186035</ele>
<time>2011-08-15T13:25:43Z</time>
<extensions>
<tp1:TrackPointExtension>
<tp1:hr>154</tp1:hr>
</tp1:TrackPointExtension>
</extensions>
</trkpt>
<trkpt lat="50.7161613" lon="6.8020262">
<ele>131.3572998</ele>
<time>2011-08-15T13:25:52Z</time>
<extensions>
<tp1:TrackPointExtension>
<tp1:hr>155</tp1:hr>
</tp1:TrackPointExtension>
</extensions>
</trkpt>
<trkpt lat="50.7156499" lon="6.8016103">
<ele>131.3572998</ele>
<time>2011-08-15T13:26:00Z</time>
<extensions>
<tp1:TrackPointExtension>
<tp1:hr>154</tp1:hr>
</tp1:TrackPointExtension>
</extensions>
</trkpt>
<trkpt lat="50.7151827" lon="6.8011507">
<ele>129.9152832</ele>
<time>2011-08-15T13:26:08Z</time>
<extensions>
<tp1:TrackPointExtension>
<tp1:hr>154</tp1:hr>
</tp1:TrackPointExtension>
</extensions>
</trkpt>
<trkpt lat="50.7146703" lon="6.8007586">
<ele>129.4346924</ele>
<time>2011-08-15T13:26:16Z</time>
<extensions>
<tp1:TrackPointExtension>
<tp1:hr>154</tp1:hr>
</tp1:TrackPointExtension>
</extensions>
</trkpt>
<trkpt lat="50.7145352" lon="6.8006848">
<ele>128.9541016</ele>
<time>2011-08-15T13:26:18Z</time>
<extensions>
<tp1:TrackPointExtension>
<tp1:hr>154</tp1:hr>
</tp1:TrackPointExtension>
</extensions>
</trkpt>
<trkpt lat="50.7141041" lon="6.8003426">
<ele>127.5119629</ele>
<time>2011-08-15T13:26:25Z</time>
<extensions>
<tp1:TrackPointExtension>
<tp1:hr>154</tp1:hr>
</tp1:TrackPointExtension>
</extensions>
</trkpt>
<trkpt lat="50.7135436" lon="6.7998272">
<ele>127.0313721</ele>
<time>2011-08-15T13:26:34Z</time>
<extensions>
<tp1:TrackPointExtension>
<tp1:hr>154</tp1:hr>
</tp1:TrackPointExtension>
</extensions>
</trkpt>
<trkpt lat="50.7131509" lon="6.7994826">
<ele>127.0313721</ele>
<time>2011-08-15T13:26:40Z</time>
<extensions>
<tp1:TrackPointExtension>
<tp1:hr>149</tp1:hr>
</tp1:TrackPointExtension>
</extensions>
</trkpt>
<trkpt lat="50.7126386" lon="6.7990161">
<ele>127.5119629</ele>
<time>2011-08-15T13:26:48Z</time>
<extensions>
<tp1:TrackPointExtension>
<tp1:hr>148</tp1:hr>
</tp1:TrackPointExtension>
</extensions>
</trkpt>
<trkpt lat="50.7123039" lon="6.7986454">
<ele>127.0313721</ele>
<time>2011-08-15T13:26:54Z</time>
<extensions>
<tp1:TrackPointExtension>
<tp1:hr>148</tp1:hr>
</tp1:TrackPointExtension>
</extensions>
</trkpt>
<trkpt lat="50.7117870" lon="6.7982082">
<ele>125.5893555</ele>
<time>2011-08-15T13:27:02Z</time>
<extensions>
<tp1:TrackPointExtension>
<tp1:hr>148</tp1:hr>
</tp1:TrackPointExtension>
</extensions>
</trkpt>
<trkpt lat="50.7113251" lon="6.7978444">
<ele>125.5893555</ele>
<time>2011-08-15T13:27:09Z</time>
<extensions>
<tp1:TrackPointExtension>
<tp1:hr>145</tp1:hr>
</tp1:TrackPointExtension>
</extensions>
</trkpt>
<trkpt lat="50.7110874" lon="6.7975231">
<ele>126.0699463</ele>
<time>2011-08-15T13:27:14Z</time>
<extensions>
<tp1:TrackPointExtension>
<tp1:hr>140</tp1:hr>
</tp1:TrackPointExtension>
</extensions>
</trkpt>
<trkpt lat="50.7109708" lon="6.7973527">
<ele>127.9925537</ele>
<time>2011-08-15T13:27:18Z</time>
<extensions>
<tp1:TrackPointExtension>
<tp1:hr>136</tp1:hr>
</tp1:TrackPointExtension>
</extensions>
</trkpt>
<trkpt lat="50.7108620" lon="6.7973668">
<ele>130.3959961</ele>
<time>2011-08-15T13:27:22Z</time>
<extensions>
<tp1:TrackPointExtension>
<tp1:hr>134</tp1:hr>
</tp1:TrackPointExtension>
</extensions>
</trkpt>
<trkpt lat="50.7108406" lon="6.7974096">
<ele>130.3959961</ele>
<time>2011-08-15T13:27:23Z</time>
<extensions>
<tp1:TrackPointExtension>
<tp1:hr>134</tp1:hr>
</tp1:TrackPointExtension>
</extensions>
</trkpt>
<trkpt lat="50.7106359" lon="6.7978511">
<ele>131.3572998</ele>
<time>2011-08-15T13:27:29Z</time>
<extensions>
<tp1:TrackPointExtension>
<tp1:hr>136</tp1:hr>
</tp1:TrackPointExtension>
</extensions>
</trkpt>
<trkpt lat="50.7102937" lon="6.7985364">
<ele>132.7993164</ele>
<time>2011-08-15T13:27:37Z</time>
<extensions>
<tp1:TrackPointExtension>
<tp1:hr>138</tp1:hr>
</tp1:TrackPointExtension>
</extensions>
</trkpt>
<trkpt lat="50.7100351" lon="6.7989953">
<ele>132.3186035</ele>
<time>2011-08-15T13:27:43Z</time>
<extensions>
<tp1:TrackPointExtension>
<tp1:hr>134</tp1:hr>
</tp1:TrackPointExtension>
</extensions>
</trkpt>
<trkpt lat="50.7097788" lon="6.7990678">
<ele>133.2799072</ele>
<time>2011-08-15T13:27:47Z</time>
<extensions>
<tp1:TrackPointExtension>
<tp1:hr>132</tp1:hr>
</tp1:TrackPointExtension>
</extensions>
</trkpt>
<trkpt lat="50.7096623" lon="6.7990062">
<ele>134.7219238</ele>
<time>2011-08-15T13:27:49Z</time>
<extensions>
<tp1:TrackPointExtension>
<tp1:hr>134</tp1:hr>
</tp1:TrackPointExtension>
</extensions>
</trkpt>
<trkpt lat="50.7094937" lon="6.7988737">
<ele>133.7604980</ele>
<time>2011-08-15T13:27:52Z</time>
<extensions>
<tp1:TrackPointExtension>
<tp1:hr>134</tp1:hr>
</tp1:TrackPointExtension>
</extensions>
</trkpt>
<trkpt lat="50.7092624" lon="6.7985843">
<ele>132.7993164</ele>
<time>2011-08-15T13:27:57Z</time>
<extensions>
<tp1:TrackPointExtension>
<tp1:hr>138</tp1:hr>
</tp1:TrackPointExtension>
</extensions>
</trkpt>
<trkpt lat="50.7091795" lon="6.7984638">
<ele>134.2412109</ele>
<time>2011-08-15T13:27:59Z</time>
<extensions>
<tp1:TrackPointExtension>
<tp1:hr>138</tp1:hr>
</tp1:TrackPointExtension>
</extensions>
</trkpt>
<trkpt lat="50.7091204" lon="6.7983203">
<ele>134.7219238</ele>
<time>2011-08-15T13:28:01Z</time>
<extensions>
<tp1:TrackPointExtension>
<tp1:hr>138</tp1:hr>
</tp1:TrackPointExtension>
</extensions>
</trkpt>
<trkpt lat="50.7090495" lon="6.7981105">
<ele>136.6446533</ele>
<time>2011-08-15T13:28:04Z</time>
<extensions>
<tp1:TrackPointExtension>
<tp1:hr>138</tp1:hr>
</tp1:TrackPointExtension>
</extensions>
</trkpt>
<trkpt lat="50.7090147" lon="6.7977516">
<ele>137.6058350</ele>
<time>2011-08-15T13:28:08Z</time>
<extensions>
<tp1:TrackPointExtension>
<tp1:hr>141</tp1:hr>
</tp1:TrackPointExtension>
</extensions>
</trkpt>
<trkpt lat="50.7090065" lon="6.7975678">
<ele>138.0865479</ele>
<time>2011-08-15T13:28:10Z</time>
<extensions>
<tp1:TrackPointExtension>
<tp1:hr>144</tp1:hr>
</tp1:TrackPointExtension>
</extensions>
</trkpt>
<trkpt lat="50.7090183" lon="6.7973169">
<ele>143.3736572</ele>
<time>2011-08-15T13:28:13Z</time>
<extensions>
<tp1:TrackPointExtension>
<tp1:hr>149</tp1:hr>
</tp1:TrackPointExtension>
</extensions>
</trkpt>
<trkpt lat="50.7089281" lon="6.7968911">
<ele>142.4124756</ele>
<time>2011-08-15T13:28:18Z</time>
<extensions>
<tp1:TrackPointExtension>
<tp1:hr>153</tp1:hr>
</tp1:TrackPointExtension>
</extensions>
</trkpt>
<trkpt lat="50.7087920" lon="6.7967337">
<ele>141.9317627</ele>
<time>2011-08-15T13:28:21Z</time>
<extensions>
<tp1:TrackPointExtension>
<tp1:hr>156</tp1:hr>
</tp1:TrackPointExtension>
</extensions>
</trkpt>
<trkpt lat="50.7083512" lon="6.7965021">
<ele>140.0091553</ele>
<time>2011-08-15T13:28:29Z</time>
<extensions>
<tp1:TrackPointExtension>
<tp1:hr>162</tp1:hr>
</tp1:TrackPointExtension>
</extensions>
</trkpt>
<trkpt lat="50.7080492" lon="6.7963162">
<ele>137.6058350</ele>
<time>2011-08-15T13:28:35Z</time>
<extensions>
<tp1:TrackPointExtension>
<tp1:hr>163</tp1:hr>
</tp1:TrackPointExtension>
</extensions>
</trkpt>
<trkpt lat="50.7077871" lon="6.7961409">
<ele>137.1252441</ele>
<time>2011-08-15T13:28:40Z</time>
<extensions>
<tp1:TrackPointExtension>
<tp1:hr>164</tp1:hr>
</tp1:TrackPointExtension>
</extensions>
</trkpt>
<trkpt lat="50.7073984" lon="6.7959136">
<ele>137.6058350</ele>
<time>2011-08-15T13:28:47Z</time>
<extensions>
<tp1:TrackPointExtension>
<tp1:hr>164</tp1:hr>
</tp1:TrackPointExtension>
</extensions>
</trkpt>
<trkpt lat="50.7069664" lon="6.7958363">
<ele>140.4898682</ele>
<time>2011-08-15T13:28:54Z</time>
<extensions>
<tp1:TrackPointExtension>
<tp1:hr>165</tp1:hr>
</tp1:TrackPointExtension>
</extensions>
</trkpt>
<trkpt lat="50.7065687" lon="6.7958800">
<ele>140.9704590</ele>
<time>2011-08-15T13:29:00Z</time>
<extensions>
<tp1:TrackPointExtension>
<tp1:hr>164</tp1:hr>
</tp1:TrackPointExtension>
</extensions>
</trkpt>
<trkpt lat="50.7061160" lon="6.7960984">
<ele>143.8543701</ele>
<time>2011-08-15T13:29:07Z</time>
<extensions>
<tp1:TrackPointExtension>
<tp1:hr>159</tp1:hr>
</tp1:TrackPointExtension>
</extensions>
</trkpt>
<trkpt lat="50.7056876" lon="6.7962346">
<ele>144.3352051</ele>
<time>2011-08-15T13:29:12Z</time>
<extensions>
<tp1:TrackPointExtension>
<tp1:hr>153</tp1:hr>
</tp1:TrackPointExtension>
</extensions>
</trkpt>
<trkpt lat="50.7052409" lon="6.7964159">
<ele>141.9317627</ele>
<time>2011-08-15T13:29:17Z</time>
<extensions>
<tp1:TrackPointExtension>
<tp1:hr>148</tp1:hr>
</tp1:TrackPointExtension>
</extensions>
</trkpt>
<trkpt lat="50.7047552" lon="6.7965777">
<ele>139.0478516</ele>
<time>2011-08-15T13:29:22Z</time>
<extensions>
<tp1:TrackPointExtension>
<tp1:hr>141</tp1:hr>
</tp1:TrackPointExtension>
</extensions>
</trkpt>
<trkpt lat="50.7043633" lon="6.7966586">
<ele>137.6058350</ele>
<time>2011-08-15T13:29:26Z</time>
<extensions>
<tp1:TrackPointExtension>
<tp1:hr>135</tp1:hr>
</tp1:TrackPointExtension>
</extensions>
</trkpt>
<trkpt lat="50.7037077" lon="6.7967320">
<ele>136.1639404</ele>
<time>2011-08-15T13:29:33Z</time>
<extensions>
<tp1:TrackPointExtension>
<tp1:hr>132</tp1:hr>
</tp1:TrackPointExtension>
</extensions>
</trkpt>
<trkpt lat="50.7032752" lon="6.7968879">
<ele>135.6831055</ele>
<time>2011-08-15T13:29:38Z</time>
<extensions>
<tp1:TrackPointExtension>
<tp1:hr>130</tp1:hr>
</tp1:TrackPointExtension>
</extensions>
</trkpt>
<trkpt lat="50.7027169" lon="6.7972288">
<ele>134.7219238</ele>
<time>2011-08-15T13:29:45Z</time>
<extensions>
<tp1:TrackPointExtension>
<tp1:hr>130</tp1:hr>
</tp1:TrackPointExtension>
</extensions>
</trkpt>
<trkpt lat="50.7018460" lon="6.7977571">
<ele>133.2799072</ele>
<time>2011-08-15T13:29:56Z</time>
<extensions>
<tp1:TrackPointExtension>
<tp1:hr>135</tp1:hr>
</tp1:TrackPointExtension>
</extensions>
</trkpt>
<trkpt lat="50.7011321" lon="6.7981011">
<ele>133.2799072</ele>
<time>2011-08-15T13:30:05Z</time>
<extensions>
<tp1:TrackPointExtension>
<tp1:hr>138</tp1:hr>
</tp1:TrackPointExtension>
</extensions>
</trkpt>
<trkpt lat="50.7007248" lon="6.7980620">
<ele>132.7993164</ele>
<time>2011-08-15T13:30:10Z</time>
<extensions>
<tp1:TrackPointExtension>
<tp1:hr>140</tp1:hr>
</tp1:TrackPointExtension>
</extensions>
</trkpt>
<trkpt lat="50.7003286" lon="6.7979332">
<ele>132.7993164</ele>
<time>2011-08-15T13:30:15Z</time>
<extensions>
<tp1:TrackPointExtension>
<tp1:hr>141</tp1:hr>
</tp1:TrackPointExtension>
</extensions>
</trkpt>
<trkpt lat="50.6999325" lon="6.7980171">
<ele>133.2799072</ele>
<time>2011-08-15T13:30:20Z</time>
<extensions>
<tp1:TrackPointExtension>
<tp1:hr>142</tp1:hr>
</tp1:TrackPointExtension>
</extensions>
</trkpt>
<trkpt lat="50.6993438" lon="6.7984025">
<ele>132.7993164</ele>
<time>2011-08-15T13:30:28Z</time>
<extensions>
<tp1:TrackPointExtension>
<tp1:hr>142</tp1:hr>
</tp1:TrackPointExtension>
</extensions>
</trkpt>
<trkpt lat="50.6991228" lon="6.7985558">
<ele>132.7993164</ele>
<time>2011-08-15T13:30:31Z</time>
<extensions>
<tp1:TrackPointExtension>
<tp1:hr>142</tp1:hr>
</tp1:TrackPointExtension>
</extensions>
</trkpt>
<trkpt lat="50.6988317" lon="6.7989890">
<ele>133.2799072</ele>
<time>2011-08-15T13:30:36Z</time>
<extensions>
<tp1:TrackPointExtension>
<tp1:hr>142</tp1:hr>
</tp1:TrackPointExtension>
</extensions>
</trkpt>
<trkpt lat="50.6985285" lon="6.7991645">
<ele>134.2412109</ele>
<time>2011-08-15T13:30:40Z</time>
<extensions>
<tp1:TrackPointExtension>
<tp1:hr>144</tp1:hr>
</tp1:TrackPointExtension>
</extensions>
</trkpt>
<trkpt lat="50.6979638" lon="6.7990829">
<ele>135.6831055</ele>
<time>2011-08-15T13:30:47Z</time>
<extensions>
<tp1:TrackPointExtension>
<tp1:hr>146</tp1:hr>
</tp1:TrackPointExtension>
</extensions>
</trkpt>
<trkpt lat="50.6975648" lon="6.7992123">
<ele>136.1639404</ele>
<time>2011-08-15T13:30:52Z</time>
<extensions>
<tp1:TrackPointExtension>
<tp1:hr>148</tp1:hr>
</tp1:TrackPointExtension>
</extensions>
</trkpt>
<trkpt lat="50.6970257" lon="6.7994210">
<ele>137.6058350</ele>
<time>2011-08-15T13:30:59Z</time>
<extensions>
<tp1:TrackPointExtension>
<tp1:hr>149</tp1:hr>
</tp1:TrackPointExtension>
</extensions>
</trkpt>
<trkpt lat="50.6965748" lon="6.7996551">
<ele>137.6058350</ele>
<time>2011-08-15T13:31:05Z</time>
<extensions>
<tp1:TrackPointExtension>
<tp1:hr>149</tp1:hr>
</tp1:TrackPointExtension>
</extensions>
</trkpt>
<trkpt lat="50.6960982" lon="6.7998185">
<ele>137.6058350</ele>
<time>2011-08-15T13:31:11Z</time>
<extensions>
<tp1:TrackPointExtension>
<tp1:hr>150</tp1:hr>
</tp1:TrackPointExtension>
</extensions>
</trkpt>
<trkpt lat="50.6954724" lon="6.8000123">
<ele>138.5672607</ele>
<time>2011-08-15T13:31:19Z</time>
<extensions>
<tp1:TrackPointExtension>
<tp1:hr>155</tp1:hr>
</tp1:TrackPointExtension>
</extensions>
</trkpt>
<trkpt lat="50.6948648" lon="6.8001260">
<ele>139.5284424</ele>
<time>2011-08-15T13:31:27Z</time>
<extensions>
<tp1:TrackPointExtension>
<tp1:hr>157</tp1:hr>
</tp1:TrackPointExtension>
</extensions>
</trkpt>
<trkpt lat="50.6947885" lon="6.8001101">
<ele>139.5284424</ele>
<time>2011-08-15T13:31:28Z</time>
<extensions>
<tp1:TrackPointExtension>
<tp1:hr>157</tp1:hr>
</tp1:TrackPointExtension>
</extensions>
</trkpt>
<trkpt lat="50.6941420" lon="6.7997845">
<ele>140.9704590</ele>
<time>2011-08-15T13:31:37Z</time>
<extensions>
<tp1:TrackPointExtension>
<tp1:hr>157</tp1:hr>
</tp1:TrackPointExtension>
</extensions>
</trkpt>
<trkpt lat="50.6932155" lon="6.7992829">
<ele>142.4124756</ele>
<time>2011-08-15T13:31:50Z</time>
<extensions>
<tp1:TrackPointExtension>
<tp1:hr>155</tp1:hr>
</tp1:TrackPointExtension>
</extensions>
</trkpt>
<trkpt lat="50.6922835" lon="6.7987719">
<ele>143.8543701</ele>
<time>2011-08-15T13:32:03Z</time>
<extensions>
<tp1:TrackPointExtension>
<tp1:hr>154</tp1:hr>
</tp1:TrackPointExtension>
</extensions>
</trkpt>
<trkpt lat="50.6912610" lon="6.7982386">
<ele>145.7770996</ele>
<time>2011-08-15T13:32:17Z</time>
<extensions>
<tp1:TrackPointExtension>
<tp1:hr>155</tp1:hr>
</tp1:TrackPointExtension>
</extensions>
</trkpt>
<trkpt lat="50.6905980" lon="6.7980100">
<ele>146.2578125</ele>
<time>2011-08-15T13:32:26Z</time>
<extensions>
<tp1:TrackPointExtension>
<tp1:hr>155</tp1:hr>
</tp1:TrackPointExtension>
</extensions>
</trkpt>
<trkpt lat="50.6898640" lon="6.7979291">
<ele>147.2189941</ele>
<time>2011-08-15T13:32:36Z</time>
<extensions>
<tp1:TrackPointExtension>
<tp1:hr>156</tp1:hr>
</tp1:TrackPointExtension>
</extensions>
</trkpt>
<trkpt lat="50.6888117" lon="6.7979138">
<ele>149.1416016</ele>
<time>2011-08-15T13:32:50Z</time>
<extensions>
<tp1:TrackPointExtension>
<tp1:hr>160</tp1:hr>
</tp1:TrackPointExtension>
</extensions>
</trkpt>
<trkpt lat="50.6881396" lon="6.7977613">
<ele>150.5836182</ele>
<time>2011-08-15T13:32:59Z</time>
<extensions>
<tp1:TrackPointExtension>
<tp1:hr>162</tp1:hr>
</tp1:TrackPointExtension>
</extensions>
</trkpt>
<trkpt lat="50.6872727" lon="6.7974480">
<ele>152.0257568</ele>
<time>2011-08-15T13:33:11Z</time>
<extensions>
<tp1:TrackPointExtension>
<tp1:hr>164</tp1:hr>
</tp1:TrackPointExtension>
</extensions>
</trkpt>
<trkpt lat="50.6864887" lon="6.7971025">
<ele>151.5449219</ele>
<time>2011-08-15T13:33:22Z</time>
<extensions>
<tp1:TrackPointExtension>
<tp1:hr>165</tp1:hr>
</tp1:TrackPointExtension>
</extensions>
</trkpt>
<trkpt lat="50.6857521" lon="6.7967250">
<ele>151.0642090</ele>
<time>2011-08-15T13:33:33Z</time>
<extensions>
<tp1:TrackPointExtension>
<tp1:hr>165</tp1:hr>
</tp1:TrackPointExtension>
</extensions>
</trkpt>
<trkpt lat="50.6851335" lon="6.7963799">
<ele>151.5449219</ele>
<time>2011-08-15T13:33:43Z</time>
<extensions>
<tp1:TrackPointExtension>
<tp1:hr>162</tp1:hr>
</tp1:TrackPointExtension>
</extensions>
</trkpt>
<trkpt lat="50.6845403" lon="6.7960428">
<ele>150.5836182</ele>
<time>2011-08-15T13:33:53Z</time>
<extensions>
<tp1:TrackPointExtension>
<tp1:hr>159</tp1:hr>
</tp1:TrackPointExtension>
</extensions>
</trkpt>
<trkpt lat="50.6839136" lon="6.7956957">
<ele>149.6223145</ele>
<time>2011-08-15T13:34:03Z</time>
<extensions>
<tp1:TrackPointExtension>
<tp1:hr>154</tp1:hr>
</tp1:TrackPointExtension>
</extensions>
</trkpt>
<trkpt lat="50.6833753" lon="6.7954033">
<ele>148.6610107</ele>
<time>2011-08-15T13:34:11Z</time>
<extensions>
<tp1:TrackPointExtension>
<tp1:hr>149</tp1:hr>
</tp1:TrackPointExtension>
</extensions>
</trkpt>
<trkpt lat="50.6828271" lon="6.7950929">
<ele>147.6997070</ele>
<time>2011-08-15T13:34:19Z</time>
<extensions>
<tp1:TrackPointExtension>
<tp1:hr>144</tp1:hr>
</tp1:TrackPointExtension>
</extensions>
</trkpt>
<trkpt lat="50.6822470" lon="6.7947963">
<ele>149.1416016</ele>
<time>2011-08-15T13:34:28Z</time>
<extensions>
<tp1:TrackPointExtension>
<tp1:hr>143</tp1:hr>
</tp1:TrackPointExtension>
</extensions>
</trkpt>
<trkpt lat="50.6816792" lon="6.7944941">
<ele>152.5063477</ele>
<time>2011-08-15T13:34:37Z</time>
<extensions>
<tp1:TrackPointExtension>
<tp1:hr>143</tp1:hr>
</tp1:TrackPointExtension>
</extensions>
</trkpt>
<trkpt lat="50.6810422" lon="6.7941867">
<ele>154.9095459</ele>
<time>2011-08-15T13:34:47Z</time>
<extensions>
<tp1:TrackPointExtension>
<tp1:hr>144</tp1:hr>
</tp1:TrackPointExtension>
</extensions>
</trkpt>
<trkpt lat="50.6809842" lon="6.7941544">
<ele>155.3902588</ele>
<time>2011-08-15T13:34:48Z</time>
<extensions>
<tp1:TrackPointExtension>
<tp1:hr>145</tp1:hr>
</tp1:TrackPointExtension>
</extensions>
</trkpt>
<trkpt lat="50.6808118" lon="6.7941742">
<ele>154.4289551</ele>
<time>2011-08-15T13:34:51Z</time>
<extensions>
<tp1:TrackPointExtension>
<tp1:hr>144</tp1:hr>
</tp1:TrackPointExtension>
</extensions>
</trkpt>
<trkpt lat="50.6807733" lon="6.7943408">
<ele>153.4676514</ele>
<time>2011-08-15T13:34:53Z</time>
<extensions>
<tp1:TrackPointExtension>
<tp1:hr>143</tp1:hr>
</tp1:TrackPointExtension>
</extensions>
</trkpt>
<trkpt lat="50.6807706" lon="6.7944398">
<ele>153.4676514</ele>
<time>2011-08-15T13:34:54Z</time>
<extensions>
<tp1:TrackPointExtension>
<tp1:hr>144</tp1:hr>
</tp1:TrackPointExtension>
</extensions>
</trkpt>
<trkpt lat="50.6807610" lon="6.7954903">
<ele>148.6610107</ele>
<time>2011-08-15T13:35:04Z</time>
<extensions>
<tp1:TrackPointExtension>
<tp1:hr>139</tp1:hr>
</tp1:TrackPointExtension>
</extensions>
</trkpt>
<trkpt lat="50.6807331" lon="6.7962702">
<ele>145.7770996</ele>
<time>2011-08-15T13:35:11Z</time>
<extensions>
<tp1:TrackPointExtension>
<tp1:hr>134</tp1:hr>
</tp1:TrackPointExtension>
</extensions>
</trkpt>
<trkpt lat="50.6807240" lon="6.7966057">
<ele>144.3352051</ele>
<time>2011-08-15T13:35:14Z</time>
<extensions>
<tp1:TrackPointExtension>
<tp1:hr>129</tp1:hr>
</tp1:TrackPointExtension>
</extensions>
</trkpt>
<trkpt lat="50.6806837" lon="6.7975212">
<ele>141.4510498</ele>
<time>2011-08-15T13:35:22Z</time>
<extensions>
<tp1:TrackPointExtension>
<tp1:hr>125</tp1:hr>
</tp1:TrackPointExtension>
</extensions>
</trkpt>
<trkpt lat="50.6806190" lon="6.7988972">
<ele>142.8930664</ele>
<time>2011-08-15T13:35:34Z</time>
<extensions>
<tp1:TrackPointExtension>
<tp1:hr>128</tp1:hr>
</tp1:TrackPointExtension>
</extensions>
</trkpt>
<trkpt lat="50.6805621" lon="6.8002502">
<ele>142.8930664</ele>
<time>2011-08-15T13:35:46Z</time>
<extensions>
<tp1:TrackPointExtension>
<tp1:hr>131</tp1:hr>
</tp1:TrackPointExtension>
</extensions>
</trkpt>
<trkpt lat="50.6804921" lon="6.8017584">
<ele>146.2578125</ele>
<time>2011-08-15T13:35:59Z</time>
<extensions>
<tp1:TrackPointExtension>
<tp1:hr>133</tp1:hr>
</tp1:TrackPointExtension>
</extensions>
</trkpt>
<trkpt lat="50.6804331" lon="6.8032360">
<ele>145.7770996</ele>
<time>2011-08-15T13:36:12Z</time>
<extensions>
<tp1:TrackPointExtension>
<tp1:hr>135</tp1:hr>
</tp1:TrackPointExtension>
</extensions>
</trkpt>
<trkpt lat="50.6803912" lon="6.8044769">
<ele>143.8543701</ele>
<time>2011-08-15T13:36:23Z</time>
<extensions>
<tp1:TrackPointExtension>
<tp1:hr>136</tp1:hr>
</tp1:TrackPointExtension>
</extensions>
</trkpt>
<trkpt lat="50.6803372" lon="6.8059376">
<ele>141.9317627</ele>
<time>2011-08-15T13:36:36Z</time>
<extensions>
<tp1:TrackPointExtension>
<tp1:hr>139</tp1:hr>
</tp1:TrackPointExtension>
</extensions>
</trkpt>
<trkpt lat="50.6802932" lon="6.8070634">
<ele>141.4510498</ele>
<time>2011-08-15T13:36:46Z</time>
<extensions>
<tp1:TrackPointExtension>
<tp1:hr>144</tp1:hr>
</tp1:TrackPointExtension>
</extensions>
</trkpt>
<trkpt lat="50.6802087" lon="6.8083661">
<ele>141.4510498</ele>
<time>2011-08-15T13:36:58Z</time>
<extensions>
<tp1:TrackPointExtension>
<tp1:hr>144</tp1:hr>
</tp1:TrackPointExtension>
</extensions>
</trkpt>
<trkpt lat="50.6801569" lon="6.8090388">
<ele>144.3352051</ele>
<time>2011-08-15T13:37:05Z</time>
<extensions>
<tp1:TrackPointExtension>
<tp1:hr>139</tp1:hr>
</tp1:TrackPointExtension>
</extensions>
</trkpt>
<trkpt lat="50.6801086" lon="6.8095274">
<ele>147.2189941</ele>
<time>2011-08-15T13:37:11Z</time>
<extensions>
<tp1:TrackPointExtension>
<tp1:hr>135</tp1:hr>
</tp1:TrackPointExtension>
</extensions>
</trkpt>
<trkpt lat="50.6800812" lon="6.8097372">
<ele>148.1804199</ele>
<time>2011-08-15T13:37:15Z</time>
<extensions>
<tp1:TrackPointExtension>
<tp1:hr>130</tp1:hr>
</tp1:TrackPointExtension>
</extensions>
</trkpt>
<trkpt lat="50.6800681" lon="6.8098327">
<ele>149.6223145</ele>
<time>2011-08-15T13:37:18Z</time>
<extensions>
<tp1:TrackPointExtension>
<tp1:hr>125</tp1:hr>
</tp1:TrackPointExtension>
</extensions>
</trkpt>
<trkpt lat="50.6800667" lon="6.8098490">
<ele>149.6223145</ele>
<time>2011-08-15T13:37:19Z</time>
<extensions>
<tp1:TrackPointExtension>
<tp1:hr>124</tp1:hr>
</tp1:TrackPointExtension>
</extensions>
</trkpt>
<trkpt lat="50.6800710" lon="6.8098412">
<ele>145.7770996</ele>
<time>2011-08-15T13:37:36Z</time>
<extensions>
<tp1:TrackPointExtension>
<tp1:hr>120</tp1:hr>
</tp1:TrackPointExtension>
</extensions>
</trkpt>
<trkpt lat="50.6800388" lon="6.8101289">
<ele>147.2189941</ele>
<time>2011-08-15T13:37:42Z</time>
<extensions>
<tp1:TrackPointExtension>
<tp1:hr>120</tp1:hr>
</tp1:TrackPointExtension>
</extensions>
</trkpt>
<trkpt lat="50.6799951" lon="6.8107080">
<ele>152.5063477</ele>
<time>2011-08-15T13:37:49Z</time>
<extensions>
<tp1:TrackPointExtension>
<tp1:hr>125</tp1:hr>
</tp1:TrackPointExtension>
</extensions>
</trkpt>
<trkpt lat="50.6799808" lon="6.8110530">
<ele>155.8709717</ele>
<time>2011-08-15T13:37:53Z</time>
<extensions>
<tp1:TrackPointExtension>
<tp1:hr>133</tp1:hr>
</tp1:TrackPointExtension>
</extensions>
</trkpt>
<trkpt lat="50.6799497" lon="6.8116309">
<ele>159.7161865</ele>
<time>2011-08-15T13:38:00Z</time>
<extensions>
<tp1:TrackPointExtension>
<tp1:hr>138</tp1:hr>
</tp1:TrackPointExtension>
</extensions>
</trkpt>
<trkpt lat="50.6799032" lon="6.8120466">
<ele>160.6774902</ele>
<time>2011-08-15T13:38:05Z</time>
<extensions>
<tp1:TrackPointExtension>
<tp1:hr>144</tp1:hr>
</tp1:TrackPointExtension>
</extensions>
</trkpt>
<trkpt lat="50.6798718" lon="6.8123039">
<ele>159.2354736</ele>
<time>2011-08-15T13:38:08Z</time>
<extensions>
<tp1:TrackPointExtension>
<tp1:hr>149</tp1:hr>
</tp1:TrackPointExtension>
</extensions>
</trkpt>
<trkpt lat="50.6797174" lon="6.8131629">
<ele>156.3515625</ele>
<time>2011-08-15T13:38:18Z</time>
<extensions>
<tp1:TrackPointExtension>
<tp1:hr>154</tp1:hr>
</tp1:TrackPointExtension>
</extensions>
</trkpt>
<trkpt lat="50.6795167" lon="6.8139570">
<ele>155.8709717</ele>
<time>2011-08-15T13:38:28Z</time>
<extensions>
<tp1:TrackPointExtension>
<tp1:hr>156</tp1:hr>
</tp1:TrackPointExtension>
</extensions>
</trkpt>
<trkpt lat="50.6793655" lon="6.8144164">
<ele>157.3128662</ele>
<time>2011-08-15T13:38:34Z</time>
<extensions>
<tp1:TrackPointExtension>
<tp1:hr>157</tp1:hr>
</tp1:TrackPointExtension>
</extensions>
</trkpt>
<trkpt lat="50.6791209" lon="6.8150878">
<ele>157.7935791</ele>
<time>2011-08-15T13:38:43Z</time>
<extensions>
<tp1:TrackPointExtension>
<tp1:hr>158</tp1:hr>
</tp1:TrackPointExtension>
</extensions>
</trkpt>
<trkpt lat="50.6788433" lon="6.8158456">
<ele>158.2741699</ele>
<time>2011-08-15T13:38:53Z</time>
<extensions>
<tp1:TrackPointExtension>
<tp1:hr>159</tp1:hr>
</tp1:TrackPointExtension>
</extensions>
</trkpt>
<trkpt lat="50.6785398" lon="6.8168174">
<ele>157.3128662</ele>
<time>2011-08-15T13:39:05Z</time>
<extensions>
<tp1:TrackPointExtension>
<tp1:hr>160</tp1:hr>
</tp1:TrackPointExtension>
</extensions>
</trkpt>
<trkpt lat="50.6783636" lon="6.8175523">
<ele>157.3128662</ele>
<time>2011-08-15T13:39:13Z</time>
<extensions>
<tp1:TrackPointExtension>
<tp1:hr>159</tp1:hr>
</tp1:TrackPointExtension>
</extensions>
</trkpt>
<trkpt lat="50.6782102" lon="6.8183558">
<ele>156.8321533</ele>
<time>2011-08-15T13:39:21Z</time>
<extensions>
<tp1:TrackPointExtension>
<tp1:hr>154</tp1:hr>
</tp1:TrackPointExtension>
</extensions>
</trkpt>
<trkpt lat="50.6781060" lon="6.8190898">
<ele>155.8709717</ele>
<time>2011-08-15T13:39:28Z</time>
<extensions>
<tp1:TrackPointExtension>
<tp1:hr>149</tp1:hr>
</tp1:TrackPointExtension>
</extensions>
</trkpt>
<trkpt lat="50.6780377" lon="6.8198453">
<ele>155.3902588</ele>
<time>2011-08-15T13:39:35Z</time>
<extensions>
<tp1:TrackPointExtension>
<tp1:hr>144</tp1:hr>
</tp1:TrackPointExtension>
</extensions>
</trkpt>
<trkpt lat="50.6780033" lon="6.8209271">
<ele>154.4289551</ele>
<time>2011-08-15T13:39:45Z</time>
<extensions>
<tp1:TrackPointExtension>
<tp1:hr>142</tp1:hr>
</tp1:TrackPointExtension>
</extensions>
</trkpt>
<trkpt lat="50.6780256" lon="6.8219385">
<ele>156.8321533</ele>
<time>2011-08-15T13:39:54Z</time>
<extensions>
<tp1:TrackPointExtension>
<tp1:hr>142</tp1:hr>
</tp1:TrackPointExtension>
</extensions>
</trkpt>
<trkpt lat="50.6780555" lon="6.8227386">
<ele>158.7547607</ele>
<time>2011-08-15T13:40:01Z</time>
<extensions>
<tp1:TrackPointExtension>
<tp1:hr>141</tp1:hr>
</tp1:TrackPointExtension>
</extensions>
</trkpt>
<trkpt lat="50.6781346" lon="6.8234965">
<ele>158.7547607</ele>
<time>2011-08-15T13:40:08Z</time>
<extensions>
<tp1:TrackPointExtension>
<tp1:hr>140</tp1:hr>
</tp1:TrackPointExtension>
</extensions>
</trkpt>
<trkpt lat="50.6782797" lon="6.8242168">
<ele>158.7547607</ele>
<time>2011-08-15T13:40:15Z</time>
<extensions>
<tp1:TrackPointExtension>
<tp1:hr>140</tp1:hr>
</tp1:TrackPointExtension>
</extensions>
</trkpt>
<trkpt lat="50.6784942" lon="6.8250186">
<ele>157.3128662</ele>
<time>2011-08-15T13:40:23Z</time>
<extensions>
<tp1:TrackPointExtension>
<tp1:hr>142</tp1:hr>
</tp1:TrackPointExtension>
</extensions>
</trkpt>
<trkpt lat="50.6787361" lon="6.8258066">
<ele>155.8709717</ele>
<time>2011-08-15T13:40:31Z</time>
<extensions>
<tp1:TrackPointExtension>
<tp1:hr>141</tp1:hr>
</tp1:TrackPointExtension>
</extensions>
</trkpt>
<trkpt lat="50.6790181" lon="6.8266694">
<ele>154.9095459</ele>
<time>2011-08-15T13:40:40Z</time>
<extensions>
<tp1:TrackPointExtension>
<tp1:hr>137</tp1:hr>
</tp1:TrackPointExtension>
</extensions>
</trkpt>
<trkpt lat="50.6792116" lon="6.8272465">
<ele>153.4676514</ele>
<time>2011-08-15T13:40:46Z</time>
<extensions>
<tp1:TrackPointExtension>
<tp1:hr>134</tp1:hr>
</tp1:TrackPointExtension>
</extensions>
</trkpt>
<trkpt lat="50.6792249" lon="6.8276811">
<ele>154.9095459</ele>
<time>2011-08-15T13:40:50Z</time>
<extensions>
<tp1:TrackPointExtension>
<tp1:hr>132</tp1:hr>
</tp1:TrackPointExtension>
</extensions>
</trkpt>
<trkpt lat="50.6790583" lon="6.8279184">
<ele>155.3902588</ele>
<time>2011-08-15T13:40:53Z</time>
<extensions>
<tp1:TrackPointExtension>
<tp1:hr>132</tp1:hr>
</tp1:TrackPointExtension>
</extensions>
</trkpt>
<trkpt lat="50.6787539" lon="6.8279877">
<ele>157.3128662</ele>
<time>2011-08-15T13:40:57Z</time>
<extensions>
<tp1:TrackPointExtension>
<tp1:hr>132</tp1:hr>
</tp1:TrackPointExtension>
</extensions>
</trkpt>
<trkpt lat="50.6785489" lon="6.8278303">
<ele>156.8321533</ele>
<time>2011-08-15T13:41:00Z</time>
<extensions>
<tp1:TrackPointExtension>
<tp1:hr>131</tp1:hr>
</tp1:TrackPointExtension>
</extensions>
</trkpt>
<trkpt lat="50.6784194" lon="6.8275346">
<ele>156.3515625</ele>
<time>2011-08-15T13:41:03Z</time>
<extensions>
<tp1:TrackPointExtension>
<tp1:hr>130</tp1:hr>
</tp1:TrackPointExtension>
</extensions>
</trkpt>
<trkpt lat="50.6781109" lon="6.8263954">
<ele>152.9869385</ele>
<time>2011-08-15T13:41:13Z</time>
<extensions>
<tp1:TrackPointExtension>
<tp1:hr>122</tp1:hr>
</tp1:TrackPointExtension>
</extensions>
</trkpt>
<trkpt lat="50.6780331" lon="6.8260277">
<ele>152.5063477</ele>
<time>2011-08-15T13:41:17Z</time>
<extensions>
<tp1:TrackPointExtension>
<tp1:hr>119</tp1:hr>
</tp1:TrackPointExtension>
</extensions>
</trkpt>
<trkpt lat="50.6780226" lon="6.8259749">
<ele>152.5063477</ele>
<time>2011-08-15T13:41:18Z</time>
<extensions>
<tp1:TrackPointExtension>
<tp1:hr>118</tp1:hr>
</tp1:TrackPointExtension>
</extensions>
</trkpt>
<trkpt lat="50.6779408" lon="6.8258722">
<ele>152.5063477</ele>
<time>2011-08-15T13:41:23Z</time>
<extensions>
<tp1:TrackPointExtension>
<tp1:hr>114</tp1:hr>
</tp1:TrackPointExtension>
</extensions>
</trkpt>
<trkpt lat="50.6778009" lon="6.8258762">
<ele>152.9869385</ele>
<time>2011-08-15T13:41:26Z</time>
<extensions>
<tp1:TrackPointExtension>
<tp1:hr>117</tp1:hr>
</tp1:TrackPointExtension>
</extensions>
</trkpt>
<trkpt lat="50.6777480" lon="6.8259038">
<ele>153.4676514</ele>
<time>2011-08-15T13:41:27Z</time>
<extensions>
<tp1:TrackPointExtension>
<tp1:hr>117</tp1:hr>
</tp1:TrackPointExtension>
</extensions>
</trkpt>
<trkpt lat="50.6774591" lon="6.8260753">
<ele>153.4676514</ele>
<time>2011-08-15T13:41:32Z</time>
<extensions>
<tp1:TrackPointExtension>
<tp1:hr>123</tp1:hr>
</tp1:TrackPointExtension>
</extensions>
</trkpt>
<trkpt lat="50.6773347" lon="6.8261381">
<ele>153.9483643</ele>
<time>2011-08-15T13:41:34Z</time>
<extensions>
<tp1:TrackPointExtension>
<tp1:hr>127</tp1:hr>
</tp1:TrackPointExtension>
</extensions>
</trkpt>
<trkpt lat="50.6771367" lon="6.8261999">
<ele>154.9095459</ele>
<time>2011-08-15T13:41:37Z</time>
<extensions>
<tp1:TrackPointExtension>
<tp1:hr>133</tp1:hr>
</tp1:TrackPointExtension>
</extensions>
</trkpt>
<trkpt lat="50.6767360" lon="6.8264120">
<ele>154.9095459</ele>
<time>2011-08-15T13:41:43Z</time>
<extensions>
<tp1:TrackPointExtension>
<tp1:hr>134</tp1:hr>
</tp1:TrackPointExtension>
</extensions>
</trkpt>
<trkpt lat="50.6761631" lon="6.8266607">
<ele>155.3902588</ele>
<time>2011-08-15T13:41:51Z</time>
<extensions>
<tp1:TrackPointExtension>
<tp1:hr>135</tp1:hr>
</tp1:TrackPointExtension>
</extensions>
</trkpt>
<trkpt lat="50.6756151" lon="6.8268941">
<ele>156.3515625</ele>
<time>2011-08-15T13:41:59Z</time>
<extensions>
<tp1:TrackPointExtension>
<tp1:hr>135</tp1:hr>
</tp1:TrackPointExtension>
</extensions>
</trkpt>
<trkpt lat="50.6749607" lon="6.8272244">
<ele>158.2741699</ele>
<time>2011-08-15T13:42:09Z</time>
<extensions>
<tp1:TrackPointExtension>
<tp1:hr>138</tp1:hr>
</tp1:TrackPointExtension>
</extensions>
</trkpt>
<trkpt lat="50.6744460" lon="6.8275692">
<ele>157.7935791</ele>
<time>2011-08-15T13:42:17Z</time>
<extensions>
<tp1:TrackPointExtension>
<tp1:hr>140</tp1:hr>
</tp1:TrackPointExtension>
</extensions>
</trkpt>
<trkpt lat="50.6741951" lon="6.8277470">
<ele>156.3515625</ele>
<time>2011-08-15T13:42:21Z</time>
<extensions>
<tp1:TrackPointExtension>
<tp1:hr>141</tp1:hr>
</tp1:TrackPointExtension>
</extensions>
</trkpt>
<trkpt lat="50.6739552" lon="6.8279135">
<ele>154.9095459</ele>
<time>2011-08-15T13:42:25Z</time>
<extensions>
<tp1:TrackPointExtension>
<tp1:hr>141</tp1:hr>
</tp1:TrackPointExtension>
</extensions>
</trkpt>
<trkpt lat="50.6736963" lon="6.8280821">
<ele>153.4676514</ele>
<time>2011-08-15T13:42:29Z</time>
<extensions>
<tp1:TrackPointExtension>
<tp1:hr>142</tp1:hr>
</tp1:TrackPointExtension>
</extensions>
</trkpt>
<trkpt lat="50.6731502" lon="6.8282122">
<ele>155.8709717</ele>
<time>2011-08-15T13:42:37Z</time>
<extensions>
<tp1:TrackPointExtension>
<tp1:hr>145</tp1:hr>
</tp1:TrackPointExtension>
</extensions>
</trkpt>
<trkpt lat="50.6725400" lon="6.8283404">
<ele>157.3128662</ele>
<time>2011-08-15T13:42:46Z</time>
<extensions>
<tp1:TrackPointExtension>
<tp1:hr>146</tp1:hr>
</tp1:TrackPointExtension>
</extensions>
</trkpt>
<trkpt lat="50.6717194" lon="6.8285152">
<ele>158.2741699</ele>
<time>2011-08-15T13:42:58Z</time>
<extensions>
<tp1:TrackPointExtension>
<tp1:hr>146</tp1:hr>
</tp1:TrackPointExtension>
</extensions>
</trkpt>
<trkpt lat="50.6713139" lon="6.8285978">
<ele>158.7547607</ele>
<time>2011-08-15T13:43:04Z</time>
<extensions>
<tp1:TrackPointExtension>
<tp1:hr>146</tp1:hr>
</tp1:TrackPointExtension>
</extensions>
</trkpt>
<trkpt lat="50.6704928" lon="6.8287357">
<ele>160.6774902</ele>
<time>2011-08-15T13:43:16Z</time>
<extensions>
<tp1:TrackPointExtension>
<tp1:hr>146</tp1:hr>
</tp1:TrackPointExtension>
</extensions>
</trkpt>
<trkpt lat="50.6696299" lon="6.8288161">
<ele>162.6000977</ele>
<time>2011-08-15T13:43:28Z</time>
<extensions>
<tp1:TrackPointExtension>
<tp1:hr>149</tp1:hr>
</tp1:TrackPointExtension>
</extensions>
</trkpt>
<trkpt lat="50.6688413" lon="6.8288663">
<ele>164.5227051</ele>
<time>2011-08-15T13:43:39Z</time>
<extensions>
<tp1:TrackPointExtension>
<tp1:hr>151</tp1:hr>
</tp1:TrackPointExtension>
</extensions>
</trkpt>
<trkpt lat="50.6682867" lon="6.8289990">
<ele>165.4841309</ele>
<time>2011-08-15T13:43:47Z</time>
<extensions>
<tp1:TrackPointExtension>
<tp1:hr>151</tp1:hr>
</tp1:TrackPointExtension>
</extensions>
</trkpt>
<trkpt lat="50.6677628" lon="6.8292726">
<ele>165.9647217</ele>
<time>2011-08-15T13:43:55Z</time>
<extensions>
<tp1:TrackPointExtension>
<tp1:hr>150</tp1:hr>
</tp1:TrackPointExtension>
</extensions>
</trkpt>
<trkpt lat="50.6673438" lon="6.8296687">
<ele>166.9260254</ele>
<time>2011-08-15T13:44:02Z</time>
<extensions>
<tp1:TrackPointExtension>
<tp1:hr>151</tp1:hr>
</tp1:TrackPointExtension>
</extensions>
</trkpt>
<trkpt lat="50.6669226" lon="6.8301851">
<ele>166.9260254</ele>
<time>2011-08-15T13:44:10Z</time>
<extensions>
<tp1:TrackPointExtension>
<tp1:hr>153</tp1:hr>
</tp1:TrackPointExtension>
</extensions>
</trkpt>
<trkpt lat="50.6665399" lon="6.8308227">
<ele>166.9260254</ele>
<time>2011-08-15T13:44:18Z</time>
<extensions>
<tp1:TrackPointExtension>
<tp1:hr>153</tp1:hr>
</tp1:TrackPointExtension>
</extensions>
</trkpt>
<trkpt lat="50.6660254" lon="6.8317991">
<ele>164.5227051</ele>
<time>2011-08-15T13:44:29Z</time>
<extensions>
<tp1:TrackPointExtension>
<tp1:hr>149</tp1:hr>
</tp1:TrackPointExtension>
</extensions>
</trkpt>
<trkpt lat="50.6655619" lon="6.8325081">
<ele>163.0808105</ele>
<time>2011-08-15T13:44:38Z</time>
<extensions>
<tp1:TrackPointExtension>
<tp1:hr>146</tp1:hr>
</tp1:TrackPointExtension>
</extensions>
</trkpt>
<trkpt lat="50.6650372" lon="6.8330752">
<ele>164.0421143</ele>
<time>2011-08-15T13:44:47Z</time>
<extensions>
<tp1:TrackPointExtension>
<tp1:hr>144</tp1:hr>
</tp1:TrackPointExtension>
</extensions>
</trkpt>
<trkpt lat="50.6643598" lon="6.8336660">
<ele>163.5615234</ele>
<time>2011-08-15T13:44:58Z</time>
<extensions>
<tp1:TrackPointExtension>
<tp1:hr>141</tp1:hr>
</tp1:TrackPointExtension>
</extensions>
</trkpt>
<trkpt lat="50.6637365" lon="6.8342304">
<ele>163.5615234</ele>
<time>2011-08-15T13:45:08Z</time>
<extensions>
<tp1:TrackPointExtension>
<tp1:hr>138</tp1:hr>
</tp1:TrackPointExtension>
</extensions>
</trkpt>
<trkpt lat="50.6631740" lon="6.8349233">
<ele>163.5615234</ele>
<time>2011-08-15T13:45:18Z</time>
<extensions>
<tp1:TrackPointExtension>
<tp1:hr>138</tp1:hr>
</tp1:TrackPointExtension>
</extensions>
</trkpt>
<trkpt lat="50.6626518" lon="6.8357424">
<ele>164.0421143</ele>
<time>2011-08-15T13:45:28Z</time>
<extensions>
<tp1:TrackPointExtension>
<tp1:hr>140</tp1:hr>
</tp1:TrackPointExtension>
</extensions>
</trkpt>
<trkpt lat="50.6623401" lon="6.8362357">
<ele>164.0421143</ele>
<time>2011-08-15T13:45:34Z</time>
<extensions>
<tp1:TrackPointExtension>
<tp1:hr>142</tp1:hr>
</tp1:TrackPointExtension>
</extensions>
</trkpt>
<trkpt lat="50.6618230" lon="6.8371580">
<ele>165.9647217</ele>
<time>2011-08-15T13:45:45Z</time>
<extensions>
<tp1:TrackPointExtension>
<tp1:hr>144</tp1:hr>
</tp1:TrackPointExtension>
</extensions>
</trkpt>
<trkpt lat="50.6613070" lon="6.8380108">
<ele>168.3680420</ele>
<time>2011-08-15T13:45:56Z</time>
<extensions>
<tp1:TrackPointExtension>
<tp1:hr>147</tp1:hr>
</tp1:TrackPointExtension>
</extensions>
</trkpt>
<trkpt lat="50.6607764" lon="6.8386183">
<ele>170.2906494</ele>
<time>2011-08-15T13:46:06Z</time>
<extensions>
<tp1:TrackPointExtension>
<tp1:hr>151</tp1:hr>
</tp1:TrackPointExtension>
</extensions>
</trkpt>
<trkpt lat="50.6604942" lon="6.8389359">
<ele>170.2906494</ele>
<time>2011-08-15T13:46:11Z</time>
<extensions>
<tp1:TrackPointExtension>
<tp1:hr>153</tp1:hr>
</tp1:TrackPointExtension>
</extensions>
</trkpt>
<trkpt lat="50.6603999" lon="6.8390794">
<ele>169.3294678</ele>
<time>2011-08-15T13:46:13Z</time>
<extensions>
<tp1:TrackPointExtension>
<tp1:hr>153</tp1:hr>
</tp1:TrackPointExtension>
</extensions>
</trkpt>
<trkpt lat="50.6602669" lon="6.8395320">
<ele>165.4841309</ele>
<time>2011-08-15T13:46:18Z</time>
<extensions>
<tp1:TrackPointExtension>
<tp1:hr>154</tp1:hr>
</tp1:TrackPointExtension>
</extensions>
</trkpt>
<trkpt lat="50.6601620" lon="6.8401929">
<ele>158.2741699</ele>
<time>2011-08-15T13:46:25Z</time>
<extensions>
<tp1:TrackPointExtension>
<tp1:hr>155</tp1:hr>
</tp1:TrackPointExtension>
</extensions>
</trkpt>
<trkpt lat="50.6600059" lon="6.8408843">
<ele>163.0808105</ele>
<time>2011-08-15T13:46:31Z</time>
<extensions>
<tp1:TrackPointExtension>
<tp1:hr>155</tp1:hr>
</tp1:TrackPointExtension>
</extensions>
</trkpt>
<trkpt lat="50.6597313" lon="6.8415123">
<ele>165.4841309</ele>
<time>2011-08-15T13:46:38Z</time>
<extensions>
<tp1:TrackPointExtension>
<tp1:hr>153</tp1:hr>
</tp1:TrackPointExtension>
</extensions>
</trkpt>
<trkpt lat="50.6594710" lon="6.8422448">
<ele>164.5227051</ele>
<time>2011-08-15T13:46:46Z</time>
<extensions>
<tp1:TrackPointExtension>
<tp1:hr>152</tp1:hr>
</tp1:TrackPointExtension>
</extensions>
</trkpt>
<trkpt lat="50.6591739" lon="6.8426681">
<ele>165.4841309</ele>
<time>2011-08-15T13:46:52Z</time>
<extensions>
<tp1:TrackPointExtension>
<tp1:hr>152</tp1:hr>
</tp1:TrackPointExtension>
</extensions>
</trkpt>
<trkpt lat="50.6586888" lon="6.8432458">
<ele>167.8873291</ele>
<time>2011-08-15T13:47:01Z</time>
<extensions>
<tp1:TrackPointExtension>
<tp1:hr>151</tp1:hr>
</tp1:TrackPointExtension>
</extensions>
</trkpt>
<trkpt lat="50.6584853" lon="6.8436576">
<ele>169.3294678</ele>
<time>2011-08-15T13:47:06Z</time>
<extensions>
<tp1:TrackPointExtension>
<tp1:hr>150</tp1:hr>
</tp1:TrackPointExtension>
</extensions>
</trkpt>
<trkpt lat="50.6583388" lon="6.8441823">
<ele>171.7326660</ele>
<time>2011-08-15T13:47:12Z</time>
<extensions>
<tp1:TrackPointExtension>
<tp1:hr>150</tp1:hr>
</tp1:TrackPointExtension>
</extensions>
</trkpt>
<trkpt lat="50.6582314" lon="6.8447896">
<ele>177.0200195</ele>
<time>2011-08-15T13:47:20Z</time>
<extensions>
<tp1:TrackPointExtension>
<tp1:hr>149</tp1:hr>
</tp1:TrackPointExtension>
</extensions>
</trkpt>
<trkpt lat="50.6581985" lon="6.8449366">
<ele>177.5006104</ele>
<time>2011-08-15T13:47:23Z</time>
<extensions>
<tp1:TrackPointExtension>
<tp1:hr>149</tp1:hr>
</tp1:TrackPointExtension>
</extensions>
</trkpt>
<trkpt lat="50.6581758" lon="6.8452696">
<ele>179.4232178</ele>
<time>2011-08-15T13:47:28Z</time>
<extensions>
<tp1:TrackPointExtension>
<tp1:hr>148</tp1:hr>
</tp1:TrackPointExtension>
</extensions>
</trkpt>
<trkpt lat="50.6581695" lon="6.8457807">
<ele>178.4619141</ele>
<time>2011-08-15T13:47:33Z</time>
<extensions>
<tp1:TrackPointExtension>
<tp1:hr>148</tp1:hr>
</tp1:TrackPointExtension>
</extensions>
</trkpt>
<trkpt lat="50.6581835" lon="6.8466375">
<ele>179.4232178</ele>
<time>2011-08-15T13:47:40Z</time>
<extensions>
<tp1:TrackPointExtension>
<tp1:hr>145</tp1:hr>
</tp1:TrackPointExtension>
</extensions>
</trkpt>
<trkpt lat="50.6581634" lon="6.8476476">
<ele>182.3071289</ele>
<time>2011-08-15T13:47:48Z</time>
<extensions>
<tp1:TrackPointExtension>
<tp1:hr>141</tp1:hr>
</tp1:TrackPointExtension>
</extensions>
</trkpt>
<trkpt lat="50.6581830" lon="6.8488082">
<ele>182.7878418</ele>
<time>2011-08-15T13:47:58Z</time>
<extensions>
<tp1:TrackPointExtension>
<tp1:hr>139</tp1:hr>
</tp1:TrackPointExtension>
</extensions>
</trkpt>
<trkpt lat="50.6581876" lon="6.8499908">
<ele>183.2684326</ele>
<time>2011-08-15T13:48:08Z</time>
<extensions>
<tp1:TrackPointExtension>
<tp1:hr>140</tp1:hr>
</tp1:TrackPointExtension>
</extensions>
</trkpt>
<trkpt lat="50.6581840" lon="6.8511812">
<ele>183.7490234</ele>
<time>2011-08-15T13:48:18Z</time>
<extensions>
<tp1:TrackPointExtension>
<tp1:hr>141</tp1:hr>
</tp1:TrackPointExtension>
</extensions>
</trkpt>
<trkpt lat="50.6581465" lon="6.8523710">
<ele>183.2684326</ele>
<time>2011-08-15T13:48:28Z</time>
<extensions>
<tp1:TrackPointExtension>
<tp1:hr>140</tp1:hr>
</tp1:TrackPointExtension>
</extensions>
</trkpt>
<trkpt lat="50.6580791" lon="6.8535578">
<ele>181.3458252</ele>
<time>2011-08-15T13:48:38Z</time>
<extensions>
<tp1:TrackPointExtension>
<tp1:hr>139</tp1:hr>
</tp1:TrackPointExtension>
</extensions>
</trkpt>
<trkpt lat="50.6579761" lon="6.8547203">
<ele>174.1358643</ele>
<time>2011-08-15T13:48:48Z</time>
<extensions>
<tp1:TrackPointExtension>
<tp1:hr>138</tp1:hr>
</tp1:TrackPointExtension>
</extensions>
</trkpt>
<trkpt lat="50.6578623" lon="6.8556563">
<ele>170.2906494</ele>
<time>2011-08-15T13:48:56Z</time>
<extensions>
<tp1:TrackPointExtension>
<tp1:hr>138</tp1:hr>
</tp1:TrackPointExtension>
</extensions>
</trkpt>
<trkpt lat="50.6576279" lon="6.8570890">
<ele>171.2520752</ele>
<time>2011-08-15T13:49:08Z</time>
<extensions>
<tp1:TrackPointExtension>
<tp1:hr>139</tp1:hr>
</tp1:TrackPointExtension>
</extensions>
</trkpt>
<trkpt lat="50.6574359" lon="6.8580250">
<ele>170.2906494</ele>
<time>2011-08-15T13:49:16Z</time>
<extensions>
<tp1:TrackPointExtension>
<tp1:hr>138</tp1:hr>
</tp1:TrackPointExtension>
</extensions>
</trkpt>
<trkpt lat="50.6571112" lon="6.8593835">
<ele>169.8100586</ele>
<time>2011-08-15T13:49:28Z</time>
<extensions>
<tp1:TrackPointExtension>
<tp1:hr>137</tp1:hr>
</tp1:TrackPointExtension>
</extensions>
</trkpt>
<trkpt lat="50.6567367" lon="6.8606982">
<ele>169.3294678</ele>
<time>2011-08-15T13:49:40Z</time>
<extensions>
<tp1:TrackPointExtension>
<tp1:hr>135</tp1:hr>
</tp1:TrackPointExtension>
</extensions>
</trkpt>
<trkpt lat="50.6564093" lon="6.8617800">
<ele>169.8100586</ele>
<time>2011-08-15T13:49:50Z</time>
<extensions>
<tp1:TrackPointExtension>
<tp1:hr>134</tp1:hr>
</tp1:TrackPointExtension>
</extensions>
</trkpt>
<trkpt lat="50.6560486" lon="6.8629696">
<ele>169.8100586</ele>
<time>2011-08-15T13:50:01Z</time>
<extensions>
<tp1:TrackPointExtension>
<tp1:hr>134</tp1:hr>
</tp1:TrackPointExtension>
</extensions>
</trkpt>
<trkpt lat="50.6558092" lon="6.8638569">
<ele>169.8100586</ele>
<time>2011-08-15T13:50:09Z</time>
<extensions>
<tp1:TrackPointExtension>
<tp1:hr>135</tp1:hr>
</tp1:TrackPointExtension>
</extensions>
</trkpt>
<trkpt lat="50.6557548" lon="6.8644465">
<ele>170.7713623</ele>
<time>2011-08-15T13:50:14Z</time>
<extensions>
<tp1:TrackPointExtension>
<tp1:hr>137</tp1:hr>
</tp1:TrackPointExtension>
</extensions>
</trkpt>
<trkpt lat="50.6557424" lon="6.8646850">
<ele>170.7713623</ele>
<time>2011-08-15T13:50:16Z</time>
<extensions>
<tp1:TrackPointExtension>
<tp1:hr>138</tp1:hr>
</tp1:TrackPointExtension>
</extensions>
</trkpt>
<trkpt lat="50.6556208" lon="6.8651255">
<ele>170.2906494</ele>
<time>2011-08-15T13:50:20Z</time>
<extensions>
<tp1:TrackPointExtension>
<tp1:hr>138</tp1:hr>
</tp1:TrackPointExtension>
</extensions>
</trkpt>
<trkpt lat="50.6554727" lon="6.8652841">
<ele>168.8487549</ele>
<time>2011-08-15T13:50:23Z</time>
<extensions>
<tp1:TrackPointExtension>
<tp1:hr>139</tp1:hr>
</tp1:TrackPointExtension>
</extensions>
</trkpt>
<trkpt lat="50.6553972" lon="6.8653199">
<ele>168.3680420</ele>
<time>2011-08-15T13:50:26Z</time>
<extensions>
<tp1:TrackPointExtension>
<tp1:hr>140</tp1:hr>
</tp1:TrackPointExtension>
</extensions>
</trkpt>
<trkpt lat="50.6553847" lon="6.8653142">
<ele>168.3680420</ele>
<time>2011-08-15T13:50:31Z</time>
<extensions>
<tp1:TrackPointExtension>
<tp1:hr>141</tp1:hr>
</tp1:TrackPointExtension>
</extensions>
</trkpt>
<trkpt lat="50.6553831" lon="6.8653151">
<ele>168.8487549</ele>
<time>2011-08-15T13:50:38Z</time>
<extensions>
<tp1:TrackPointExtension>
<tp1:hr>136</tp1:hr>
</tp1:TrackPointExtension>
</extensions>
</trkpt>
<trkpt lat="50.6553696" lon="6.8653150">
<ele>167.8873291</ele>
<time>2011-08-15T13:50:40Z</time>
<extensions>
<tp1:TrackPointExtension>
<tp1:hr>136</tp1:hr>
</tp1:TrackPointExtension>
</extensions>
</trkpt>
<trkpt lat="50.6553518" lon="6.8654297">
<ele>167.4067383</ele>
<time>2011-08-15T13:50:44Z</time>
<extensions>
<tp1:TrackPointExtension>
<tp1:hr>136</tp1:hr>
</tp1:TrackPointExtension>
</extensions>
</trkpt>
<trkpt lat="50.6553894" lon="6.8657712">
<ele>170.2906494</ele>
<time>2011-08-15T13:50:52Z</time>
<extensions>
<tp1:TrackPointExtension>
<tp1:hr>136</tp1:hr>
</tp1:TrackPointExtension>
</extensions>
</trkpt>
<trkpt lat="50.6553901" lon="6.8660693">
<ele>170.7713623</ele>
<time>2011-08-15T13:50:56Z</time>
<extensions>
<tp1:TrackPointExtension>
<tp1:hr>137</tp1:hr>
</tp1:TrackPointExtension>
</extensions>
</trkpt>
<trkpt lat="50.6554309" lon="6.8664454">
<ele>171.7326660</ele>
<time>2011-08-15T13:50:59Z</time>
<extensions>
<tp1:TrackPointExtension>
<tp1:hr>139</tp1:hr>
</tp1:TrackPointExtension>
</extensions>
</trkpt>
<trkpt lat="50.6554894" lon="6.8671279">
<ele>170.2906494</ele>
<time>2011-08-15T13:51:04Z</time>
<extensions>
<tp1:TrackPointExtension>
<tp1:hr>147</tp1:hr>
</tp1:TrackPointExtension>
</extensions>
</trkpt>
<trkpt lat="50.6555385" lon="6.8682833">
<ele>166.9260254</ele>
<time>2011-08-15T13:51:12Z</time>
<extensions>
<tp1:TrackPointExtension>
<tp1:hr>151</tp1:hr>
</tp1:TrackPointExtension>
</extensions>
</trkpt>
<trkpt lat="50.6555569" lon="6.8694574">
<ele>165.9647217</ele>
<time>2011-08-15T13:51:20Z</time>
<extensions>
<tp1:TrackPointExtension>
<tp1:hr>152</tp1:hr>
</tp1:TrackPointExtension>
</extensions>
</trkpt>
<trkpt lat="50.6555555" lon="6.8706051">
<ele>165.4841309</ele>
<time>2011-08-15T13:51:28Z</time>
<extensions>
<tp1:TrackPointExtension>
<tp1:hr>153</tp1:hr>
</tp1:TrackPointExtension>
</extensions>
</trkpt>
<trkpt lat="50.6555495" lon="6.8717512">
<ele>165.4841309</ele>
<time>2011-08-15T13:51:36Z</time>
<extensions>
<tp1:TrackPointExtension>
<tp1:hr>153</tp1:hr>
</tp1:TrackPointExtension>
</extensions>
</trkpt>
<trkpt lat="50.6555301" lon="6.8730340">
<ele>164.5227051</ele>
<time>2011-08-15T13:51:45Z</time>
<extensions>
<tp1:TrackPointExtension>
<tp1:hr>153</tp1:hr>
</tp1:TrackPointExtension>
</extensions>
</trkpt>
<trkpt lat="50.6555525" lon="6.8741719">
<ele>165.0034180</ele>
<time>2011-08-15T13:51:53Z</time>
<extensions>
<tp1:TrackPointExtension>
<tp1:hr>154</tp1:hr>
</tp1:TrackPointExtension>
</extensions>
</trkpt>
<trkpt lat="50.6556919" lon="6.8749973">
<ele>165.0034180</ele>
<time>2011-08-15T13:51:59Z</time>
<extensions>
<tp1:TrackPointExtension>
<tp1:hr>154</tp1:hr>
</tp1:TrackPointExtension>
</extensions>
</trkpt>
<trkpt lat="50.6559348" lon="6.8759160">
<ele>165.4841309</ele>
<time>2011-08-15T13:52:06Z</time>
<extensions>
<tp1:TrackPointExtension>
<tp1:hr>154</tp1:hr>
</tp1:TrackPointExtension>
</extensions>
</trkpt>
<trkpt lat="50.6563242" lon="6.8773489">
<ele>166.4453125</ele>
<time>2011-08-15T13:52:17Z</time>
<extensions>
<tp1:TrackPointExtension>
<tp1:hr>152</tp1:hr>
</tp1:TrackPointExtension>
</extensions>
</trkpt>
<trkpt lat="50.6567885" lon="6.8790310">
<ele>166.4453125</ele>
<time>2011-08-15T13:52:30Z</time>
<extensions>
<tp1:TrackPointExtension>
<tp1:hr>152</tp1:hr>
</tp1:TrackPointExtension>
</extensions>
</trkpt>
<trkpt lat="50.6571256" lon="6.8803325">
<ele>165.9647217</ele>
<time>2011-08-15T13:52:40Z</time>
<extensions>
<tp1:TrackPointExtension>
<tp1:hr>153</tp1:hr>
</tp1:TrackPointExtension>
</extensions>
</trkpt>
<trkpt lat="50.6572194" lon="6.8811378">
<ele>162.1195068</ele>
<time>2011-08-15T13:52:46Z</time>
<extensions>
<tp1:TrackPointExtension>
<tp1:hr>153</tp1:hr>
</tp1:TrackPointExtension>
</extensions>
</trkpt>
<trkpt lat="50.6572213" lon="6.8820963">
<ele>160.6774902</ele>
<time>2011-08-15T13:52:53Z</time>
<extensions>
<tp1:TrackPointExtension>
<tp1:hr>155</tp1:hr>
</tp1:TrackPointExtension>
</extensions>
</trkpt>
<trkpt lat="50.6572002" lon="6.8834730">
<ele>159.7161865</ele>
<time>2011-08-15T13:53:03Z</time>
<extensions>
<tp1:TrackPointExtension>
<tp1:hr>153</tp1:hr>
</tp1:TrackPointExtension>
</extensions>
</trkpt>
<trkpt lat="50.6571621" lon="6.8851384">
<ele>160.1968994</ele>
<time>2011-08-15T13:53:15Z</time>
<extensions>
<tp1:TrackPointExtension>
<tp1:hr>151</tp1:hr>
</tp1:TrackPointExtension>
</extensions>
</trkpt>
<trkpt lat="50.6570486" lon="6.8859655">
<ele>159.7161865</ele>
<time>2011-08-15T13:53:21Z</time>
<extensions>
<tp1:TrackPointExtension>
<tp1:hr>151</tp1:hr>
</tp1:TrackPointExtension>
</extensions>
</trkpt>
<trkpt lat="50.6568574" lon="6.8867638">
<ele>159.7161865</ele>
<time>2011-08-15T13:53:27Z</time>
<extensions>
<tp1:TrackPointExtension>
<tp1:hr>152</tp1:hr>
</tp1:TrackPointExtension>
</extensions>
</trkpt>
<trkpt lat="50.6565068" lon="6.8882081">
<ele>159.7161865</ele>
<time>2011-08-15T13:53:38Z</time>
<extensions>
<tp1:TrackPointExtension>
<tp1:hr>157</tp1:hr>
</tp1:TrackPointExtension>
</extensions>
</trkpt>
<trkpt lat="50.6561590" lon="6.8896564">
<ele>159.7161865</ele>
<time>2011-08-15T13:53:49Z</time>
<extensions>
<tp1:TrackPointExtension>
<tp1:hr>158</tp1:hr>
</tp1:TrackPointExtension>
</extensions>
</trkpt>
<trkpt lat="50.6559056" lon="6.8905950">
<ele>159.7161865</ele>
<time>2011-08-15T13:53:56Z</time>
<extensions>
<tp1:TrackPointExtension>
<tp1:hr>160</tp1:hr>
</tp1:TrackPointExtension>
</extensions>
</trkpt>
<trkpt lat="50.6555706" lon="6.8914611">
<ele>160.1968994</ele>
<time>2011-08-15T13:54:03Z</time>
<extensions>
<tp1:TrackPointExtension>
<tp1:hr>162</tp1:hr>
</tp1:TrackPointExtension>
</extensions>
</trkpt>
<trkpt lat="50.6552893" lon="6.8920232">
<ele>161.1582031</ele>
<time>2011-08-15T13:54:08Z</time>
<extensions>
<tp1:TrackPointExtension>
<tp1:hr>164</tp1:hr>
</tp1:TrackPointExtension>
</extensions>
</trkpt>
<trkpt lat="50.6547562" lon="6.8929561">
<ele>161.1582031</ele>
<time>2011-08-15T13:54:17Z</time>
<extensions>
<tp1:TrackPointExtension>
<tp1:hr>164</tp1:hr>
</tp1:TrackPointExtension>
</extensions>
</trkpt>
<trkpt lat="50.6541544" lon="6.8940102">
<ele>161.6389160</ele>
<time>2011-08-15T13:54:27Z</time>
<extensions>
<tp1:TrackPointExtension>
<tp1:hr>164</tp1:hr>
</tp1:TrackPointExtension>
</extensions>
</trkpt>
<trkpt lat="50.6535152" lon="6.8951556">
<ele>162.6000977</ele>
<time>2011-08-15T13:54:38Z</time>
<extensions>
<tp1:TrackPointExtension>
<tp1:hr>163</tp1:hr>
</tp1:TrackPointExtension>
</extensions>
</trkpt>
<trkpt lat="50.6529111" lon="6.8963654">
<ele>163.5615234</ele>
<time>2011-08-15T13:54:49Z</time>
<extensions>
<tp1:TrackPointExtension>
<tp1:hr>163</tp1:hr>
</tp1:TrackPointExtension>
</extensions>
</trkpt>
<trkpt lat="50.6523404" lon="6.8976473">
<ele>163.5615234</ele>
<time>2011-08-15T13:55:00Z</time>
<extensions>
<tp1:TrackPointExtension>
<tp1:hr>163</tp1:hr>
</tp1:TrackPointExtension>
</extensions>
</trkpt>
<trkpt lat="50.6519273" lon="6.8985982">
<ele>164.0421143</ele>
<time>2011-08-15T13:55:08Z</time>
<extensions>
<tp1:TrackPointExtension>
<tp1:hr>164</tp1:hr>
</tp1:TrackPointExtension>
</extensions>
</trkpt>
<trkpt lat="50.6513566" lon="6.8998860">
<ele>164.0421143</ele>
<time>2011-08-15T13:55:19Z</time>
<extensions>
<tp1:TrackPointExtension>
<tp1:hr>165</tp1:hr>
</tp1:TrackPointExtension>
</extensions>
</trkpt>
<trkpt lat="50.6508767" lon="6.9009685">
<ele>164.0421143</ele>
<time>2011-08-15T13:55:28Z</time>
<extensions>
<tp1:TrackPointExtension>
<tp1:hr>165</tp1:hr>
</tp1:TrackPointExtension>
</extensions>
</trkpt>
<trkpt lat="50.6503994" lon="6.9020509">
<ele>163.5615234</ele>
<time>2011-08-15T13:55:37Z</time>
<extensions>
<tp1:TrackPointExtension>
<tp1:hr>164</tp1:hr>
</tp1:TrackPointExtension>
</extensions>
</trkpt>
<trkpt lat="50.6498243" lon="6.9033474">
<ele>163.0808105</ele>
<time>2011-08-15T13:55:48Z</time>
<extensions>
<tp1:TrackPointExtension>
<tp1:hr>162</tp1:hr>
</tp1:TrackPointExtension>
</extensions>
</trkpt>
<trkpt lat="50.6494307" lon="6.9041162">
<ele>162.6000977</ele>
<time>2011-08-15T13:55:55Z</time>
<extensions>
<tp1:TrackPointExtension>
<tp1:hr>162</tp1:hr>
</tp1:TrackPointExtension>
</extensions>
</trkpt>
<trkpt lat="50.6489661" lon="6.9047662">
<ele>161.6389160</ele>
<time>2011-08-15T13:56:02Z</time>
<extensions>
<tp1:TrackPointExtension>
<tp1:hr>161</tp1:hr>
</tp1:TrackPointExtension>
</extensions>
</trkpt>
<trkpt lat="50.6483276" lon="6.9055446">
<ele>159.7161865</ele>
<time>2011-08-15T13:56:11Z</time>
<extensions>
<tp1:TrackPointExtension>
<tp1:hr>161</tp1:hr>
</tp1:TrackPointExtension>
</extensions>
</trkpt>
<trkpt lat="50.6478923" lon="6.9062772">
<ele>159.7161865</ele>
<time>2011-08-15T13:56:18Z</time>
<extensions>
<tp1:TrackPointExtension>
<tp1:hr>162</tp1:hr>
</tp1:TrackPointExtension>
</extensions>
</trkpt>
<trkpt lat="50.6475525" lon="6.9071091">
<ele>159.7161865</ele>
<time>2011-08-15T13:56:25Z</time>
<extensions>
<tp1:TrackPointExtension>
<tp1:hr>163</tp1:hr>
</tp1:TrackPointExtension>
</extensions>
</trkpt>
<trkpt lat="50.6471932" lon="6.9082212">
<ele>159.7161865</ele>
<time>2011-08-15T13:56:34Z</time>
<extensions>
<tp1:TrackPointExtension>
<tp1:hr>162</tp1:hr>
</tp1:TrackPointExtension>
</extensions>
</trkpt>
<trkpt lat="50.6467935" lon="6.9094660">
<ele>158.7547607</ele>
<time>2011-08-15T13:56:44Z</time>
<extensions>
<tp1:TrackPointExtension>
<tp1:hr>160</tp1:hr>
</tp1:TrackPointExtension>
</extensions>
</trkpt>
<trkpt lat="50.6463709" lon="6.9107460">
<ele>157.7935791</ele>
<time>2011-08-15T13:56:54Z</time>
<extensions>
<tp1:TrackPointExtension>
<tp1:hr>159</tp1:hr>
</tp1:TrackPointExtension>
</extensions>
</trkpt>
<trkpt lat="50.6458978" lon="6.9119821">
<ele>156.8321533</ele>
<time>2011-08-15T13:57:04Z</time>
<extensions>
<tp1:TrackPointExtension>
<tp1:hr>157</tp1:hr>
</tp1:TrackPointExtension>
</extensions>
</trkpt>
<trkpt lat="50.6454553" lon="6.9130353">
<ele>157.7935791</ele>
<time>2011-08-15T13:57:13Z</time>
<extensions>
<tp1:TrackPointExtension>
<tp1:hr>157</tp1:hr>
</tp1:TrackPointExtension>
</extensions>
</trkpt>
<trkpt lat="50.6451073" lon="6.9138961">
<ele>157.3128662</ele>
<time>2011-08-15T13:57:20Z</time>
<extensions>
<tp1:TrackPointExtension>
<tp1:hr>157</tp1:hr>
</tp1:TrackPointExtension>
</extensions>
</trkpt>
<trkpt lat="50.6445648" lon="6.9152450">
<ele>155.8709717</ele>
<time>2011-08-15T13:57:31Z</time>
<extensions>
<tp1:TrackPointExtension>
<tp1:hr>157</tp1:hr>
</tp1:TrackPointExtension>
</extensions>
</trkpt>
<trkpt lat="50.6441170" lon="6.9163432">
<ele>155.3902588</ele>
<time>2011-08-15T13:57:40Z</time>
<extensions>
<tp1:TrackPointExtension>
<tp1:hr>160</tp1:hr>
</tp1:TrackPointExtension>
</extensions>
</trkpt>
<trkpt lat="50.6437434" lon="6.9171693">
<ele>154.9095459</ele>
<time>2011-08-15T13:57:47Z</time>
<extensions>
<tp1:TrackPointExtension>
<tp1:hr>162</tp1:hr>
</tp1:TrackPointExtension>
</extensions>
</trkpt>
<trkpt lat="50.6433426" lon="6.9180665">
<ele>155.3902588</ele>
<time>2011-08-15T13:57:55Z</time>
<extensions>
<tp1:TrackPointExtension>
<tp1:hr>159</tp1:hr>
</tp1:TrackPointExtension>
</extensions>
</trkpt>
<trkpt lat="50.6429584" lon="6.9188789">
<ele>155.8709717</ele>
<time>2011-08-15T13:58:03Z</time>
<extensions>
<tp1:TrackPointExtension>
<tp1:hr>156</tp1:hr>
</tp1:TrackPointExtension>
</extensions>
</trkpt>
<trkpt lat="50.6426174" lon="6.9194063">
<ele>156.8321533</ele>
<time>2011-08-15T13:58:09Z</time>
<extensions>
<tp1:TrackPointExtension>
<tp1:hr>155</tp1:hr>
</tp1:TrackPointExtension>
</extensions>
</trkpt>
<trkpt lat="50.6423116" lon="6.9198231">
<ele>158.2741699</ele>
<time>2011-08-15T13:58:14Z</time>
<extensions>
<tp1:TrackPointExtension>
<tp1:hr>153</tp1:hr>
</tp1:TrackPointExtension>
</extensions>
</trkpt>
<trkpt lat="50.6420458" lon="6.9203600">
<ele>158.2741699</ele>
<time>2011-08-15T13:58:20Z</time>
<extensions>
<tp1:TrackPointExtension>
<tp1:hr>152</tp1:hr>
</tp1:TrackPointExtension>
</extensions>
</trkpt>
<trkpt lat="50.6417803" lon="6.9208775">
<ele>159.7161865</ele>
<time>2011-08-15T13:58:25Z</time>
<extensions>
<tp1:TrackPointExtension>
<tp1:hr>151</tp1:hr>
</tp1:TrackPointExtension>
</extensions>
</trkpt>
<trkpt lat="50.6416549" lon="6.9214034">
<ele>161.6389160</ele>
<time>2011-08-15T13:58:30Z</time>
<extensions>
<tp1:TrackPointExtension>
<tp1:hr>149</tp1:hr>
</tp1:TrackPointExtension>
</extensions>
</trkpt>
<trkpt lat="50.6414635" lon="6.9221822">
<ele>164.5227051</ele>
<time>2011-08-15T13:58:37Z</time>
<extensions>
<tp1:TrackPointExtension>
<tp1:hr>149</tp1:hr>
</tp1:TrackPointExtension>
</extensions>
</trkpt>
<trkpt lat="50.6411985" lon="6.9229560">
<ele>165.0034180</ele>
<time>2011-08-15T13:58:44Z</time>
<extensions>
<tp1:TrackPointExtension>
<tp1:hr>150</tp1:hr>
</tp1:TrackPointExtension>
</extensions>
</trkpt>
<trkpt lat="50.6409657" lon="6.9237217">
<ele>165.0034180</ele>
<time>2011-08-15T13:58:51Z</time>
<extensions>
<tp1:TrackPointExtension>
<tp1:hr>152</tp1:hr>
</tp1:TrackPointExtension>
</extensions>
</trkpt>
<trkpt lat="50.6406524" lon="6.9248478">
<ele>164.5227051</ele>
<time>2011-08-15T13:59:01Z</time>
<extensions>
<tp1:TrackPointExtension>
<tp1:hr>156</tp1:hr>
</tp1:TrackPointExtension>
</extensions>
</trkpt>
<trkpt lat="50.6404623" lon="6.9254612">
<ele>165.0034180</ele>
<time>2011-08-15T13:59:07Z</time>
<extensions>
<tp1:TrackPointExtension>
<tp1:hr>157</tp1:hr>
</tp1:TrackPointExtension>
</extensions>
</trkpt>
<trkpt lat="50.6403712" lon="6.9257444">
<ele>165.4841309</ele>
<time>2011-08-15T13:59:11Z</time>
<extensions>
<tp1:TrackPointExtension>
<tp1:hr>155</tp1:hr>
</tp1:TrackPointExtension>
</extensions>
</trkpt>
<trkpt lat="50.6403903" lon="6.9259420">
<ele>165.4841309</ele>
<time>2011-08-15T13:59:14Z</time>
<extensions>
<tp1:TrackPointExtension>
<tp1:hr>153</tp1:hr>
</tp1:TrackPointExtension>
</extensions>
</trkpt>
<trkpt lat="50.6404350" lon="6.9259920">
<ele>165.0034180</ele>
<time>2011-08-15T13:59:15Z</time>
<extensions>
<tp1:TrackPointExtension>
<tp1:hr>153</tp1:hr>
</tp1:TrackPointExtension>
</extensions>
</trkpt>
<trkpt lat="50.6409617" lon="6.9264222">
<ele>163.0808105</ele>
<time>2011-08-15T13:59:24Z</time>
<extensions>
<tp1:TrackPointExtension>
<tp1:hr>150</tp1:hr>
</tp1:TrackPointExtension>
</extensions>
</trkpt>
<trkpt lat="50.6416619" lon="6.9269836">
<ele>160.6774902</ele>
<time>2011-08-15T13:59:35Z</time>
<extensions>
<tp1:TrackPointExtension>
<tp1:hr>149</tp1:hr>
</tp1:TrackPointExtension>
</extensions>
</trkpt>
<trkpt lat="50.6422898" lon="6.9275477">
<ele>157.3128662</ele>
<time>2011-08-15T13:59:45Z</time>
<extensions>
<tp1:TrackPointExtension>
<tp1:hr>146</tp1:hr>
</tp1:TrackPointExtension>
</extensions>
</trkpt>
<trkpt lat="50.6425297" lon="6.9279672">
<ele>155.8709717</ele>
<time>2011-08-15T13:59:50Z</time>
<extensions>
<tp1:TrackPointExtension>
<tp1:hr>144</tp1:hr>
</tp1:TrackPointExtension>
</extensions>
</trkpt>
<trkpt lat="50.6429388" lon="6.9289229">
<ele>157.3128662</ele>
<time>2011-08-15T14:00:00Z</time>
<extensions>
<tp1:TrackPointExtension>
<tp1:hr>145</tp1:hr>
</tp1:TrackPointExtension>
</extensions>
</trkpt>
<trkpt lat="50.6432644" lon="6.9296833">
<ele>157.7935791</ele>
<time>2011-08-15T14:00:08Z</time>
<extensions>
<tp1:TrackPointExtension>
<tp1:hr>145</tp1:hr>
</tp1:TrackPointExtension>
</extensions>
</trkpt>
<trkpt lat="50.6437484" lon="6.9307937">
<ele>158.2741699</ele>
<time>2011-08-15T14:00:20Z</time>
<extensions>
<tp1:TrackPointExtension>
<tp1:hr>146</tp1:hr>
</tp1:TrackPointExtension>
</extensions>
</trkpt>
<trkpt lat="50.6440226" lon="6.9314194">
<ele>158.2741699</ele>
<time>2011-08-15T14:00:27Z</time>
<extensions>
<tp1:TrackPointExtension>
<tp1:hr>145</tp1:hr>
</tp1:TrackPointExtension>
</extensions>
</trkpt>
<trkpt lat="50.6442499" lon="6.9319317">
<ele>157.7935791</ele>
<time>2011-08-15T14:00:33Z</time>
<extensions>
<tp1:TrackPointExtension>
<tp1:hr>144</tp1:hr>
</tp1:TrackPointExtension>
</extensions>
</trkpt>
<trkpt lat="50.6445805" lon="6.9327470">
<ele>158.2741699</ele>
<time>2011-08-15T14:00:42Z</time>
<extensions>
<tp1:TrackPointExtension>
<tp1:hr>143</tp1:hr>
</tp1:TrackPointExtension>
</extensions>
</trkpt>
<trkpt lat="50.6450109" lon="6.9337747">
<ele>155.3902588</ele>
<time>2011-08-15T14:00:54Z</time>
<extensions>
<tp1:TrackPointExtension>
<tp1:hr>144</tp1:hr>
</tp1:TrackPointExtension>
</extensions>
</trkpt>
<trkpt lat="50.6452462" lon="6.9343472">
<ele>157.7935791</ele>
<time>2011-08-15T14:01:01Z</time>
<extensions>
<tp1:TrackPointExtension>
<tp1:hr>145</tp1:hr>
</tp1:TrackPointExtension>
</extensions>
</trkpt>
<trkpt lat="50.6454140" lon="6.9347553">
<ele>161.6389160</ele>
<time>2011-08-15T14:01:06Z</time>
<extensions>
<tp1:TrackPointExtension>
<tp1:hr>145</tp1:hr>
</tp1:TrackPointExtension>
</extensions>
</trkpt>
<trkpt lat="50.6456182" lon="6.9352636">
<ele>162.6000977</ele>
<time>2011-08-15T14:01:12Z</time>
<extensions>
<tp1:TrackPointExtension>
<tp1:hr>147</tp1:hr>
</tp1:TrackPointExtension>
</extensions>
</trkpt>
<trkpt lat="50.6458626" lon="6.9358274">
<ele>161.6389160</ele>
<time>2011-08-15T14:01:19Z</time>
<extensions>
<tp1:TrackPointExtension>
<tp1:hr>152</tp1:hr>
</tp1:TrackPointExtension>
</extensions>
</trkpt>
<trkpt lat="50.6461294" lon="6.9364555">
<ele>162.1195068</ele>
<time>2011-08-15T14:01:27Z</time>
<extensions>
<tp1:TrackPointExtension>
<tp1:hr>152</tp1:hr>
</tp1:TrackPointExtension>
</extensions>
</trkpt>
<trkpt lat="50.6464066" lon="6.9371170">
<ele>162.1195068</ele>
<time>2011-08-15T14:01:35Z</time>
<extensions>
<tp1:TrackPointExtension>
<tp1:hr>153</tp1:hr>
</tp1:TrackPointExtension>
</extensions>
</trkpt>
<trkpt lat="50.6467137" lon="6.9378179">
<ele>163.5615234</ele>
<time>2011-08-15T14:01:43Z</time>
<extensions>
<tp1:TrackPointExtension>
<tp1:hr>152</tp1:hr>
</tp1:TrackPointExtension>
</extensions>
</trkpt>
<trkpt lat="50.6469404" lon="6.9384773">
<ele>165.4841309</ele>
<time>2011-08-15T14:01:49Z</time>
<extensions>
<tp1:TrackPointExtension>
<tp1:hr>151</tp1:hr>
</tp1:TrackPointExtension>
</extensions>
</trkpt>
<trkpt lat="50.6471819" lon="6.9393219">
<ele>167.8873291</ele>
<time>2011-08-15T14:01:56Z</time>
<extensions>
<tp1:TrackPointExtension>
<tp1:hr>145</tp1:hr>
</tp1:TrackPointExtension>
</extensions>
</trkpt>
<trkpt lat="50.6474026" lon="6.9403633">
<ele>168.3680420</ele>
<time>2011-08-15T14:02:04Z</time>
<extensions>
<tp1:TrackPointExtension>
<tp1:hr>140</tp1:hr>
</tp1:TrackPointExtension>
</extensions>
</trkpt>
<trkpt lat="50.6474806" lon="6.9408925">
<ele>167.4067383</ele>
<time>2011-08-15T14:02:08Z</time>
<extensions>
<tp1:TrackPointExtension>
<tp1:hr>135</tp1:hr>
</tp1:TrackPointExtension>
</extensions>
</trkpt>
<trkpt lat="50.6475144" lon="6.9411523">
<ele>166.9260254</ele>
<time>2011-08-15T14:02:10Z</time>
<extensions>
<tp1:TrackPointExtension>
<tp1:hr>130</tp1:hr>
</tp1:TrackPointExtension>
</extensions>
</trkpt>
<trkpt lat="50.6476417" lon="6.9420391">
<ele>165.4841309</ele>
<time>2011-08-15T14:02:17Z</time>
<extensions>
<tp1:TrackPointExtension>
<tp1:hr>125</tp1:hr>
</tp1:TrackPointExtension>
</extensions>
</trkpt>
<trkpt lat="50.6478397" lon="6.9435137">
<ele>165.4841309</ele>
<time>2011-08-15T14:02:29Z</time>
<extensions>
<tp1:TrackPointExtension>
<tp1:hr>126</tp1:hr>
</tp1:TrackPointExtension>
</extensions>
</trkpt>
<trkpt lat="50.6478683" lon="6.9443484">
<ele>165.9647217</ele>
<time>2011-08-15T14:02:36Z</time>
<extensions>
<tp1:TrackPointExtension>
<tp1:hr>128</tp1:hr>
</tp1:TrackPointExtension>
</extensions>
</trkpt>
<trkpt lat="50.6478816" lon="6.9455021">
<ele>166.4453125</ele>
<time>2011-08-15T14:02:46Z</time>
<extensions>
<tp1:TrackPointExtension>
<tp1:hr>131</tp1:hr>
</tp1:TrackPointExtension>
</extensions>
</trkpt>
<trkpt lat="50.6479459" lon="6.9465281">
<ele>167.4067383</ele>
<time>2011-08-15T14:02:55Z</time>
<extensions>
<tp1:TrackPointExtension>
<tp1:hr>135</tp1:hr>
</tp1:TrackPointExtension>
</extensions>
</trkpt>
<trkpt lat="50.6479267" lon="6.9473462">
<ele>167.8873291</ele>
<time>2011-08-15T14:03:02Z</time>
<extensions>
<tp1:TrackPointExtension>
<tp1:hr>138</tp1:hr>
</tp1:TrackPointExtension>
</extensions>
</trkpt>
<trkpt lat="50.6478538" lon="6.9480118">
<ele>167.4067383</ele>
<time>2011-08-15T14:03:08Z</time>
<extensions>
<tp1:TrackPointExtension>
<tp1:hr>141</tp1:hr>
</tp1:TrackPointExtension>
</extensions>
</trkpt>
<trkpt lat="50.6478269" lon="6.9482771">
<ele>167.4067383</ele>
<time>2011-08-15T14:03:12Z</time>
<extensions>
<tp1:TrackPointExtension>
<tp1:hr>141</tp1:hr>
</tp1:TrackPointExtension>
</extensions>
</trkpt>
<trkpt lat="50.6478169" lon="6.9484716">
<ele>167.4067383</ele>
<time>2011-08-15T14:03:17Z</time>
<extensions>
<tp1:TrackPointExtension>
<tp1:hr>138</tp1:hr>
</tp1:TrackPointExtension>
</extensions>
</trkpt>
<trkpt lat="50.6478139" lon="6.9485474">
<ele>166.9260254</ele>
<time>2011-08-15T14:03:18Z</time>
<extensions>
<tp1:TrackPointExtension>
<tp1:hr>138</tp1:hr>
</tp1:TrackPointExtension>
</extensions>
</trkpt>
<trkpt lat="50.6478081" lon="6.9491988">
<ele>164.5227051</ele>
<time>2011-08-15T14:03:25Z</time>
<extensions>
<tp1:TrackPointExtension>
<tp1:hr>140</tp1:hr>
</tp1:TrackPointExtension>
</extensions>
</trkpt>
<trkpt lat="50.6477709" lon="6.9497414">
<ele>164.0421143</ele>
<time>2011-08-15T14:03:30Z</time>
<extensions>
<tp1:TrackPointExtension>
<tp1:hr>145</tp1:hr>
</tp1:TrackPointExtension>
</extensions>
</trkpt>
<trkpt lat="50.6476767" lon="6.9503039">
<ele>164.5227051</ele>
<time>2011-08-15T14:03:35Z</time>
<extensions>
<tp1:TrackPointExtension>
<tp1:hr>150</tp1:hr>
</tp1:TrackPointExtension>
</extensions>
</trkpt>
<trkpt lat="50.6475259" lon="6.9507158">
<ele>164.0421143</ele>
<time>2011-08-15T14:03:39Z</time>
<extensions>
<tp1:TrackPointExtension>
<tp1:hr>155</tp1:hr>
</tp1:TrackPointExtension>
</extensions>
</trkpt>
<trkpt lat="50.6472128" lon="6.9512398">
<ele>163.0808105</ele>
<time>2011-08-15T14:03:45Z</time>
<extensions>
<tp1:TrackPointExtension>
<tp1:hr>158</tp1:hr>
</tp1:TrackPointExtension>
</extensions>
</trkpt>
<trkpt lat="50.6467763" lon="6.9519005">
<ele>162.1195068</ele>
<time>2011-08-15T14:03:53Z</time>
<extensions>
<tp1:TrackPointExtension>
<tp1:hr>163</tp1:hr>
</tp1:TrackPointExtension>
</extensions>
</trkpt>
<trkpt lat="50.6461868" lon="6.9528233">
<ele>162.1195068</ele>
<time>2011-08-15T14:04:04Z</time>
<extensions>
<tp1:TrackPointExtension>
<tp1:hr>165</tp1:hr>
</tp1:TrackPointExtension>
</extensions>
</trkpt>
<trkpt lat="50.6458552" lon="6.9534756">
<ele>162.1195068</ele>
<time>2011-08-15T14:04:11Z</time>
<extensions>
<tp1:TrackPointExtension>
<tp1:hr>163</tp1:hr>
</tp1:TrackPointExtension>
</extensions>
</trkpt>
<trkpt lat="50.6453849" lon="6.9545564">
<ele>162.1195068</ele>
<time>2011-08-15T14:04:22Z</time>
<extensions>
<tp1:TrackPointExtension>
<tp1:hr>160</tp1:hr>
</tp1:TrackPointExtension>
</extensions>
</trkpt>
<trkpt lat="50.6448290" lon="6.9558335">
<ele>162.1195068</ele>
<time>2011-08-15T14:04:35Z</time>
<extensions>
<tp1:TrackPointExtension>
<tp1:hr>157</tp1:hr>
</tp1:TrackPointExtension>
</extensions>
</trkpt>
<trkpt lat="50.6443561" lon="6.9569147">
<ele>162.6000977</ele>
<time>2011-08-15T14:04:46Z</time>
<extensions>
<tp1:TrackPointExtension>
<tp1:hr>156</tp1:hr>
</tp1:TrackPointExtension>
</extensions>
</trkpt>
<trkpt lat="50.6438833" lon="6.9580161">
<ele>162.6000977</ele>
<time>2011-08-15T14:04:57Z</time>
<extensions>
<tp1:TrackPointExtension>
<tp1:hr>154</tp1:hr>
</tp1:TrackPointExtension>
</extensions>
</trkpt>
<trkpt lat="50.6436033" lon="6.9588666">
<ele>162.6000977</ele>
<time>2011-08-15T14:05:05Z</time>
<extensions>
<tp1:TrackPointExtension>
<tp1:hr>152</tp1:hr>
</tp1:TrackPointExtension>
</extensions>
</trkpt>
<trkpt lat="50.6432125" lon="6.9601389">
<ele>163.0808105</ele>
<time>2011-08-15T14:05:17Z</time>
<extensions>
<tp1:TrackPointExtension>
<tp1:hr>150</tp1:hr>
</tp1:TrackPointExtension>
</extensions>
</trkpt>
<trkpt lat="50.6428851" lon="6.9612135">
<ele>163.5615234</ele>
<time>2011-08-15T14:05:27Z</time>
<extensions>
<tp1:TrackPointExtension>
<tp1:hr>150</tp1:hr>
</tp1:TrackPointExtension>
</extensions>
</trkpt>
<trkpt lat="50.6424876" lon="6.9624013">
<ele>163.5615234</ele>
<time>2011-08-15T14:05:38Z</time>
<extensions>
<tp1:TrackPointExtension>
<tp1:hr>149</tp1:hr>
</tp1:TrackPointExtension>
</extensions>
</trkpt>
<trkpt lat="50.6421680" lon="6.9630644">
<ele>164.0421143</ele>
<time>2011-08-15T14:05:45Z</time>
<extensions>
<tp1:TrackPointExtension>
<tp1:hr>149</tp1:hr>
</tp1:TrackPointExtension>
</extensions>
</trkpt>
<trkpt lat="50.6421205" lon="6.9631510">
<ele>164.0421143</ele>
<time>2011-08-15T14:05:46Z</time>
<extensions>
<tp1:TrackPointExtension>
<tp1:hr>149</tp1:hr>
</tp1:TrackPointExtension>
</extensions>
</trkpt>
<trkpt lat="50.6419295" lon="6.9634267">
<ele>164.0421143</ele>
<time>2011-08-15T14:05:50Z</time>
<extensions>
<tp1:TrackPointExtension>
<tp1:hr>145</tp1:hr>
</tp1:TrackPointExtension>
</extensions>
</trkpt>
<trkpt lat="50.6417609" lon="6.9635684">
<ele>165.0034180</ele>
<time>2011-08-15T14:05:54Z</time>
<extensions>
<tp1:TrackPointExtension>
<tp1:hr>142</tp1:hr>
</tp1:TrackPointExtension>
</extensions>
</trkpt>
<trkpt lat="50.6417201" lon="6.9638400">
<ele>165.0034180</ele>
<time>2011-08-15T14:05:57Z</time>
<extensions>
<tp1:TrackPointExtension>
<tp1:hr>143</tp1:hr>
</tp1:TrackPointExtension>
</extensions>
</trkpt>
<trkpt lat="50.6416995" lon="6.9639463">
<ele>165.0034180</ele>
<time>2011-08-15T14:05:58Z</time>
<extensions>
<tp1:TrackPointExtension>
<tp1:hr>143</tp1:hr>
</tp1:TrackPointExtension>
</extensions>
</trkpt>
<trkpt lat="50.6416197" lon="6.9642579">
<ele>164.5227051</ele>
<time>2011-08-15T14:06:01Z</time>
<extensions>
<tp1:TrackPointExtension>
<tp1:hr>144</tp1:hr>
</tp1:TrackPointExtension>
</extensions>
</trkpt>
<trkpt lat="50.6415388" lon="6.9650098">
<ele>167.8873291</ele>
<time>2011-08-15T14:06:07Z</time>
<extensions>
<tp1:TrackPointExtension>
<tp1:hr>145</tp1:hr>
</tp1:TrackPointExtension>
</extensions>
</trkpt>
<trkpt lat="50.6414585" lon="6.9655918">
<ele>168.8487549</ele>
<time>2011-08-15T14:06:12Z</time>
<extensions>
<tp1:TrackPointExtension>
<tp1:hr>147</tp1:hr>
</tp1:TrackPointExtension>
</extensions>
</trkpt>
<trkpt lat="50.6414334" lon="6.9658200">
<ele>168.3680420</ele>
<time>2011-08-15T14:06:14Z</time>
<extensions>
<tp1:TrackPointExtension>
<tp1:hr>148</tp1:hr>
</tp1:TrackPointExtension>
</extensions>
</trkpt>
<trkpt lat="50.6412803" lon="6.9663540">
<ele>169.3294678</ele>
<time>2011-08-15T14:06:19Z</time>
<extensions>
<tp1:TrackPointExtension>
<tp1:hr>149</tp1:hr>
</tp1:TrackPointExtension>
</extensions>
</trkpt>
<trkpt lat="50.6410087" lon="6.9670124">
<ele>166.4453125</ele>
<time>2011-08-15T14:06:26Z</time>
<extensions>
<tp1:TrackPointExtension>
<tp1:hr>151</tp1:hr>
</tp1:TrackPointExtension>
</extensions>
</trkpt>
<trkpt lat="50.6408208" lon="6.9676506">
<ele>161.6389160</ele>
<time>2011-08-15T14:06:32Z</time>
<extensions>
<tp1:TrackPointExtension>
<tp1:hr>153</tp1:hr>
</tp1:TrackPointExtension>
</extensions>
</trkpt>
<trkpt lat="50.6408282" lon="6.9681157">
<ele>157.7935791</ele>
<time>2011-08-15T14:06:36Z</time>
<extensions>
<tp1:TrackPointExtension>
<tp1:hr>154</tp1:hr>
</tp1:TrackPointExtension>
</extensions>
</trkpt>
<trkpt lat="50.6411069" lon="6.9689512">
<ele>153.9483643</ele>
<time>2011-08-15T14:06:44Z</time>
<extensions>
<tp1:TrackPointExtension>
<tp1:hr>158</tp1:hr>
</tp1:TrackPointExtension>
</extensions>
</trkpt>
<trkpt lat="50.6414928" lon="6.9699728">
<ele>152.5063477</ele>
<time>2011-08-15T14:06:54Z</time>
<extensions>
<tp1:TrackPointExtension>
<tp1:hr>162</tp1:hr>
</tp1:TrackPointExtension>
</extensions>
</trkpt>
<trkpt lat="50.6418742" lon="6.9710041">
<ele>152.0257568</ele>
<time>2011-08-15T14:07:04Z</time>
<extensions>
<tp1:TrackPointExtension>
<tp1:hr>164</tp1:hr>
</tp1:TrackPointExtension>
</extensions>
</trkpt>
<trkpt lat="50.6423667" lon="6.9723597">
<ele>151.0642090</ele>
<time>2011-08-15T14:07:17Z</time>
<extensions>
<tp1:TrackPointExtension>
<tp1:hr>164</tp1:hr>
</tp1:TrackPointExtension>
</extensions>
</trkpt>
<trkpt lat="50.6428259" lon="6.9736289">
<ele>151.0642090</ele>
<time>2011-08-15T14:07:29Z</time>
<extensions>
<tp1:TrackPointExtension>
<tp1:hr>164</tp1:hr>
</tp1:TrackPointExtension>
</extensions>
</trkpt>
<trkpt lat="50.6432818" lon="6.9749017">
<ele>150.5836182</ele>
<time>2011-08-15T14:07:41Z</time>
<extensions>
<tp1:TrackPointExtension>
<tp1:hr>164</tp1:hr>
</tp1:TrackPointExtension>
</extensions>
</trkpt>
<trkpt lat="50.6436553" lon="6.9759521">
<ele>150.5836182</ele>
<time>2011-08-15T14:07:51Z</time>
<extensions>
<tp1:TrackPointExtension>
<tp1:hr>163</tp1:hr>
</tp1:TrackPointExtension>
</extensions>
</trkpt>
<trkpt lat="50.6441167" lon="6.9772224">
<ele>150.1030273</ele>
<time>2011-08-15T14:08:03Z</time>
<extensions>
<tp1:TrackPointExtension>
<tp1:hr>162</tp1:hr>
</tp1:TrackPointExtension>
</extensions>
</trkpt>
<trkpt lat="50.6445308" lon="6.9783837">
<ele>149.1416016</ele>
<time>2011-08-15T14:08:14Z</time>
<extensions>
<tp1:TrackPointExtension>
<tp1:hr>162</tp1:hr>
</tp1:TrackPointExtension>
</extensions>
</trkpt>
<trkpt lat="50.6449067" lon="6.9794459">
<ele>148.6610107</ele>
<time>2011-08-15T14:08:24Z</time>
<extensions>
<tp1:TrackPointExtension>
<tp1:hr>161</tp1:hr>
</tp1:TrackPointExtension>
</extensions>
</trkpt>
<trkpt lat="50.6452317" lon="6.9804467">
<ele>148.6610107</ele>
<time>2011-08-15T14:08:33Z</time>
<extensions>
<tp1:TrackPointExtension>
<tp1:hr>159</tp1:hr>
</tp1:TrackPointExtension>
</extensions>
</trkpt>
<trkpt lat="50.6453393" lon="6.9808808">
<ele>149.1416016</ele>
<time>2011-08-15T14:08:37Z</time>
<extensions>
<tp1:TrackPointExtension>
<tp1:hr>158</tp1:hr>
</tp1:TrackPointExtension>
</extensions>
</trkpt>
<trkpt lat="50.6454330" lon="6.9812453">
<ele>150.1030273</ele>
<time>2011-08-15T14:08:42Z</time>
<extensions>
<tp1:TrackPointExtension>
<tp1:hr>156</tp1:hr>
</tp1:TrackPointExtension>
</extensions>
</trkpt>
<trkpt lat="50.6455269" lon="6.9816783">
<ele>149.6223145</ele>
<time>2011-08-15T14:08:46Z</time>
<extensions>
<tp1:TrackPointExtension>
<tp1:hr>155</tp1:hr>
</tp1:TrackPointExtension>
</extensions>
</trkpt>
<trkpt lat="50.6457435" lon="6.9826397">
<ele>148.6610107</ele>
<time>2011-08-15T14:08:54Z</time>
<extensions>
<tp1:TrackPointExtension>
<tp1:hr>156</tp1:hr>
</tp1:TrackPointExtension>
</extensions>
</trkpt>
<trkpt lat="50.6459605" lon="6.9835890">
<ele>147.6997070</ele>
<time>2011-08-15T14:09:02Z</time>
<extensions>
<tp1:TrackPointExtension>
<tp1:hr>156</tp1:hr>
</tp1:TrackPointExtension>
</extensions>
</trkpt>
<trkpt lat="50.6461729" lon="6.9845387">
<ele>149.1416016</ele>
<time>2011-08-15T14:09:10Z</time>
<extensions>
<tp1:TrackPointExtension>
<tp1:hr>157</tp1:hr>
</tp1:TrackPointExtension>
</extensions>
</trkpt>
<trkpt lat="50.6462545" lon="6.9850137">
<ele>147.6997070</ele>
<time>2011-08-15T14:09:14Z</time>
<extensions>
<tp1:TrackPointExtension>
<tp1:hr>158</tp1:hr>
</tp1:TrackPointExtension>
</extensions>
</trkpt>
<trkpt lat="50.6462229" lon="6.9856105">
<ele>149.6223145</ele>
<time>2011-08-15T14:09:18Z</time>
<extensions>
<tp1:TrackPointExtension>
<tp1:hr>158</tp1:hr>
</tp1:TrackPointExtension>
</extensions>
</trkpt>
<trkpt lat="50.6460694" lon="6.9860507">
<ele>150.5836182</ele>
<time>2011-08-15T14:09:22Z</time>
<extensions>
<tp1:TrackPointExtension>
<tp1:hr>159</tp1:hr>
</tp1:TrackPointExtension>
</extensions>
</trkpt>
<trkpt lat="50.6459290" lon="6.9863248">
<ele>150.5836182</ele>
<time>2011-08-15T14:09:25Z</time>
<extensions>
<tp1:TrackPointExtension>
<tp1:hr>160</tp1:hr>
</tp1:TrackPointExtension>
</extensions>
</trkpt>
<trkpt lat="50.6455362" lon="6.9869840">
<ele>151.0642090</ele>
<time>2011-08-15T14:09:32Z</time>
<extensions>
<tp1:TrackPointExtension>
<tp1:hr>161</tp1:hr>
</tp1:TrackPointExtension>
</extensions>
</trkpt>
<trkpt lat="50.6451374" lon="6.9875440">
<ele>152.9869385</ele>
<time>2011-08-15T14:09:39Z</time>
<extensions>
<tp1:TrackPointExtension>
<tp1:hr>161</tp1:hr>
</tp1:TrackPointExtension>
</extensions>
</trkpt>
<trkpt lat="50.6447457" lon="6.9879570">
<ele>153.4676514</ele>
<time>2011-08-15T14:09:46Z</time>
<extensions>
<tp1:TrackPointExtension>
<tp1:hr>158</tp1:hr>
</tp1:TrackPointExtension>
</extensions>
</trkpt>
<trkpt lat="50.6446692" lon="6.9881885">
<ele>153.9483643</ele>
<time>2011-08-15T14:09:49Z</time>
<extensions>
<tp1:TrackPointExtension>
<tp1:hr>157</tp1:hr>
</tp1:TrackPointExtension>
</extensions>
</trkpt>
<trkpt lat="50.6447774" lon="6.9884567">
<ele>153.9483643</ele>
<time>2011-08-15T14:09:52Z</time>
<extensions>
<tp1:TrackPointExtension>
<tp1:hr>158</tp1:hr>
</tp1:TrackPointExtension>
</extensions>
</trkpt>
<trkpt lat="50.6452160" lon="6.9891750">
<ele>153.4676514</ele>
<time>2011-08-15T14:10:01Z</time>
<extensions>
<tp1:TrackPointExtension>
<tp1:hr>158</tp1:hr>
</tp1:TrackPointExtension>
</extensions>
</trkpt>
<trkpt lat="50.6455511" lon="6.9897710">
<ele>152.5063477</ele>
<time>2011-08-15T14:10:08Z</time>
<extensions>
<tp1:TrackPointExtension>
<tp1:hr>157</tp1:hr>
</tp1:TrackPointExtension>
</extensions>
</trkpt>
<trkpt lat="50.6459298" lon="6.9904438">
<ele>152.9869385</ele>
<time>2011-08-15T14:10:16Z</time>
<extensions>
<tp1:TrackPointExtension>
<tp1:hr>157</tp1:hr>
</tp1:TrackPointExtension>
</extensions>
</trkpt>
<trkpt lat="50.6462856" lon="6.9910279">
<ele>150.1030273</ele>
<time>2011-08-15T14:10:23Z</time>
<extensions>
<tp1:TrackPointExtension>
<tp1:hr>157</tp1:hr>
</tp1:TrackPointExtension>
</extensions>
</trkpt>
<trkpt lat="50.6466500" lon="6.9914467">
<ele>150.5836182</ele>
<time>2011-08-15T14:10:29Z</time>
<extensions>
<tp1:TrackPointExtension>
<tp1:hr>157</tp1:hr>
</tp1:TrackPointExtension>
</extensions>
</trkpt>
<trkpt lat="50.6472208" lon="6.9919850">
<ele>150.5836182</ele>
<time>2011-08-15T14:10:38Z</time>
<extensions>
<tp1:TrackPointExtension>
<tp1:hr>159</tp1:hr>
</tp1:TrackPointExtension>
</extensions>
</trkpt>
<trkpt lat="50.6475876" lon="6.9923778">
<ele>151.5449219</ele>
<time>2011-08-15T14:10:44Z</time>
<extensions>
<tp1:TrackPointExtension>
<tp1:hr>161</tp1:hr>
</tp1:TrackPointExtension>
</extensions>
</trkpt>
<trkpt lat="50.6481311" lon="6.9929404">
<ele>148.6610107</ele>
<time>2011-08-15T14:10:53Z</time>
<extensions>
<tp1:TrackPointExtension>
<tp1:hr>162</tp1:hr>
</tp1:TrackPointExtension>
</extensions>
</trkpt>
<trkpt lat="50.6487848" lon="6.9936261">
<ele>147.2189941</ele>
<time>2011-08-15T14:11:04Z</time>
<extensions>
<tp1:TrackPointExtension>
<tp1:hr>164</tp1:hr>
</tp1:TrackPointExtension>
</extensions>
</trkpt>
<trkpt lat="50.6494869" lon="6.9943657">
<ele>145.7770996</ele>
<time>2011-08-15T14:11:16Z</time>
<extensions>
<tp1:TrackPointExtension>
<tp1:hr>166</tp1:hr>
</tp1:TrackPointExtension>
</extensions>
</trkpt>
<trkpt lat="50.6501777" lon="6.9950785">
<ele>149.1416016</ele>
<time>2011-08-15T14:11:28Z</time>
<extensions>
<tp1:TrackPointExtension>
<tp1:hr>169</tp1:hr>
</tp1:TrackPointExtension>
</extensions>
</trkpt>
<trkpt lat="50.6508068" lon="6.9957133">
<ele>152.9869385</ele>
<time>2011-08-15T14:11:39Z</time>
<extensions>
<tp1:TrackPointExtension>
<tp1:hr>171</tp1:hr>
</tp1:TrackPointExtension>
</extensions>
</trkpt>
<trkpt lat="50.6513699" lon="6.9962821">
<ele>154.4289551</ele>
<time>2011-08-15T14:11:49Z</time>
<extensions>
<tp1:TrackPointExtension>
<tp1:hr>174</tp1:hr>
</tp1:TrackPointExtension>
</extensions>
</trkpt>
<trkpt lat="50.6518009" lon="6.9967587">
<ele>152.9869385</ele>
<time>2011-08-15T14:11:57Z</time>
<extensions>
<tp1:TrackPointExtension>
<tp1:hr>175</tp1:hr>
</tp1:TrackPointExtension>
</extensions>
</trkpt>
<trkpt lat="50.6523385" lon="6.9972992">
<ele>156.8321533</ele>
<time>2011-08-15T14:12:06Z</time>
<extensions>
<tp1:TrackPointExtension>
<tp1:hr>176</tp1:hr>
</tp1:TrackPointExtension>
</extensions>
</trkpt>
<trkpt lat="50.6528540" lon="6.9978166">
<ele>155.8709717</ele>
<time>2011-08-15T14:12:15Z</time>
<extensions>
<tp1:TrackPointExtension>
<tp1:hr>177</tp1:hr>
</tp1:TrackPointExtension>
</extensions>
</trkpt>
<trkpt lat="50.6533152" lon="6.9982748">
<ele>154.9095459</ele>
<time>2011-08-15T14:12:23Z</time>
<extensions>
<tp1:TrackPointExtension>
<tp1:hr>176</tp1:hr>
</tp1:TrackPointExtension>
</extensions>
</trkpt>
<trkpt lat="50.6538949" lon="6.9989321">
<ele>157.7935791</ele>
<time>2011-08-15T14:12:33Z</time>
<extensions>
<tp1:TrackPointExtension>
<tp1:hr>176</tp1:hr>
</tp1:TrackPointExtension>
</extensions>
</trkpt>
<trkpt lat="50.6546199" lon="6.9997177">
<ele>157.3128662</ele>
<time>2011-08-15T14:12:45Z</time>
<extensions>
<tp1:TrackPointExtension>
<tp1:hr>175</tp1:hr>
</tp1:TrackPointExtension>
</extensions>
</trkpt>
<trkpt lat="50.6553493" lon="7.0004800">
<ele>151.0642090</ele>
<time>2011-08-15T14:12:57Z</time>
<extensions>
<tp1:TrackPointExtension>
<tp1:hr>172</tp1:hr>
</tp1:TrackPointExtension>
</extensions>
</trkpt>
<trkpt lat="50.6560200" lon="7.0012192">
<ele>149.1416016</ele>
<time>2011-08-15T14:13:08Z</time>
<extensions>
<tp1:TrackPointExtension>
<tp1:hr>168</tp1:hr>
</tp1:TrackPointExtension>
</extensions>
</trkpt>
<trkpt lat="50.6562557" lon="7.0014749">
<ele>149.1416016</ele>
<time>2011-08-15T14:13:12Z</time>
<extensions>
<tp1:TrackPointExtension>
<tp1:hr>166</tp1:hr>
</tp1:TrackPointExtension>
</extensions>
</trkpt>
<trkpt lat="50.6563781" lon="7.0017362">
<ele>149.6223145</ele>
<time>2011-08-15T14:13:15Z</time>
<extensions>
<tp1:TrackPointExtension>
<tp1:hr>165</tp1:hr>
</tp1:TrackPointExtension>
</extensions>
</trkpt>
<trkpt lat="50.6565463" lon="7.0019214">
<ele>150.1030273</ele>
<time>2011-08-15T14:13:18Z</time>
<extensions>
<tp1:TrackPointExtension>
<tp1:hr>164</tp1:hr>
</tp1:TrackPointExtension>
</extensions>
</trkpt>
<trkpt lat="50.6566192" lon="7.0019319">
<ele>150.1030273</ele>
<time>2011-08-15T14:13:19Z</time>
<extensions>
<tp1:TrackPointExtension>
<tp1:hr>164</tp1:hr>
</tp1:TrackPointExtension>
</extensions>
</trkpt>
<trkpt lat="50.6569460" lon="7.0021992">
<ele>150.5836182</ele>
<time>2011-08-15T14:13:24Z</time>
<extensions>
<tp1:TrackPointExtension>
<tp1:hr>163</tp1:hr>
</tp1:TrackPointExtension>
</extensions>
</trkpt>
<trkpt lat="50.6576261" lon="7.0028924">
<ele>152.0257568</ele>
<time>2011-08-15T14:13:35Z</time>
<extensions>
<tp1:TrackPointExtension>
<tp1:hr>163</tp1:hr>
</tp1:TrackPointExtension>
</extensions>
</trkpt>
<trkpt lat="50.6583153" lon="7.0036147">
<ele>152.0257568</ele>
<time>2011-08-15T14:13:46Z</time>
<extensions>
<tp1:TrackPointExtension>
<tp1:hr>162</tp1:hr>
</tp1:TrackPointExtension>
</extensions>
</trkpt>
<trkpt lat="50.6588821" lon="7.0042071">
<ele>152.9869385</ele>
<time>2011-08-15T14:13:55Z</time>
<extensions>
<tp1:TrackPointExtension>
<tp1:hr>161</tp1:hr>
</tp1:TrackPointExtension>
</extensions>
</trkpt>
<trkpt lat="50.6595675" lon="7.0049155">
<ele>153.4676514</ele>
<time>2011-08-15T14:14:06Z</time>
<extensions>
<tp1:TrackPointExtension>
<tp1:hr>159</tp1:hr>
</tp1:TrackPointExtension>
</extensions>
</trkpt>
<trkpt lat="50.6604513" lon="7.0058123">
<ele>154.9095459</ele>
<time>2011-08-15T14:14:20Z</time>
<extensions>
<tp1:TrackPointExtension>
<tp1:hr>158</tp1:hr>
</tp1:TrackPointExtension>
</extensions>
</trkpt>
<trkpt lat="50.6609601" lon="7.0063274">
<ele>155.8709717</ele>
<time>2011-08-15T14:14:28Z</time>
<extensions>
<tp1:TrackPointExtension>
<tp1:hr>156</tp1:hr>
</tp1:TrackPointExtension>
</extensions>
</trkpt>
<trkpt lat="50.6616050" lon="7.0070044">
<ele>155.8709717</ele>
<time>2011-08-15T14:14:38Z</time>
<extensions>
<tp1:TrackPointExtension>
<tp1:hr>153</tp1:hr>
</tp1:TrackPointExtension>
</extensions>
</trkpt>
<trkpt lat="50.6622434" lon="7.0076830">
<ele>155.8709717</ele>
<time>2011-08-15T14:14:48Z</time>
<extensions>
<tp1:TrackPointExtension>
<tp1:hr>152</tp1:hr>
</tp1:TrackPointExtension>
</extensions>
</trkpt>
<trkpt lat="50.6629588" lon="7.0084240">
<ele>156.3515625</ele>
<time>2011-08-15T14:14:59Z</time>
<extensions>
<tp1:TrackPointExtension>
<tp1:hr>152</tp1:hr>
</tp1:TrackPointExtension>
</extensions>
</trkpt>
<trkpt lat="50.6636018" lon="7.0090951">
<ele>157.3128662</ele>
<time>2011-08-15T14:15:09Z</time>
<extensions>
<tp1:TrackPointExtension>
<tp1:hr>155</tp1:hr>
</tp1:TrackPointExtension>
</extensions>
</trkpt>
<trkpt lat="50.6642430" lon="7.0097591">
<ele>157.7935791</ele>
<time>2011-08-15T14:15:19Z</time>
<extensions>
<tp1:TrackPointExtension>
<tp1:hr>156</tp1:hr>
</tp1:TrackPointExtension>
</extensions>
</trkpt>
<trkpt lat="50.6649562" lon="7.0104992">
<ele>157.3128662</ele>
<time>2011-08-15T14:15:30Z</time>
<extensions>
<tp1:TrackPointExtension>
<tp1:hr>159</tp1:hr>
</tp1:TrackPointExtension>
</extensions>
</trkpt>
<trkpt lat="50.6653481" lon="7.0108905">
<ele>155.3902588</ele>
<time>2011-08-15T14:15:36Z</time>
<extensions>
<tp1:TrackPointExtension>
<tp1:hr>160</tp1:hr>
</tp1:TrackPointExtension>
</extensions>
</trkpt>
<trkpt lat="50.6658827" lon="7.0114337">
<ele>152.5063477</ele>
<time>2011-08-15T14:15:44Z</time>
<extensions>
<tp1:TrackPointExtension>
<tp1:hr>161</tp1:hr>
</tp1:TrackPointExtension>
</extensions>
</trkpt>
<trkpt lat="50.6664882" lon="7.0120647">
<ele>150.5836182</ele>
<time>2011-08-15T14:15:53Z</time>
<extensions>
<tp1:TrackPointExtension>
<tp1:hr>161</tp1:hr>
</tp1:TrackPointExtension>
</extensions>
</trkpt>
<trkpt lat="50.6670776" lon="7.0126672">
<ele>149.6223145</ele>
<time>2011-08-15T14:16:02Z</time>
<extensions>
<tp1:TrackPointExtension>
<tp1:hr>160</tp1:hr>
</tp1:TrackPointExtension>
</extensions>
</trkpt>
<trkpt lat="50.6675484" lon="7.0131115">
<ele>148.6610107</ele>
<time>2011-08-15T14:16:09Z</time>
<extensions>
<tp1:TrackPointExtension>
<tp1:hr>160</tp1:hr>
</tp1:TrackPointExtension>
</extensions>
</trkpt>
<trkpt lat="50.6679548" lon="7.0135119">
<ele>148.1804199</ele>
<time>2011-08-15T14:16:15Z</time>
<extensions>
<tp1:TrackPointExtension>
<tp1:hr>161</tp1:hr>
</tp1:TrackPointExtension>
</extensions>
</trkpt>
<trkpt lat="50.6683544" lon="7.0139271">
<ele>147.6997070</ele>
<time>2011-08-15T14:16:21Z</time>
<extensions>
<tp1:TrackPointExtension>
<tp1:hr>161</tp1:hr>
</tp1:TrackPointExtension>
</extensions>
</trkpt>
<trkpt lat="50.6687577" lon="7.0143254">
<ele>147.6997070</ele>
<time>2011-08-15T14:16:27Z</time>
<extensions>
<tp1:TrackPointExtension>
<tp1:hr>162</tp1:hr>
</tp1:TrackPointExtension>
</extensions>
</trkpt>
<trkpt lat="50.6693282" lon="7.0146195">
<ele>150.1030273</ele>
<time>2011-08-15T14:16:35Z</time>
<extensions>
<tp1:TrackPointExtension>
<tp1:hr>162</tp1:hr>
</tp1:TrackPointExtension>
</extensions>
</trkpt>
<trkpt lat="50.6698635" lon="7.0148775">
<ele>151.5449219</ele>
<time>2011-08-15T14:16:42Z</time>
<extensions>
<tp1:TrackPointExtension>
<tp1:hr>163</tp1:hr>
</tp1:TrackPointExtension>
</extensions>
</trkpt>
<trkpt lat="50.6706293" lon="7.0152431">
<ele>150.5836182</ele>
<time>2011-08-15T14:16:52Z</time>
<extensions>
<tp1:TrackPointExtension>
<tp1:hr>162</tp1:hr>
</tp1:TrackPointExtension>
</extensions>
</trkpt>
<trkpt lat="50.6714693" lon="7.0156498">
<ele>151.5449219</ele>
<time>2011-08-15T14:17:03Z</time>
<extensions>
<tp1:TrackPointExtension>
<tp1:hr>162</tp1:hr>
</tp1:TrackPointExtension>
</extensions>
</trkpt>
<trkpt lat="50.6721537" lon="7.0159770">
<ele>151.0642090</ele>
<time>2011-08-15T14:17:12Z</time>
<extensions>
<tp1:TrackPointExtension>
<tp1:hr>162</tp1:hr>
</tp1:TrackPointExtension>
</extensions>
</trkpt>
<trkpt lat="50.6728411" lon="7.0162676">
<ele>151.0642090</ele>
<time>2011-08-15T14:17:21Z</time>
<extensions>
<tp1:TrackPointExtension>
<tp1:hr>161</tp1:hr>
</tp1:TrackPointExtension>
</extensions>
</trkpt>
<trkpt lat="50.6736013" lon="7.0165280">
<ele>150.5836182</ele>
<time>2011-08-15T14:17:31Z</time>
<extensions>
<tp1:TrackPointExtension>
<tp1:hr>161</tp1:hr>
</tp1:TrackPointExtension>
</extensions>
</trkpt>
<trkpt lat="50.6742237" lon="7.0166040">
<ele>148.6610107</ele>
<time>2011-08-15T14:17:39Z</time>
<extensions>
<tp1:TrackPointExtension>
<tp1:hr>161</tp1:hr>
</tp1:TrackPointExtension>
</extensions>
</trkpt>
<trkpt lat="50.6747822" lon="7.0165337">
<ele>147.6997070</ele>
<time>2011-08-15T14:17:46Z</time>
<extensions>
<tp1:TrackPointExtension>
<tp1:hr>159</tp1:hr>
</tp1:TrackPointExtension>
</extensions>
</trkpt>
<trkpt lat="50.6754751" lon="7.0163238">
<ele>147.6997070</ele>
<time>2011-08-15T14:17:55Z</time>
<extensions>
<tp1:TrackPointExtension>
<tp1:hr>157</tp1:hr>
</tp1:TrackPointExtension>
</extensions>
</trkpt>
<trkpt lat="50.6757668" lon="7.0162511">
<ele>150.1030273</ele>
<time>2011-08-15T14:17:59Z</time>
<extensions>
<tp1:TrackPointExtension>
<tp1:hr>157</tp1:hr>
</tp1:TrackPointExtension>
</extensions>
</trkpt>
<trkpt lat="50.6763070" lon="7.0163953">
<ele>152.5063477</ele>
<time>2011-08-15T14:18:06Z</time>
<extensions>
<tp1:TrackPointExtension>
<tp1:hr>160</tp1:hr>
</tp1:TrackPointExtension>
</extensions>
</trkpt>
<trkpt lat="50.6766614" lon="7.0165534">
<ele>155.3902588</ele>
<time>2011-08-15T14:18:11Z</time>
<extensions>
<tp1:TrackPointExtension>
<tp1:hr>160</tp1:hr>
</tp1:TrackPointExtension>
</extensions>
</trkpt>
<trkpt lat="50.6768697" lon="7.0166231">
<ele>157.7935791</ele>
<time>2011-08-15T14:18:14Z</time>
<extensions>
<tp1:TrackPointExtension>
<tp1:hr>161</tp1:hr>
</tp1:TrackPointExtension>
</extensions>
</trkpt>
<trkpt lat="50.6773665" lon="7.0166890">
<ele>157.7935791</ele>
<time>2011-08-15T14:18:21Z</time>
<extensions>
<tp1:TrackPointExtension>
<tp1:hr>162</tp1:hr>
</tp1:TrackPointExtension>
</extensions>
</trkpt>
<trkpt lat="50.6779341" lon="7.0167627">
<ele>155.3902588</ele>
<time>2011-08-15T14:18:29Z</time>
<extensions>
<tp1:TrackPointExtension>
<tp1:hr>162</tp1:hr>
</tp1:TrackPointExtension>
</extensions>
</trkpt>
<trkpt lat="50.6782931" lon="7.0168005">
<ele>154.9095459</ele>
<time>2011-08-15T14:18:34Z</time>
<extensions>
<tp1:TrackPointExtension>
<tp1:hr>159</tp1:hr>
</tp1:TrackPointExtension>
</extensions>
</trkpt>
<trkpt lat="50.6787705" lon="7.0168040">
<ele>155.3902588</ele>
<time>2011-08-15T14:18:41Z</time>
<extensions>
<tp1:TrackPointExtension>
<tp1:hr>157</tp1:hr>
</tp1:TrackPointExtension>
</extensions>
</trkpt>
<trkpt lat="50.6791391" lon="7.0168770">
<ele>152.0257568</ele>
<time>2011-08-15T14:18:45Z</time>
<extensions>
<tp1:TrackPointExtension>
<tp1:hr>156</tp1:hr>
</tp1:TrackPointExtension>
</extensions>
</trkpt>
<trkpt lat="50.6794286" lon="7.0172599">
<ele>148.6610107</ele>
<time>2011-08-15T14:18:49Z</time>
<extensions>
<tp1:TrackPointExtension>
<tp1:hr>154</tp1:hr>
</tp1:TrackPointExtension>
</extensions>
</trkpt>
<trkpt lat="50.6797695" lon="7.0174675">
<ele>150.5836182</ele>
<time>2011-08-15T14:18:54Z</time>
<extensions>
<tp1:TrackPointExtension>
<tp1:hr>149</tp1:hr>
</tp1:TrackPointExtension>
</extensions>
</trkpt>
<trkpt lat="50.6798529" lon="7.0174606">
<ele>150.1030273</ele>
<time>2011-08-15T14:18:55Z</time>
<extensions>
<tp1:TrackPointExtension>
<tp1:hr>149</tp1:hr>
</tp1:TrackPointExtension>
</extensions>
</trkpt>
<trkpt lat="50.6802309" lon="7.0174412">
<ele>152.9869385</ele>
<time>2011-08-15T14:19:00Z</time>
<extensions>
<tp1:TrackPointExtension>
<tp1:hr>147</tp1:hr>
</tp1:TrackPointExtension>
</extensions>
</trkpt>
<trkpt lat="50.6805742" lon="7.0175100">
<ele>156.8321533</ele>
<time>2011-08-15T14:19:04Z</time>
<extensions>
<tp1:TrackPointExtension>
<tp1:hr>143</tp1:hr>
</tp1:TrackPointExtension>
</extensions>
</trkpt>
<trkpt lat="50.6808573" lon="7.0175093">
<ele>159.7161865</ele>
<time>2011-08-15T14:19:09Z</time>
<extensions>
<tp1:TrackPointExtension>
<tp1:hr>138</tp1:hr>
</tp1:TrackPointExtension>
</extensions>
</trkpt>
<trkpt lat="50.6810618" lon="7.0175002">
<ele>152.9869385</ele>
<time>2011-08-15T14:19:15Z</time>
<extensions>
<tp1:TrackPointExtension>
<tp1:hr>137</tp1:hr>
</tp1:TrackPointExtension>
</extensions>
</trkpt>
<trkpt lat="50.6811281" lon="7.0175126">
<ele>151.5449219</ele>
<time>2011-08-15T14:19:21Z</time>
<extensions>
<tp1:TrackPointExtension>
<tp1:hr>136</tp1:hr>
</tp1:TrackPointExtension>
</extensions>
</trkpt>
<trkpt lat="50.6811438" lon="7.0175147">
<ele>149.1416016</ele>
<time>2011-08-15T14:19:28Z</time>
<extensions>
<tp1:TrackPointExtension>
<tp1:hr>136</tp1:hr>
</tp1:TrackPointExtension>
</extensions>
</trkpt>
<trkpt lat="50.6811573" lon="7.0175261">
<ele>148.6610107</ele>
<time>2011-08-15T14:19:48Z</time>
<extensions>
<tp1:TrackPointExtension>
<tp1:hr>131</tp1:hr>
</tp1:TrackPointExtension>
</extensions>
</trkpt>
<trkpt lat="50.6811746" lon="7.0175316">
<ele>148.1804199</ele>
<time>2011-08-15T14:19:50Z</time>
<extensions>
<tp1:TrackPointExtension>
<tp1:hr>130</tp1:hr>
</tp1:TrackPointExtension>
</extensions>
</trkpt>
<trkpt lat="50.6813183" lon="7.0175519">
<ele>148.6610107</ele>
<time>2011-08-15T14:19:54Z</time>
<extensions>
<tp1:TrackPointExtension>
<tp1:hr>132</tp1:hr>
</tp1:TrackPointExtension>
</extensions>
</trkpt>
<trkpt lat="50.6814953" lon="7.0177191">
<ele>149.6223145</ele>
<time>2011-08-15T14:19:57Z</time>
<extensions>
<tp1:TrackPointExtension>
<tp1:hr>136</tp1:hr>
</tp1:TrackPointExtension>
</extensions>
</trkpt>
<trkpt lat="50.6816156" lon="7.0179307">
<ele>149.6223145</ele>
<time>2011-08-15T14:19:59Z</time>
<extensions>
<tp1:TrackPointExtension>
<tp1:hr>139</tp1:hr>
</tp1:TrackPointExtension>
</extensions>
</trkpt>
<trkpt lat="50.6817332" lon="7.0182037">
<ele>148.6610107</ele>
<time>2011-08-15T14:20:01Z</time>
<extensions>
<tp1:TrackPointExtension>
<tp1:hr>144</tp1:hr>
</tp1:TrackPointExtension>
</extensions>
</trkpt>
<trkpt lat="50.6819408" lon="7.0184993">
<ele>147.2189941</ele>
<time>2011-08-15T14:20:04Z</time>
<extensions>
<tp1:TrackPointExtension>
<tp1:hr>150</tp1:hr>
</tp1:TrackPointExtension>
</extensions>
</trkpt>
<trkpt lat="50.6821704" lon="7.0187399">
<ele>148.6610107</ele>
<time>2011-08-15T14:20:07Z</time>
<extensions>
<tp1:TrackPointExtension>
<tp1:hr>157</tp1:hr>
</tp1:TrackPointExtension>
</extensions>
</trkpt>
<trkpt lat="50.6822600" lon="7.0187574">
<ele>148.6610107</ele>
<time>2011-08-15T14:20:08Z</time>
<extensions>
<tp1:TrackPointExtension>
<tp1:hr>163</tp1:hr>
</tp1:TrackPointExtension>
</extensions>
</trkpt>
<trkpt lat="50.6823501" lon="7.0187750">
<ele>148.6610107</ele>
<time>2011-08-15T14:20:09Z</time>
<extensions>
<tp1:TrackPointExtension>
<tp1:hr>165</tp1:hr>
</tp1:TrackPointExtension>
</extensions>
</trkpt>
<trkpt lat="50.6826190" lon="7.0188279">
<ele>148.6610107</ele>
<time>2011-08-15T14:20:12Z</time>
<extensions>
<tp1:TrackPointExtension>
<tp1:hr>168</tp1:hr>
</tp1:TrackPointExtension>
</extensions>
</trkpt>
<trkpt lat="50.6827086" lon="7.0188513">
<ele>148.6610107</ele>
<time>2011-08-15T14:20:13Z</time>
<extensions>
<tp1:TrackPointExtension>
<tp1:hr>167</tp1:hr>
</tp1:TrackPointExtension>
</extensions>
</trkpt>
<trkpt lat="50.6830671" lon="7.0189424">
<ele>146.7384033</ele>
<time>2011-08-15T14:20:17Z</time>
<extensions>
<tp1:TrackPointExtension>
<tp1:hr>173</tp1:hr>
</tp1:TrackPointExtension>
</extensions>
</trkpt>
<trkpt lat="50.6836469" lon="7.0193615">
<ele>142.4124756</ele>
<time>2011-08-15T14:20:24Z</time>
<extensions>
<tp1:TrackPointExtension>
<tp1:hr>176</tp1:hr>
</tp1:TrackPointExtension>
</extensions>
</trkpt>
<trkpt lat="50.6841407" lon="7.0198290">
<ele>139.5284424</ele>
<time>2011-08-15T14:20:30Z</time>
<extensions>
<tp1:TrackPointExtension>
<tp1:hr>177</tp1:hr>
</tp1:TrackPointExtension>
</extensions>
</trkpt>
<trkpt lat="50.6846551" lon="7.0202213">
<ele>138.0865479</ele>
<time>2011-08-15T14:20:36Z</time>
<extensions>
<tp1:TrackPointExtension>
<tp1:hr>177</tp1:hr>
</tp1:TrackPointExtension>
</extensions>
</trkpt>
<trkpt lat="50.6852772" lon="7.0206039">
<ele>139.0478516</ele>
<time>2011-08-15T14:20:43Z</time>
<extensions>
<tp1:TrackPointExtension>
<tp1:hr>177</tp1:hr>
</tp1:TrackPointExtension>
</extensions>
</trkpt>
<trkpt lat="50.6858339" lon="7.0209609">
<ele>138.5672607</ele>
<time>2011-08-15T14:20:49Z</time>
<extensions>
<tp1:TrackPointExtension>
<tp1:hr>177</tp1:hr>
</tp1:TrackPointExtension>
</extensions>
</trkpt>
<trkpt lat="50.6865422" lon="7.0214941">
<ele>139.5284424</ele>
<time>2011-08-15T14:20:57Z</time>
<extensions>
<tp1:TrackPointExtension>
<tp1:hr>174</tp1:hr>
</tp1:TrackPointExtension>
</extensions>
</trkpt>
<trkpt lat="50.6869872" lon="7.0217713">
<ele>140.4898682</ele>
<time>2011-08-15T14:21:02Z</time>
<extensions>
<tp1:TrackPointExtension>
<tp1:hr>172</tp1:hr>
</tp1:TrackPointExtension>
</extensions>
</trkpt>
<trkpt lat="50.6876536" lon="7.0221011">
<ele>140.9704590</ele>
<time>2011-08-15T14:21:09Z</time>
<extensions>
<tp1:TrackPointExtension>
<tp1:hr>169</tp1:hr>
</tp1:TrackPointExtension>
</extensions>
</trkpt>
<trkpt lat="50.6882471" lon="7.0223791">
<ele>138.5672607</ele>
<time>2011-08-15T14:21:15Z</time>
<extensions>
<tp1:TrackPointExtension>
<tp1:hr>168</tp1:hr>
</tp1:TrackPointExtension>
</extensions>
</trkpt>
<trkpt lat="50.6889315" lon="7.0226825">
<ele>136.1639404</ele>
<time>2011-08-15T14:21:22Z</time>
<extensions>
<tp1:TrackPointExtension>
<tp1:hr>166</tp1:hr>
</tp1:TrackPointExtension>
</extensions>
</trkpt>
<trkpt lat="50.6893215" lon="7.0227617">
<ele>135.6831055</ele>
<time>2011-08-15T14:21:26Z</time>
<extensions>
<tp1:TrackPointExtension>
<tp1:hr>162</tp1:hr>
</tp1:TrackPointExtension>
</extensions>
</trkpt>
<trkpt lat="50.6896653" lon="7.0228053">
<ele>136.6446533</ele>
<time>2011-08-15T14:21:30Z</time>
<extensions>
<tp1:TrackPointExtension>
<tp1:hr>159</tp1:hr>
</tp1:TrackPointExtension>
</extensions>
</trkpt>
<trkpt lat="50.6902279" lon="7.0226745">
<ele>141.9317627</ele>
<time>2011-08-15T14:21:37Z</time>
<extensions>
<tp1:TrackPointExtension>
<tp1:hr>155</tp1:hr>
</tp1:TrackPointExtension>
</extensions>
</trkpt>
<trkpt lat="50.6906509" lon="7.0226088">
<ele>140.9704590</ele>
<time>2011-08-15T14:21:42Z</time>
<extensions>
<tp1:TrackPointExtension>
<tp1:hr>151</tp1:hr>
</tp1:TrackPointExtension>
</extensions>
</trkpt>
<trkpt lat="50.6908210" lon="7.0225964">
<ele>142.4124756</ele>
<time>2011-08-15T14:21:45Z</time>
<extensions>
<tp1:TrackPointExtension>
<tp1:hr>151</tp1:hr>
</tp1:TrackPointExtension>
</extensions>
</trkpt>
<trkpt lat="50.6908817" lon="7.0226118">
<ele>144.8157959</ele>
<time>2011-08-15T14:21:48Z</time>
<extensions>
<tp1:TrackPointExtension>
<tp1:hr>149</tp1:hr>
</tp1:TrackPointExtension>
</extensions>
</trkpt>
<trkpt lat="50.6910014" lon="7.0226353">
<ele>144.8157959</ele>
<time>2011-08-15T14:21:53Z</time>
<extensions>
<tp1:TrackPointExtension>
<tp1:hr>145</tp1:hr>
</tp1:TrackPointExtension>
</extensions>
</trkpt>
<trkpt lat="50.6911786" lon="7.0226902">
<ele>143.8543701</ele>
<time>2011-08-15T14:21:57Z</time>
<extensions>
<tp1:TrackPointExtension>
<tp1:hr>146</tp1:hr>
</tp1:TrackPointExtension>
</extensions>
</trkpt>
<trkpt lat="50.6914155" lon="7.0227816">
<ele>142.8930664</ele>
<time>2011-08-15T14:22:01Z</time>
<extensions>
<tp1:TrackPointExtension>
<tp1:hr>146</tp1:hr>
</tp1:TrackPointExtension>
</extensions>
</trkpt>
<trkpt lat="50.6918303" lon="7.0229779">
<ele>135.2025146</ele>
<time>2011-08-15T14:22:07Z</time>
<extensions>
<tp1:TrackPointExtension>
<tp1:hr>150</tp1:hr>
</tp1:TrackPointExtension>
</extensions>
</trkpt>
<trkpt lat="50.6921571" lon="7.0232162">
<ele>131.3572998</ele>
<time>2011-08-15T14:22:12Z</time>
<extensions>
<tp1:TrackPointExtension>
<tp1:hr>153</tp1:hr>
</tp1:TrackPointExtension>
</extensions>
</trkpt>
<trkpt lat="50.6922452" lon="7.0232842">
<ele>130.3959961</ele>
<time>2011-08-15T14:22:15Z</time>
<extensions>
<tp1:TrackPointExtension>
<tp1:hr>153</tp1:hr>
</tp1:TrackPointExtension>
</extensions>
</trkpt>
<trkpt lat="50.6922618" lon="7.0232999">
<ele>130.8767090</ele>
<time>2011-08-15T14:22:17Z</time>
<extensions>
<tp1:TrackPointExtension>
<tp1:hr>153</tp1:hr>
</tp1:TrackPointExtension>
</extensions>
</trkpt>
<trkpt lat="50.6923854" lon="7.0234087">
<ele>131.8378906</ele>
<time>2011-08-15T14:22:21Z</time>
<extensions>
<tp1:TrackPointExtension>
<tp1:hr>153</tp1:hr>
</tp1:TrackPointExtension>
</extensions>
</trkpt>
<trkpt lat="50.6925959" lon="7.0235543">
<ele>131.8378906</ele>
<time>2011-08-15T14:22:24Z</time>
<extensions>
<tp1:TrackPointExtension>
<tp1:hr>154</tp1:hr>
</tp1:TrackPointExtension>
</extensions>
</trkpt>
<trkpt lat="50.6926476" lon="7.0236235">
<ele>132.3186035</ele>
<time>2011-08-15T14:22:25Z</time>
<extensions>
<tp1:TrackPointExtension>
<tp1:hr>155</tp1:hr>
</tp1:TrackPointExtension>
</extensions>
</trkpt>
<trkpt lat="50.6928357" lon="7.0237790">
<ele>131.3572998</ele>
<time>2011-08-15T14:22:29Z</time>
<extensions>
<tp1:TrackPointExtension>
<tp1:hr>159</tp1:hr>
</tp1:TrackPointExtension>
</extensions>
</trkpt>
<trkpt lat="50.6929247" lon="7.0238314">
<ele>131.3572998</ele>
<time>2011-08-15T14:22:32Z</time>
<extensions>
<tp1:TrackPointExtension>
<tp1:hr>159</tp1:hr>
</tp1:TrackPointExtension>
</extensions>
</trkpt>
<trkpt lat="50.6930098" lon="7.0238758">
<ele>132.7993164</ele>
<time>2011-08-15T14:22:34Z</time>
<extensions>
<tp1:TrackPointExtension>
<tp1:hr>159</tp1:hr>
</tp1:TrackPointExtension>
</extensions>
</trkpt>
<trkpt lat="50.6931098" lon="7.0239490">
<ele>134.7219238</ele>
<time>2011-08-15T14:22:36Z</time>
<extensions>
<tp1:TrackPointExtension>
<tp1:hr>159</tp1:hr>
</tp1:TrackPointExtension>
</extensions>
</trkpt>
<trkpt lat="50.6934274" lon="7.0241359">
<ele>135.6831055</ele>
<time>2011-08-15T14:22:41Z</time>
<extensions>
<tp1:TrackPointExtension>
<tp1:hr>158</tp1:hr>
</tp1:TrackPointExtension>
</extensions>
</trkpt>
<trkpt lat="50.6936330" lon="7.0242550">
<ele>132.7993164</ele>
<time>2011-08-15T14:22:44Z</time>
<extensions>
<tp1:TrackPointExtension>
<tp1:hr>159</tp1:hr>
</tp1:TrackPointExtension>
</extensions>
</trkpt>
<trkpt lat="50.6942060" lon="7.0245399">
<ele>127.9925537</ele>
<time>2011-08-15T14:22:51Z</time>
<extensions>
<tp1:TrackPointExtension>
<tp1:hr>160</tp1:hr>
</tp1:TrackPointExtension>
</extensions>
</trkpt>
<trkpt lat="50.6945688" lon="7.0247275">
<ele>125.1087646</ele>
<time>2011-08-15T14:22:56Z</time>
<extensions>
<tp1:TrackPointExtension>
<tp1:hr>162</tp1:hr>
</tp1:TrackPointExtension>
</extensions>
</trkpt>
<trkpt lat="50.6949314" lon="7.0248408">
<ele>124.6280518</ele>
<time>2011-08-15T14:23:00Z</time>
<extensions>
<tp1:TrackPointExtension>
<tp1:hr>162</tp1:hr>
</tp1:TrackPointExtension>
</extensions>
</trkpt>
<trkpt lat="50.6950124" lon="7.0248611">
<ele>124.1473389</ele>
<time>2011-08-15T14:23:01Z</time>
<extensions>
<tp1:TrackPointExtension>
<tp1:hr>162</tp1:hr>
</tp1:TrackPointExtension>
</extensions>
</trkpt>
<trkpt lat="50.6953999" lon="7.0248155">
<ele>124.1473389</ele>
<time>2011-08-15T14:23:05Z</time>
<extensions>
<tp1:TrackPointExtension>
<tp1:hr>163</tp1:hr>
</tp1:TrackPointExtension>
</extensions>
</trkpt>
<trkpt lat="50.6961262" lon="7.0245348">
<ele>122.2247314</ele>
<time>2011-08-15T14:23:13Z</time>
<extensions>
<tp1:TrackPointExtension>
<tp1:hr>164</tp1:hr>
</tp1:TrackPointExtension>
</extensions>
</trkpt>
<trkpt lat="50.6965989" lon="7.0243628">
<ele>120.7828369</ele>
<time>2011-08-15T14:23:18Z</time>
<extensions>
<tp1:TrackPointExtension>
<tp1:hr>164</tp1:hr>
</tp1:TrackPointExtension>
</extensions>
</trkpt>
<trkpt lat="50.6973377" lon="7.0240914">
<ele>118.8601074</ele>
<time>2011-08-15T14:23:26Z</time>
<extensions>
<tp1:TrackPointExtension>
<tp1:hr>165</tp1:hr>
</tp1:TrackPointExtension>
</extensions>
</trkpt>
<trkpt lat="50.6979837" lon="7.0237338">
<ele>118.8601074</ele>
<time>2011-08-15T14:23:33Z</time>
<extensions>
<tp1:TrackPointExtension>
<tp1:hr>165</tp1:hr>
</tp1:TrackPointExtension>
</extensions>
</trkpt>
<trkpt lat="50.6984624" lon="7.0236179">
<ele>118.8601074</ele>
<time>2011-08-15T14:23:38Z</time>
<extensions>
<tp1:TrackPointExtension>
<tp1:hr>165</tp1:hr>
</tp1:TrackPointExtension>
</extensions>
</trkpt>
<trkpt lat="50.6986554" lon="7.0235998">
<ele>118.8601074</ele>
<time>2011-08-15T14:23:40Z</time>
<extensions>
<tp1:TrackPointExtension>
<tp1:hr>165</tp1:hr>
</tp1:TrackPointExtension>
</extensions>
</trkpt>
<trkpt lat="50.6990140" lon="7.0233905">
<ele>118.3793945</ele>
<time>2011-08-15T14:23:44Z</time>
<extensions>
<tp1:TrackPointExtension>
<tp1:hr>165</tp1:hr>
</tp1:TrackPointExtension>
</extensions>
</trkpt>
<trkpt lat="50.6991723" lon="7.0232388">
<ele>118.3793945</ele>
<time>2011-08-15T14:23:46Z</time>
<extensions>
<tp1:TrackPointExtension>
<tp1:hr>165</tp1:hr>
</tp1:TrackPointExtension>
</extensions>
</trkpt>
<trkpt lat="50.6996326" lon="7.0225483">
<ele>117.8988037</ele>
<time>2011-08-15T14:23:53Z</time>
<extensions>
<tp1:TrackPointExtension>
<tp1:hr>163</tp1:hr>
</tp1:TrackPointExtension>
</extensions>
</trkpt>
<trkpt lat="50.7001527" lon="7.0217014">
<ele>117.4182129</ele>
<time>2011-08-15T14:24:02Z</time>
<extensions>
<tp1:TrackPointExtension>
<tp1:hr>162</tp1:hr>
</tp1:TrackPointExtension>
</extensions>
</trkpt>
<trkpt lat="50.7005943" lon="7.0210116">
<ele>119.3408203</ele>
<time>2011-08-15T14:24:10Z</time>
<extensions>
<tp1:TrackPointExtension>
<tp1:hr>160</tp1:hr>
</tp1:TrackPointExtension>
</extensions>
</trkpt>
<trkpt lat="50.7010363" lon="7.0203073">
<ele>117.4182129</ele>
<time>2011-08-15T14:24:18Z</time>
<extensions>
<tp1:TrackPointExtension>
<tp1:hr>157</tp1:hr>
</tp1:TrackPointExtension>
</extensions>
</trkpt>
<trkpt lat="50.7013803" lon="7.0197918">
<ele>117.8988037</ele>
<time>2011-08-15T14:24:24Z</time>
<extensions>
<tp1:TrackPointExtension>
<tp1:hr>155</tp1:hr>
</tp1:TrackPointExtension>
</extensions>
</trkpt>
<trkpt lat="50.7018927" lon="7.0192307">
<ele>116.4567871</ele>
<time>2011-08-15T14:24:32Z</time>
<extensions>
<tp1:TrackPointExtension>
<tp1:hr>150</tp1:hr>
</tp1:TrackPointExtension>
</extensions>
</trkpt>
<trkpt lat="50.7024641" lon="7.0186505">
<ele>115.0148926</ele>
<time>2011-08-15T14:24:41Z</time>
<extensions>
<tp1:TrackPointExtension>
<tp1:hr>147</tp1:hr>
</tp1:TrackPointExtension>
</extensions>
</trkpt>
<trkpt lat="50.7029986" lon="7.0181250">
<ele>114.5341797</ele>
<time>2011-08-15T14:24:50Z</time>
<extensions>
<tp1:TrackPointExtension>
<tp1:hr>145</tp1:hr>
</tp1:TrackPointExtension>
</extensions>
</trkpt>
<trkpt lat="50.7035820" lon="7.0174956">
<ele>113.0922852</ele>
<time>2011-08-15T14:25:00Z</time>
<extensions>
<tp1:TrackPointExtension>
<tp1:hr>144</tp1:hr>
</tp1:TrackPointExtension>
</extensions>
</trkpt>
<trkpt lat="50.7039329" lon="7.0169428">
<ele>113.0922852</ele>
<time>2011-08-15T14:25:07Z</time>
<extensions>
<tp1:TrackPointExtension>
<tp1:hr>142</tp1:hr>
</tp1:TrackPointExtension>
</extensions>
</trkpt>
<trkpt lat="50.7042709" lon="7.0163351">
<ele>112.6115723</ele>
<time>2011-08-15T14:25:15Z</time>
<extensions>
<tp1:TrackPointExtension>
<tp1:hr>139</tp1:hr>
</tp1:TrackPointExtension>
</extensions>
</trkpt>
<trkpt lat="50.7043892" lon="7.0161201">
<ele>112.6115723</ele>
<time>2011-08-15T14:25:18Z</time>
<extensions>
<tp1:TrackPointExtension>
<tp1:hr>139</tp1:hr>
</tp1:TrackPointExtension>
</extensions>
</trkpt>
<trkpt lat="50.7044090" lon="7.0159178">
<ele>112.6115723</ele>
<time>2011-08-15T14:25:21Z</time>
<extensions>
<tp1:TrackPointExtension>
<tp1:hr>137</tp1:hr>
</tp1:TrackPointExtension>
</extensions>
</trkpt>
<trkpt lat="50.7043444" lon="7.0158141">
<ele>113.0922852</ele>
<time>2011-08-15T14:25:23Z</time>
<extensions>
<tp1:TrackPointExtension>
<tp1:hr>135</tp1:hr>
</tp1:TrackPointExtension>
</extensions>
</trkpt>
<trkpt lat="50.7039989" lon="7.0153654">
<ele>115.4956055</ele>
<time>2011-08-15T14:25:32Z</time>
<extensions>
<tp1:TrackPointExtension>
<tp1:hr>137</tp1:hr>
</tp1:TrackPointExtension>
</extensions>
</trkpt>
<trkpt lat="50.7037233" lon="7.0148646">
<ele>116.9375000</ele>
<time>2011-08-15T14:25:40Z</time>
<extensions>
<tp1:TrackPointExtension>
<tp1:hr>141</tp1:hr>
</tp1:TrackPointExtension>
</extensions>
</trkpt>
<trkpt lat="50.7036299" lon="7.0146511">
<ele>116.9375000</ele>
<time>2011-08-15T14:25:43Z</time>
<extensions>
<tp1:TrackPointExtension>
<tp1:hr>142</tp1:hr>
</tp1:TrackPointExtension>
</extensions>
</trkpt>
<trkpt lat="50.7035843" lon="7.0142586">
<ele>116.9375000</ele>
<time>2011-08-15T14:25:48Z</time>
<extensions>
<tp1:TrackPointExtension>
<tp1:hr>144</tp1:hr>
</tp1:TrackPointExtension>
</extensions>
</trkpt>
<trkpt lat="50.7036720" lon="7.0139823">
<ele>117.4182129</ele>
<time>2011-08-15T14:25:52Z</time>
<extensions>
<tp1:TrackPointExtension>
<tp1:hr>144</tp1:hr>
</tp1:TrackPointExtension>
</extensions>
</trkpt>
<trkpt lat="50.7037524" lon="7.0137864">
<ele>118.3793945</ele>
<time>2011-08-15T14:25:55Z</time>
<extensions>
<tp1:TrackPointExtension>
<tp1:hr>145</tp1:hr>
</tp1:TrackPointExtension>
</extensions>
</trkpt>
<trkpt lat="50.7038638" lon="7.0132618">
<ele>119.8214111</ele>
<time>2011-08-15T14:26:02Z</time>
<extensions>
<tp1:TrackPointExtension>
<tp1:hr>146</tp1:hr>
</tp1:TrackPointExtension>
</extensions>
</trkpt>
<trkpt lat="50.7039262" lon="7.0128546">
<ele>119.3408203</ele>
<time>2011-08-15T14:26:07Z</time>
<extensions>
<tp1:TrackPointExtension>
<tp1:hr>147</tp1:hr>
</tp1:TrackPointExtension>
</extensions>
</trkpt>
<trkpt lat="50.7039753" lon="7.0125789">
<ele>121.2635498</ele>
<time>2011-08-15T14:26:11Z</time>
<extensions>
<tp1:TrackPointExtension>
<tp1:hr>146</tp1:hr>
</tp1:TrackPointExtension>
</extensions>
</trkpt>
<trkpt lat="50.7040556" lon="7.0125641">
<ele>120.3021240</ele>
<time>2011-08-15T14:26:13Z</time>
<extensions>
<tp1:TrackPointExtension>
<tp1:hr>145</tp1:hr>
</tp1:TrackPointExtension>
</extensions>
</trkpt>
<trkpt lat="50.7041064" lon="7.0125903">
<ele>119.8214111</ele>
<time>2011-08-15T14:26:14Z</time>
<extensions>
<tp1:TrackPointExtension>
<tp1:hr>145</tp1:hr>
</tp1:TrackPointExtension>
</extensions>
</trkpt>
<trkpt lat="50.7042848" lon="7.0126563">
<ele>116.4567871</ele>
<time>2011-08-15T14:26:17Z</time>
<extensions>
<tp1:TrackPointExtension>
<tp1:hr>145</tp1:hr>
</tp1:TrackPointExtension>
</extensions>
</trkpt>
<trkpt lat="50.7045553" lon="7.0127219">
<ele>113.5729980</ele>
<time>2011-08-15T14:26:21Z</time>
<extensions>
<tp1:TrackPointExtension>
<tp1:hr>145</tp1:hr>
</tp1:TrackPointExtension>
</extensions>
</trkpt>
<trkpt lat="50.7052175" lon="7.0125460">
<ele>110.2082520</ele>
<time>2011-08-15T14:26:30Z</time>
<extensions>
<tp1:TrackPointExtension>
<tp1:hr>141</tp1:hr>
</tp1:TrackPointExtension>
</extensions>
</trkpt>
<trkpt lat="50.7054221" lon="7.0124969">
<ele>110.2082520</ele>
<time>2011-08-15T14:26:33Z</time>
<extensions>
<tp1:TrackPointExtension>
<tp1:hr>140</tp1:hr>
</tp1:TrackPointExtension>
</extensions>
</trkpt>
<trkpt lat="50.7059145" lon="7.0125091">
<ele>111.1695557</ele>
<time>2011-08-15T14:26:41Z</time>
<extensions>
<tp1:TrackPointExtension>
<tp1:hr>136</tp1:hr>
</tp1:TrackPointExtension>
</extensions>
</trkpt>
<trkpt lat="50.7060585" lon="7.0125098">
<ele>111.1695557</ele>
<time>2011-08-15T14:26:44Z</time>
<extensions>
<tp1:TrackPointExtension>
<tp1:hr>136</tp1:hr>
</tp1:TrackPointExtension>
</extensions>
</trkpt>
<trkpt lat="50.7063065" lon="7.0123969">
<ele>112.6115723</ele>
<time>2011-08-15T14:26:50Z</time>
<extensions>
<tp1:TrackPointExtension>
<tp1:hr>137</tp1:hr>
</tp1:TrackPointExtension>
</extensions>
</trkpt>
<trkpt lat="50.7066665" lon="7.0120844">
<ele>115.0148926</ele>
<time>2011-08-15T14:26:58Z</time>
<extensions>
<tp1:TrackPointExtension>
<tp1:hr>141</tp1:hr>
</tp1:TrackPointExtension>
</extensions>
</trkpt>
<trkpt lat="50.7071458" lon="7.0117245">
<ele>115.0148926</ele>
<time>2011-08-15T14:27:07Z</time>
<extensions>
<tp1:TrackPointExtension>
<tp1:hr>145</tp1:hr>
</tp1:TrackPointExtension>
</extensions>
</trkpt>
<trkpt lat="50.7075586" lon="7.0114799">
<ele>115.9761963</ele>
<time>2011-08-15T14:27:15Z</time>
<extensions>
<tp1:TrackPointExtension>
<tp1:hr>145</tp1:hr>
</tp1:TrackPointExtension>
</extensions>
</trkpt>
<trkpt lat="50.7077061" lon="7.0114456">
<ele>116.4567871</ele>
<time>2011-08-15T14:27:18Z</time>
<extensions>
<tp1:TrackPointExtension>
<tp1:hr>145</tp1:hr>
</tp1:TrackPointExtension>
</extensions>
</trkpt>
<trkpt lat="50.7078891" lon="7.0114773">
<ele>117.8988037</ele>
<time>2011-08-15T14:27:22Z</time>
<extensions>
<tp1:TrackPointExtension>
<tp1:hr>144</tp1:hr>
</tp1:TrackPointExtension>
</extensions>
</trkpt>
<trkpt lat="50.7080946" lon="7.0115814">
<ele>119.3408203</ele>
<time>2011-08-15T14:27:27Z</time>
<extensions>
<tp1:TrackPointExtension>
<tp1:hr>144</tp1:hr>
</tp1:TrackPointExtension>
</extensions>
</trkpt>
<trkpt lat="50.7083023" lon="7.0116316">
<ele>120.3021240</ele>
<time>2011-08-15T14:27:32Z</time>
<extensions>
<tp1:TrackPointExtension>
<tp1:hr>145</tp1:hr>
</tp1:TrackPointExtension>
</extensions>
</trkpt>
<trkpt lat="50.7086452" lon="7.0117264">
<ele>122.7054443</ele>
<time>2011-08-15T14:27:40Z</time>
<extensions>
<tp1:TrackPointExtension>
<tp1:hr>151</tp1:hr>
</tp1:TrackPointExtension>
</extensions>
</trkpt>
<trkpt lat="50.7088127" lon="7.0117679">
<ele>123.6667480</ele>
<time>2011-08-15T14:27:44Z</time>
<extensions>
<tp1:TrackPointExtension>
<tp1:hr>154</tp1:hr>
</tp1:TrackPointExtension>
</extensions>
</trkpt>
<trkpt lat="50.7090375" lon="7.0117973">
<ele>123.6667480</ele>
<time>2011-08-15T14:27:49Z</time>
<extensions>
<tp1:TrackPointExtension>
<tp1:hr>159</tp1:hr>
</tp1:TrackPointExtension>
</extensions>
</trkpt>
<trkpt lat="50.7092587" lon="7.0118460">
<ele>122.7054443</ele>
<time>2011-08-15T14:27:54Z</time>
<extensions>
<tp1:TrackPointExtension>
<tp1:hr>160</tp1:hr>
</tp1:TrackPointExtension>
</extensions>
</trkpt>
<trkpt lat="50.7095166" lon="7.0118778">
<ele>124.6280518</ele>
<time>2011-08-15T14:28:00Z</time>
<extensions>
<tp1:TrackPointExtension>
<tp1:hr>161</tp1:hr>
</tp1:TrackPointExtension>
</extensions>
</trkpt>
<trkpt lat="50.7098731" lon="7.0119574">
<ele>125.1087646</ele>
<time>2011-08-15T14:28:08Z</time>
<extensions>
<tp1:TrackPointExtension>
<tp1:hr>161</tp1:hr>
</tp1:TrackPointExtension>
</extensions>
</trkpt>
<trkpt lat="50.7099668" lon="7.0119844">
<ele>124.6280518</ele>
<time>2011-08-15T14:28:10Z</time>
<extensions>
<tp1:TrackPointExtension>
<tp1:hr>162</tp1:hr>
</tp1:TrackPointExtension>
</extensions>
</trkpt>
<trkpt lat="50.7103191" lon="7.0120880">
<ele>123.1861572</ele>
<time>2011-08-15T14:28:17Z</time>
<extensions>
<tp1:TrackPointExtension>
<tp1:hr>161</tp1:hr>
</tp1:TrackPointExtension>
</extensions>
</trkpt>
<trkpt lat="50.7106237" lon="7.0121529">
<ele>123.1861572</ele>
<time>2011-08-15T14:28:22Z</time>
<extensions>
<tp1:TrackPointExtension>
<tp1:hr>158</tp1:hr>
</tp1:TrackPointExtension>
</extensions>
</trkpt>
<trkpt lat="50.7111979" lon="7.0122854">
<ele>126.5506592</ele>
<time>2011-08-15T14:28:30Z</time>
<extensions>
<tp1:TrackPointExtension>
<tp1:hr>155</tp1:hr>
</tp1:TrackPointExtension>
</extensions>
</trkpt>
<trkpt lat="50.7113360" lon="7.0123139">
<ele>125.5893555</ele>
<time>2011-08-15T14:28:33Z</time>
<extensions>
<tp1:TrackPointExtension>
<tp1:hr>152</tp1:hr>
</tp1:TrackPointExtension>
</extensions>
</trkpt>
<trkpt lat="50.7116847" lon="7.0123977">
<ele>120.7828369</ele>
<time>2011-08-15T14:28:40Z</time>
<extensions>
<tp1:TrackPointExtension>
<tp1:hr>148</tp1:hr>
</tp1:TrackPointExtension>
</extensions>
</trkpt>
<trkpt lat="50.7118778" lon="7.0124813">
<ele>118.8601074</ele>
<time>2011-08-15T14:28:45Z</time>
<extensions>
<tp1:TrackPointExtension>
<tp1:hr>144</tp1:hr>
</tp1:TrackPointExtension>
</extensions>
</trkpt>
<trkpt lat="50.7119415" lon="7.0124872">
<ele>119.3408203</ele>
<time>2011-08-15T14:28:47Z</time>
<extensions>
<tp1:TrackPointExtension>
<tp1:hr>144</tp1:hr>
</tp1:TrackPointExtension>
</extensions>
</trkpt>
<trkpt lat="50.7122036" lon="7.0123489">
<ele>122.2247314</ele>
<time>2011-08-15T14:28:55Z</time>
<extensions>
<tp1:TrackPointExtension>
<tp1:hr>147</tp1:hr>
</tp1:TrackPointExtension>
</extensions>
</trkpt>
<trkpt lat="50.7124108" lon="7.0122248">
<ele>127.0313721</ele>
<time>2011-08-15T14:29:01Z</time>
<extensions>
<tp1:TrackPointExtension>
<tp1:hr>152</tp1:hr>
</tp1:TrackPointExtension>
</extensions>
</trkpt>
<trkpt lat="50.7126376" lon="7.0120651">
<ele>130.3959961</ele>
<time>2011-08-15T14:29:08Z</time>
<extensions>
<tp1:TrackPointExtension>
<tp1:hr>155</tp1:hr>
</tp1:TrackPointExtension>
</extensions>
</trkpt>
<trkpt lat="50.7128300" lon="7.0118411">
<ele>135.2025146</ele>
<time>2011-08-15T14:29:15Z</time>
<extensions>
<tp1:TrackPointExtension>
<tp1:hr>158</tp1:hr>
</tp1:TrackPointExtension>
</extensions>
</trkpt>
<trkpt lat="50.7129247" lon="7.0117949">
<ele>136.1639404</ele>
<time>2011-08-15T14:29:18Z</time>
<extensions>
<tp1:TrackPointExtension>
<tp1:hr>160</tp1:hr>
</tp1:TrackPointExtension>
</extensions>
</trkpt>
<trkpt lat="50.7130548" lon="7.0119290">
<ele>134.2412109</ele>
<time>2011-08-15T14:29:22Z</time>
<extensions>
<tp1:TrackPointExtension>
<tp1:hr>161</tp1:hr>
</tp1:TrackPointExtension>
</extensions>
</trkpt>
<trkpt lat="50.7132147" lon="7.0123209">
<ele>133.2799072</ele>
<time>2011-08-15T14:29:29Z</time>
<extensions>
<tp1:TrackPointExtension>
<tp1:hr>163</tp1:hr>
</tp1:TrackPointExtension>
</extensions>
</trkpt>
<trkpt lat="50.7134218" lon="7.0127821">
<ele>131.3572998</ele>
<time>2011-08-15T14:29:37Z</time>
<extensions>
<tp1:TrackPointExtension>
<tp1:hr>163</tp1:hr>
</tp1:TrackPointExtension>
</extensions>
</trkpt>
<trkpt lat="50.7136400" lon="7.0131499">
<ele>127.0313721</ele>
<time>2011-08-15T14:29:43Z</time>
<extensions>
<tp1:TrackPointExtension>
<tp1:hr>160</tp1:hr>
</tp1:TrackPointExtension>
</extensions>
</trkpt>
<trkpt lat="50.7139730" lon="7.0137001">
<ele>121.7441406</ele>
<time>2011-08-15T14:29:52Z</time>
<extensions>
<tp1:TrackPointExtension>
<tp1:hr>155</tp1:hr>
</tp1:TrackPointExtension>
</extensions>
</trkpt>
<trkpt lat="50.7140033" lon="7.0137515">
<ele>120.7828369</ele>
<time>2011-08-15T14:29:53Z</time>
<extensions>
<tp1:TrackPointExtension>
<tp1:hr>155</tp1:hr>
</tp1:TrackPointExtension>
</extensions>
</trkpt>
<trkpt lat="50.7141403" lon="7.0140988">
<ele>120.3021240</ele>
<time>2011-08-15T14:29:59Z</time>
<extensions>
<tp1:TrackPointExtension>
<tp1:hr>152</tp1:hr>
</tp1:TrackPointExtension>
</extensions>
</trkpt>
<trkpt lat="50.7142637" lon="7.0141667">
<ele>123.1861572</ele>
<time>2011-08-15T14:30:03Z</time>
<extensions>
<tp1:TrackPointExtension>
<tp1:hr>150</tp1:hr>
</tp1:TrackPointExtension>
</extensions>
</trkpt>
<trkpt lat="50.7143772" lon="7.0141246">
<ele>126.5506592</ele>
<time>2011-08-15T14:30:07Z</time>
<extensions>
<tp1:TrackPointExtension>
<tp1:hr>150</tp1:hr>
</tp1:TrackPointExtension>
</extensions>
</trkpt>
<trkpt lat="50.7145980" lon="7.0139884">
<ele>133.7604980</ele>
<time>2011-08-15T14:30:15Z</time>
<extensions>
<tp1:TrackPointExtension>
<tp1:hr>152</tp1:hr>
</tp1:TrackPointExtension>
</extensions>
</trkpt>
<trkpt lat="50.7147762" lon="7.0138815">
<ele>139.0478516</ele>
<time>2011-08-15T14:30:21Z</time>
<extensions>
<tp1:TrackPointExtension>
<tp1:hr>156</tp1:hr>
</tp1:TrackPointExtension>
</extensions>
</trkpt>
<trkpt lat="50.7149967" lon="7.0137695">
<ele>144.3352051</ele>
<time>2011-08-15T14:30:28Z</time>
<extensions>
<tp1:TrackPointExtension>
<tp1:hr>160</tp1:hr>
</tp1:TrackPointExtension>
</extensions>
</trkpt>
<trkpt lat="50.7152053" lon="7.0136071">
<ele>149.6223145</ele>
<time>2011-08-15T14:30:35Z</time>
<extensions>
<tp1:TrackPointExtension>
<tp1:hr>163</tp1:hr>
</tp1:TrackPointExtension>
</extensions>
</trkpt>
<trkpt lat="50.7153992" lon="7.0134186">
<ele>152.0257568</ele>
<time>2011-08-15T14:30:42Z</time>
<extensions>
<tp1:TrackPointExtension>
<tp1:hr>167</tp1:hr>
</tp1:TrackPointExtension>
</extensions>
</trkpt>
<trkpt lat="50.7156178" lon="7.0133603">
<ele>151.0642090</ele>
<time>2011-08-15T14:30:48Z</time>
<extensions>
<tp1:TrackPointExtension>
<tp1:hr>168</tp1:hr>
</tp1:TrackPointExtension>
</extensions>
</trkpt>
<trkpt lat="50.7157738" lon="7.0134152">
<ele>148.6610107</ele>
<time>2011-08-15T14:30:53Z</time>
<extensions>
<tp1:TrackPointExtension>
<tp1:hr>169</tp1:hr>
</tp1:TrackPointExtension>
</extensions>
</trkpt>
<trkpt lat="50.7158654" lon="7.0134508">
<ele>147.2189941</ele>
<time>2011-08-15T14:30:56Z</time>
<extensions>
<tp1:TrackPointExtension>
<tp1:hr>170</tp1:hr>
</tp1:TrackPointExtension>
</extensions>
</trkpt>
<trkpt lat="50.7159854" lon="7.0135196">
<ele>146.7384033</ele>
<time>2011-08-15T14:31:00Z</time>
<extensions>
<tp1:TrackPointExtension>
<tp1:hr>170</tp1:hr>
</tp1:TrackPointExtension>
</extensions>
</trkpt>
<trkpt lat="50.7162063" lon="7.0135878">
<ele>145.2963867</ele>
<time>2011-08-15T14:31:08Z</time>
<extensions>
<tp1:TrackPointExtension>
<tp1:hr>171</tp1:hr>
</tp1:TrackPointExtension>
</extensions>
</trkpt>
<trkpt lat="50.7163884" lon="7.0135795">
<ele>149.1416016</ele>
<time>2011-08-15T14:31:14Z</time>
<extensions>
<tp1:TrackPointExtension>
<tp1:hr>173</tp1:hr>
</tp1:TrackPointExtension>
</extensions>
</trkpt>
<trkpt lat="50.7166471" lon="7.0135279">
<ele>152.9869385</ele>
<time>2011-08-15T14:31:21Z</time>
<extensions>
<tp1:TrackPointExtension>
<tp1:hr>174</tp1:hr>
</tp1:TrackPointExtension>
</extensions>
</trkpt>
<trkpt lat="50.7167439" lon="7.0134795">
<ele>152.5063477</ele>
<time>2011-08-15T14:31:23Z</time>
<extensions>
<tp1:TrackPointExtension>
<tp1:hr>175</tp1:hr>
</tp1:TrackPointExtension>
</extensions>
</trkpt>
<trkpt lat="50.7171852" lon="7.0131527">
<ele>151.0642090</ele>
<time>2011-08-15T14:31:31Z</time>
<extensions>
<tp1:TrackPointExtension>
<tp1:hr>171</tp1:hr>
</tp1:TrackPointExtension>
</extensions>
</trkpt>
<trkpt lat="50.7173937" lon="7.0130126">
<ele>152.0257568</ele>
<time>2011-08-15T14:31:35Z</time>
<extensions>
<tp1:TrackPointExtension>
<tp1:hr>170</tp1:hr>
</tp1:TrackPointExtension>
</extensions>
</trkpt>
<trkpt lat="50.7176028" lon="7.0130080">
<ele>153.9483643</ele>
<time>2011-08-15T14:31:39Z</time>
<extensions>
<tp1:TrackPointExtension>
<tp1:hr>170</tp1:hr>
</tp1:TrackPointExtension>
</extensions>
</trkpt>
<trkpt lat="50.7178638" lon="7.0132549">
<ele>153.4676514</ele>
<time>2011-08-15T14:31:45Z</time>
<extensions>
<tp1:TrackPointExtension>
<tp1:hr>170</tp1:hr>
</tp1:TrackPointExtension>
</extensions>
</trkpt>
<trkpt lat="50.7179510" lon="7.0132075">
<ele>154.4289551</ele>
<time>2011-08-15T14:31:47Z</time>
<extensions>
<tp1:TrackPointExtension>
<tp1:hr>170</tp1:hr>
</tp1:TrackPointExtension>
</extensions>
</trkpt>
<trkpt lat="50.7182468" lon="7.0128318">
<ele>154.9095459</ele>
<time>2011-08-15T14:31:56Z</time>
<extensions>
<tp1:TrackPointExtension>
<tp1:hr>167</tp1:hr>
</tp1:TrackPointExtension>
</extensions>
</trkpt>
<trkpt lat="50.7183859" lon="7.0126887">
<ele>156.3515625</ele>
<time>2011-08-15T14:32:00Z</time>
<extensions>
<tp1:TrackPointExtension>
<tp1:hr>165</tp1:hr>
</tp1:TrackPointExtension>
</extensions>
</trkpt>
<trkpt lat="50.7186052" lon="7.0124074">
<ele>158.7547607</ele>
<time>2011-08-15T14:32:07Z</time>
<extensions>
<tp1:TrackPointExtension>
<tp1:hr>164</tp1:hr>
</tp1:TrackPointExtension>
</extensions>
</trkpt>
<trkpt lat="50.7188042" lon="7.0123026">
<ele>162.1195068</ele>
<time>2011-08-15T14:32:13Z</time>
<extensions>
<tp1:TrackPointExtension>
<tp1:hr>164</tp1:hr>
</tp1:TrackPointExtension>
</extensions>
</trkpt>
<trkpt lat="50.7189492" lon="7.0123710">
<ele>161.6389160</ele>
<time>2011-08-15T14:32:17Z</time>
<extensions>
<tp1:TrackPointExtension>
<tp1:hr>165</tp1:hr>
</tp1:TrackPointExtension>
</extensions>
</trkpt>
<trkpt lat="50.7192039" lon="7.0126165">
<ele>160.6774902</ele>
<time>2011-08-15T14:32:24Z</time>
<extensions>
<tp1:TrackPointExtension>
<tp1:hr>165</tp1:hr>
</tp1:TrackPointExtension>
</extensions>
</trkpt>
<trkpt lat="50.7194008" lon="7.0128191">
<ele>159.2354736</ele>
<time>2011-08-15T14:32:29Z</time>
<extensions>
<tp1:TrackPointExtension>
<tp1:hr>165</tp1:hr>
</tp1:TrackPointExtension>
</extensions>
</trkpt>
<trkpt lat="50.7198007" lon="7.0131734">
<ele>156.3515625</ele>
<time>2011-08-15T14:32:39Z</time>
<extensions>
<tp1:TrackPointExtension>
<tp1:hr>165</tp1:hr>
</tp1:TrackPointExtension>
</extensions>
</trkpt>
<trkpt lat="50.7198370" lon="7.0132049">
<ele>156.8321533</ele>
<time>2011-08-15T14:32:40Z</time>
<extensions>
<tp1:TrackPointExtension>
<tp1:hr>165</tp1:hr>
</tp1:TrackPointExtension>
</extensions>
</trkpt>
<trkpt lat="50.7199065" lon="7.0133200">
<ele>157.3128662</ele>
<time>2011-08-15T14:32:42Z</time>
<extensions>
<tp1:TrackPointExtension>
<tp1:hr>165</tp1:hr>
</tp1:TrackPointExtension>
</extensions>
</trkpt>
<trkpt lat="50.7202038" lon="7.0135442">
<ele>158.2741699</ele>
<time>2011-08-15T14:32:49Z</time>
<extensions>
<tp1:TrackPointExtension>
<tp1:hr>163</tp1:hr>
</tp1:TrackPointExtension>
</extensions>
</trkpt>
<trkpt lat="50.7206176" lon="7.0139292">
<ele>156.8321533</ele>
<time>2011-08-15T14:32:58Z</time>
<extensions>
<tp1:TrackPointExtension>
<tp1:hr>159</tp1:hr>
</tp1:TrackPointExtension>
</extensions>
</trkpt>
<trkpt lat="50.7209664" lon="7.0141389">
<ele>156.8321533</ele>
<time>2011-08-15T14:33:05Z</time>
<extensions>
<tp1:TrackPointExtension>
<tp1:hr>156</tp1:hr>
</tp1:TrackPointExtension>
</extensions>
</trkpt>
<trkpt lat="50.7213185" lon="7.0141766">
<ele>156.8321533</ele>
<time>2011-08-15T14:33:12Z</time>
<extensions>
<tp1:TrackPointExtension>
<tp1:hr>152</tp1:hr>
</tp1:TrackPointExtension>
</extensions>
</trkpt>
<trkpt lat="50.7215739" lon="7.0141647">
<ele>157.7935791</ele>
<time>2011-08-15T14:33:17Z</time>
<extensions>
<tp1:TrackPointExtension>
<tp1:hr>149</tp1:hr>
</tp1:TrackPointExtension>
</extensions>
</trkpt>
<trkpt lat="50.7220329" lon="7.0141996">
<ele>160.1968994</ele>
<time>2011-08-15T14:33:26Z</time>
<extensions>
<tp1:TrackPointExtension>
<tp1:hr>146</tp1:hr>
</tp1:TrackPointExtension>
</extensions>
</trkpt>
<trkpt lat="50.7221349" lon="7.0142242">
<ele>159.7161865</ele>
<time>2011-08-15T14:33:28Z</time>
<extensions>
<tp1:TrackPointExtension>
<tp1:hr>145</tp1:hr>
</tp1:TrackPointExtension>
</extensions>
</trkpt>
<trkpt lat="50.7222959" lon="7.0144119">
<ele>160.1968994</ele>
<time>2011-08-15T14:33:32Z</time>
<extensions>
<tp1:TrackPointExtension>
<tp1:hr>142</tp1:hr>
</tp1:TrackPointExtension>
</extensions>
</trkpt>
<trkpt lat="50.7224859" lon="7.0146848">
<ele>160.1968994</ele>
<time>2011-08-15T14:33:37Z</time>
<extensions>
<tp1:TrackPointExtension>
<tp1:hr>139</tp1:hr>
</tp1:TrackPointExtension>
</extensions>
</trkpt>
<trkpt lat="50.7226513" lon="7.0148604">
<ele>161.1582031</ele>
<time>2011-08-15T14:33:42Z</time>
<extensions>
<tp1:TrackPointExtension>
<tp1:hr>136</tp1:hr>
</tp1:TrackPointExtension>
</extensions>
</trkpt>
<trkpt lat="50.7227021" lon="7.0147610">
<ele>161.6389160</ele>
<time>2011-08-15T14:33:45Z</time>
<extensions>
<tp1:TrackPointExtension>
<tp1:hr>135</tp1:hr>
</tp1:TrackPointExtension>
</extensions>
</trkpt>
<trkpt lat="50.7227166" lon="7.0147086">
<ele>162.1195068</ele>
<time>2011-08-15T14:33:46Z</time>
<extensions>
<tp1:TrackPointExtension>
<tp1:hr>135</tp1:hr>
</tp1:TrackPointExtension>
</extensions>
</trkpt>
<trkpt lat="50.7228635" lon="7.0144889">
<ele>160.1968994</ele>
<time>2011-08-15T14:33:52Z</time>
<extensions>
<tp1:TrackPointExtension>
<tp1:hr>133</tp1:hr>
</tp1:TrackPointExtension>
</extensions>
</trkpt>
<trkpt lat="50.7231071" lon="7.0145243">
<ele>158.7547607</ele>
<time>2011-08-15T14:33:57Z</time>
<extensions>
<tp1:TrackPointExtension>
<tp1:hr>133</tp1:hr>
</tp1:TrackPointExtension>
</extensions>
</trkpt>
<trkpt lat="50.7233423" lon="7.0145515">
<ele>157.3128662</ele>
<time>2011-08-15T14:34:01Z</time>
<extensions>
<tp1:TrackPointExtension>
<tp1:hr>132</tp1:hr>
</tp1:TrackPointExtension>
</extensions>
</trkpt>
<trkpt lat="50.7234626" lon="7.0144252">
<ele>156.3515625</ele>
<time>2011-08-15T14:34:05Z</time>
<extensions>
<tp1:TrackPointExtension>
<tp1:hr>129</tp1:hr>
</tp1:TrackPointExtension>
</extensions>
</trkpt>
<trkpt lat="50.7234217" lon="7.0142802">
<ele>156.8321533</ele>
<time>2011-08-15T14:34:08Z</time>
<extensions>
<tp1:TrackPointExtension>
<tp1:hr>128</tp1:hr>
</tp1:TrackPointExtension>
</extensions>
</trkpt>
<trkpt lat="50.7234535" lon="7.0141966">
<ele>157.7935791</ele>
<time>2011-08-15T14:34:10Z</time>
<extensions>
<tp1:TrackPointExtension>
<tp1:hr>128</tp1:hr>
</tp1:TrackPointExtension>
</extensions>
</trkpt>
</trkseg>
</trk>
</gpx>
